{
  "fields": [{"id":"_id","type":"int"},{"id":"dev_id","type":"numeric"},{"id":"dev_model","type":"text"},{"id":"dev_manufactor","type":"text"},{"id":"dev_serial","type":"text"},{"id":"dev_latitude","type":"numeric"},{"id":"dev_longitude","type":"numeric"},{"id":"dev_street","type":"text"},{"id":"dev_street_no","type":"text"},{"id":"dev_city","type":"text"},{"id":"dev_name","type":"text"},{"id":"id","type":"numeric"},{"id":"dev_send_time","type":"timestamp"},{"id":"dev_state","type":"numeric"},{"id":"dev_state_description","type":"text"},{"id":"dev_temperature","type":"numeric"},{"id":"dev_humidity","type":"numeric"},{"id":"dev_pressure","type":"numeric"},{"id":"dev_pm_1","type":"numeric"},{"id":"dev_pm_2_5","type":"numeric"},{"id":"dev_pm_10","type":"numeric"}],
  "records": [
    [1,363171,"Vazduh","Libelium","0004A30B0021DF70",44.979,16.7091,"","","Prijedor","",14607021,"2022-10-03T10:53:42",3,"NO ERROR",17.82,63,1006.43,0.25,0.3,0.3],
    [2,363171,"Vazduh","Libelium","0004A30B0021DF70",44.979,16.7091,"","","Prijedor","",14607565,"2022-10-03T11:54:24",3,"NO ERROR",20.04,58.2,1006.17,0.23,0.4,0.51],
    [3,363171,"Vazduh","Libelium","0004A30B0021DF70",44.979,16.7091,"","","Prijedor","",14608103,"2022-10-03T12:55:06",3,"NO ERROR",21.22,49.9,1005.82,0.06,0.13,0.14],
    [4,363171,"Vazduh","Libelium","0004A30B0021DF70",44.979,16.7091,"","","Prijedor","",14608630,"2022-10-03T13:55:48",3,"NO ERROR",23.34,45.8,1005.53,0.29,0.38,0.38],
    [5,363171,"Vazduh","Libelium","0004A30B0021DF70",44.979,16.7091,"","","Prijedor","",14609161,"2022-10-03T14:56:30",3,"NO ERROR",23.58,43.7,1005.32,0.31,0.33,0.33],
    [6,363171,"Vazduh","Libelium","0004A30B0021DF70",44.979,16.7091,"","","Prijedor","",14609716,"2022-10-03T15:57:12",3,"NO ERROR",24.6,41.1,1005.07,0.22,0.23,0.23],
    [7,363171,"Vazduh","Libelium","0004A30B0021DF70",44.979,16.7091,"","","Prijedor","",14610252,"2022-10-03T16:57:54",3,"NO ERROR",20.05,48.8,1005,0.32,0.49,0.91],
    [8,363171,"Vazduh","Libelium","0004A30B0021DF70",44.979,16.7091,"","","Prijedor","",14610795,"2022-10-03T17:58:36",3,"NO ERROR",18.94,53,1005.13,1.37,1.91,3.31],
    [9,363171,"Vazduh","Libelium","0004A30B0021DF70",44.979,16.7091,"","","Prijedor","",14612360,"2022-10-03T18:59:19",3,"NO ERROR",16.21,69.2,1005.53,0.39,0.49,0.57],
    [10,363171,"Vazduh","Libelium","0004A30B0021DF70",44.979,16.7091,"","","Prijedor","",14614617,"2022-10-03T20:00:01",3,"NO ERROR",14.03,85.6,1005.89,1.08,1.21,1.21],
    [11,363171,"Vazduh","Libelium","0004A30B0021DF70",44.979,16.7091,"","","Prijedor","",14616099,"2022-10-03T21:00:43",3,"NO ERROR",12.45,95.2,1006.49,1,1.18,1.18],
    [12,363171,"Vazduh","Libelium","0004A30B0021DF70",44.979,16.7091,"","","Prijedor","",14617374,"2022-10-03T22:01:25",3,"NO ERROR",11.83,100,1007.03,0.73,0.92,1.38],
    [13,363171,"Vazduh","Libelium","0004A30B0021DF70",44.979,16.7091,"","","Prijedor","",14618627,"2022-10-03T23:02:07",3,"NO ERROR",10.54,100,1007.49,0.88,1.02,1.03],
    [14,363171,"Vazduh","Libelium","0004A30B0021DF70",44.979,16.7091,"","","Prijedor","",14620033,"2022-10-04T00:02:49",3,"NO ERROR",10.24,100,1008.06,0.51,0.73,0.83],
    [15,363171,"Vazduh","Libelium","0004A30B0021DF70",44.979,16.7091,"","","Prijedor","",14621369,"2022-10-04T01:03:31",3,"NO ERROR",10.2,100,1008.39,0.6,0.93,1.41],
    [16,363171,"Vazduh","Libelium","0004A30B0021DF70",44.979,16.7091,"","","Prijedor","",14622586,"2022-10-04T02:04:14",3,"NO ERROR",9.38,100,1008.65,0.74,0.98,1.13],
    [17,363171,"Vazduh","Libelium","0004A30B0021DF70",44.979,16.7091,"","","Prijedor","",14623896,"2022-10-04T03:04:56",3,"NO ERROR",9.41,100,1008.74,0.39,0.45,0.45],
    [18,363171,"Vazduh","Libelium","0004A30B0021DF70",44.979,16.7091,"","","Prijedor","",14625202,"2022-10-04T04:05:38",3,"NO ERROR",8.17,100,1008.36,1.47,1.77,2.14],
    [19,363171,"Vazduh","Libelium","0004A30B0021DF70",44.979,16.7091,"","","Prijedor","",14626478,"2022-10-04T05:06:20",3,"NO ERROR",7.04,100,1008.3,7.99,9.14,44.77],
    [20,363171,"Vazduh","Libelium","0004A30B0021DF70",44.979,16.7091,"","","Prijedor","",14627754,"2022-10-04T06:07:02",3,"NO ERROR",6.5,100,1008.18,2.2,2.29,2.29],
    [21,363171,"Vazduh","Libelium","0004A30B0021DF70",44.979,16.7091,"","","Prijedor","",14628522,"2022-10-04T07:07:57",3,"NO ERROR",6.15,100,1008.57,1.85,1.97,1.97],
    [22,363171,"Vazduh","Libelium","0004A30B0021DF70",44.979,16.7091,"","","Prijedor","",14629129,"2022-10-04T08:08:39",3,"NO ERROR",8.06,100,1008.97,1.99,2.28,2.29],
    [23,363171,"Vazduh","Libelium","0004A30B0021DF70",44.979,16.7091,"","","Prijedor","",14629732,"2022-10-04T09:09:21",3,"NO ERROR",13.15,87.9,1009.27,0.86,0.91,0.91],
    [24,363171,"Vazduh","Libelium","0004A30B0021DF70",44.979,16.7091,"","","Prijedor","",14630332,"2022-10-04T10:10:03",3,"NO ERROR",13.04,86.8,1009.64,0.07,0.07,0.07],
    [25,363171,"Vazduh","Libelium","0004A30B0021DF70",44.979,16.7091,"","","Prijedor","",14630946,"2022-10-04T11:10:45",3,"NO ERROR",16.53,69.6,1009.71,0.16,0.23,0.25],
    [26,363171,"Vazduh","Libelium","0004A30B0021DF70",44.979,16.7091,"","","Prijedor","",14631581,"2022-10-04T12:11:27",3,"NO ERROR",18.2,58.5,1009.29,0.31,0.33,0.33],
    [27,363171,"Vazduh","Libelium","0004A30B0021DF70",44.979,16.7091,"","","Prijedor","",14632212,"2022-10-04T13:12:10",3,"NO ERROR",20.53,44.6,1008.76,0.36,0.54,0.55],
    [28,363171,"Vazduh","Libelium","0004A30B0021DF70",44.979,16.7091,"","","Prijedor","",14632827,"2022-10-04T14:12:52",3,"NO ERROR",20.09,44.2,1008.21,0.28,0.33,0.33],
    [29,363171,"Vazduh","Libelium","0004A30B0021DF70",44.979,16.7091,"","","Prijedor","",14633404,"2022-10-04T15:13:34",3,"NO ERROR",24.45,39.3,1007.9,0.19,0.21,0.21],
    [30,363171,"Vazduh","Libelium","0004A30B0021DF70",44.979,16.7091,"","","Prijedor","",14634051,"2022-10-04T16:14:16",3,"NO ERROR",22.24,41.4,1008.11,0.36,0.56,0.92],
    [31,363171,"Vazduh","Libelium","0004A30B0021DF70",44.979,16.7091,"","","Prijedor","",14634677,"2022-10-04T17:14:58",3,"NO ERROR",20.25,44,1008.16,1.37,1.72,1.96],
    [32,363171,"Vazduh","Libelium","0004A30B0021DF70",44.979,16.7091,"","","Prijedor","",14635252,"2022-10-04T18:15:40",3,"NO ERROR",17.55,53.2,1008.52,0.53,0.74,0.92],
    [33,363171,"Vazduh","Libelium","0004A30B0021DF70",44.979,16.7091,"","","Prijedor","",14637761,"2022-10-04T19:16:28",3,"NO ERROR",14.04,73.8,1009.32,1.84,2.27,2.42],
    [34,363171,"Vazduh","Libelium","0004A30B0021DF70",44.979,16.7091,"","","Prijedor","",14640088,"2022-10-04T20:17:10",3,"NO ERROR",12.48,86.1,1009.94,1.64,2.04,2.45],
    [35,363171,"Vazduh","Libelium","0004A30B0021DF70",44.979,16.7091,"","","Prijedor","",14641729,"2022-10-04T21:17:52",3,"NO ERROR",10.55,96,1010.53,2.03,2.34,2.37],
    [36,363171,"Vazduh","Libelium","0004A30B0021DF70",44.979,16.7091,"","","Prijedor","",14643144,"2022-10-04T22:18:35",3,"NO ERROR",9.58,99.8,1010.93,1.74,1.81,1.81],
    [37,363171,"Vazduh","Libelium","0004A30B0021DF70",44.979,16.7091,"","","Prijedor","",14644466,"2022-10-04T23:19:17",3,"NO ERROR",8.78,100,1011.65,1.03,1.09,1.09],
    [38,363171,"Vazduh","Libelium","0004A30B0021DF70",44.979,16.7091,"","","Prijedor","",14646008,"2022-10-05T00:19:59",3,"NO ERROR",7.64,100,1012.1,0.59,0.77,1.16],
    [39,363171,"Vazduh","Libelium","0004A30B0021DF70",44.979,16.7091,"","","Prijedor","",14647286,"2022-10-05T01:20:41",3,"NO ERROR",7.55,100,1012.29,1.26,1.63,1.78],
    [40,363171,"Vazduh","Libelium","0004A30B0021DF70",44.979,16.7091,"","","Prijedor","",14648470,"2022-10-05T02:21:23",3,"NO ERROR",6.08,100,1012.57,1.1,1.63,1.92],
    [41,363171,"Vazduh","Libelium","0004A30B0021DF70",44.979,16.7091,"","","Prijedor","",14649665,"2022-10-05T03:22:05",3,"NO ERROR",6.21,100,1012.8,0.4,0.46,0.47],
    [42,363171,"Vazduh","Libelium","0004A30B0021DF70",44.979,16.7091,"","","Prijedor","",14650930,"2022-10-05T04:22:48",3,"NO ERROR",5.87,100,1012.75,0.21,0.24,0.24],
    [43,363171,"Vazduh","Libelium","0004A30B0021DF70",44.979,16.7091,"","","Prijedor","",14652144,"2022-10-05T05:23:30",3,"NO ERROR",5.5,100,1012.96,0.57,0.61,0.62],
    [44,363171,"Vazduh","Libelium","0004A30B0021DF70",44.979,16.7091,"","","Prijedor","",14653388,"2022-10-05T06:24:12",3,"NO ERROR",4.41,100,1013.11,0.2,0.23,0.23],
    [45,363171,"Vazduh","Libelium","0004A30B0021DF70",44.979,16.7091,"","","Prijedor","",14653949,"2022-10-05T07:24:54",3,"NO ERROR",5.35,100,1013.26,12.86,18.85,172.67],
    [46,363171,"Vazduh","Libelium","0004A30B0021DF70",44.979,16.7091,"","","Prijedor","",14654568,"2022-10-05T08:25:36",3,"NO ERROR",10.35,92.2,1013.3,0.3,0.47,0.51],
    [47,363171,"Vazduh","Libelium","0004A30B0021DF70",44.979,16.7091,"","","Prijedor","",14655168,"2022-10-05T09:26:19",3,"NO ERROR",14.8,74.7,1013.66,0.05,0.05,0.05],
    [48,363171,"Vazduh","Libelium","0004A30B0021DF70",44.979,16.7091,"","","Prijedor","",14655764,"2022-10-05T10:27:01",3,"NO ERROR",14.63,73.1,1013.41,0.24,0.26,0.26],
    [49,363171,"Vazduh","Libelium","0004A30B0021DF70",44.979,16.7091,"","","Prijedor","",14656326,"2022-10-05T11:27:43",3,"NO ERROR",16.71,66.6,1013.31,0.28,0.4,1.45],
    [50,363171,"Vazduh","Libelium","0004A30B0021DF70",44.979,16.7091,"","","Prijedor","",14656899,"2022-10-05T12:28:25",3,"NO ERROR",19.83,55,1012.84,0.21,0.28,0.28],
    [51,363171,"Vazduh","Libelium","0004A30B0021DF70",44.979,16.7091,"","","Prijedor","",14657469,"2022-10-05T13:29:07",3,"NO ERROR",23.75,44,1012.68,0.63,0.7,0.7],
    [52,363171,"Vazduh","Libelium","0004A30B0021DF70",44.979,16.7091,"","","Prijedor","",14658020,"2022-10-05T14:29:49",3,"NO ERROR",22.93,44.6,1011.66,0.25,0.33,0.33],
    [53,363171,"Vazduh","Libelium","0004A30B0021DF70",44.979,16.7091,"","","Prijedor","",14658534,"2022-10-05T15:30:31",3,"NO ERROR",24.73,40.9,1011.24,0.24,0.31,0.31],
    [54,363171,"Vazduh","Libelium","0004A30B0021DF70",44.979,16.7091,"","","Prijedor","",14659054,"2022-10-05T16:31:13",3,"NO ERROR",23.14,42.7,1010.88,0.23,0.38,0.47],
    [55,363171,"Vazduh","Libelium","0004A30B0021DF70",44.979,16.7091,"","","Prijedor","",14659588,"2022-10-05T17:31:55",3,"NO ERROR",20.63,49.9,1010.52,0.49,0.71,0.75],
    [56,363171,"Vazduh","Libelium","0004A30B0021DF70",44.979,16.7091,"","","Prijedor","",14660156,"2022-10-05T18:32:37",3,"NO ERROR",17.96,68.2,1010.68,1.92,2.7,2.88],
    [57,363171,"Vazduh","Libelium","0004A30B0021DF70",44.979,16.7091,"","","Prijedor","",14663398,"2022-10-05T19:33:20",3,"NO ERROR",16.17,78.8,1011,2.16,2.49,2.59],
    [58,363171,"Vazduh","Libelium","0004A30B0021DF70",44.979,16.7091,"","","Prijedor","",14665402,"2022-10-05T20:34:02",3,"NO ERROR",14.45,90.1,1011.12,2.96,3.48,4.09],
    [59,363171,"Vazduh","Libelium","0004A30B0021DF70",44.979,16.7091,"","","Prijedor","",14666850,"2022-10-05T21:34:44",3,"NO ERROR",13.48,94.4,1011.19,1.68,2.03,2.18],
    [60,363171,"Vazduh","Libelium","0004A30B0021DF70",44.979,16.7091,"","","Prijedor","",14668097,"2022-10-05T22:35:26",3,"NO ERROR",12.63,99.7,1011.73,2.78,2.99,3],
    [61,363171,"Vazduh","Libelium","0004A30B0021DF70",44.979,16.7091,"","","Prijedor","",14669249,"2022-10-05T23:36:08",3,"NO ERROR",12.3,99.5,1011.76,0.77,0.89,0.91],
    [62,363171,"Vazduh","Libelium","0004A30B0021DF70",44.979,16.7091,"","","Prijedor","",14670643,"2022-10-06T00:36:50",3,"NO ERROR",11.75,100,1011.75,1.05,1.42,1.59],
    [63,363171,"Vazduh","Libelium","0004A30B0021DF70",44.979,16.7091,"","","Prijedor","",14671840,"2022-10-06T01:37:33",3,"NO ERROR",10.31,100,1011.62,0.89,1.08,1.11],
    [64,363171,"Vazduh","Libelium","0004A30B0021DF70",44.979,16.7091,"","","Prijedor","",14673028,"2022-10-06T02:38:15",3,"NO ERROR",9.38,100,1011.63,1.1,1.23,1.24],
    [65,363171,"Vazduh","Libelium","0004A30B0021DF70",44.979,16.7091,"","","Prijedor","",14674178,"2022-10-06T03:38:57",3,"NO ERROR",9.55,100,1011.48,1.33,1.67,2.19],
    [66,363171,"Vazduh","Libelium","0004A30B0021DF70",44.979,16.7091,"","","Prijedor","",14675361,"2022-10-06T04:39:39",3,"NO ERROR",8.4,100,1011.5,1.5,1.81,1.84],
    [67,363171,"Vazduh","Libelium","0004A30B0021DF70",44.979,16.7091,"","","Prijedor","",14676531,"2022-10-06T05:40:21",3,"NO ERROR",8.34,100,1011.76,1.49,1.69,1.69],
    [68,363171,"Vazduh","Libelium","0004A30B0021DF70",44.979,16.7091,"","","Prijedor","",14677542,"2022-10-06T06:41:03",3,"NO ERROR",7.82,100,1012.15,2.99,3.35,3.38],
    [69,363171,"Vazduh","Libelium","0004A30B0021DF70",44.979,16.7091,"","","Prijedor","",14678098,"2022-10-06T07:41:46",3,"NO ERROR",8.12,100,1012.6,3.76,4.45,37.24],
    [70,363171,"Vazduh","Libelium","0004A30B0021DF70",44.979,16.7091,"","","Prijedor","",14678643,"2022-10-06T08:42:28",3,"NO ERROR",9.82,100,1013.38,4.75,5.43,5.82],
    [71,363171,"Vazduh","Libelium","0004A30B0021DF70",44.979,16.7091,"","","Prijedor","",14679196,"2022-10-06T09:43:10",3,"NO ERROR",16.17,79.4,1013.6,0.91,1,1.01],
    [72,363171,"Vazduh","Libelium","0004A30B0021DF70",44.979,16.7091,"","","Prijedor","",14679717,"2022-10-06T10:43:52",3,"NO ERROR",18.27,74.7,1013.78,2.33,2.67,2.84],
    [73,363171,"Vazduh","Libelium","0004A30B0021DF70",44.979,16.7091,"","","Prijedor","",14680227,"2022-10-06T11:44:34",3,"NO ERROR",19,69,1014.04,0.86,0.98,0.98],
    [74,363171,"Vazduh","Libelium","0004A30B0021DF70",44.979,16.7091,"","","Prijedor","",14680785,"2022-10-06T12:45:16",3,"NO ERROR",20.58,69.3,1013.92,0.33,0.39,0.39],
    [75,363171,"Vazduh","Libelium","0004A30B0021DF70",44.979,16.7091,"","","Prijedor","",14681359,"2022-10-06T13:46:05",3,"NO ERROR",24.35,56.7,1013.42,0.33,0.46,3.05],
    [76,363171,"Vazduh","Libelium","0004A30B0021DF70",44.979,16.7091,"","","Prijedor","",14681892,"2022-10-06T14:46:47",3,"NO ERROR",26.46,51,1013.17,1.05,1.23,1.26],
    [77,363171,"Vazduh","Libelium","0004A30B0021DF70",44.979,16.7091,"","","Prijedor","",14682466,"2022-10-06T15:47:29",3,"NO ERROR",25.78,53.2,1012.97,0.55,0.63,0.63],
    [78,363171,"Vazduh","Libelium","0004A30B0021DF70",44.979,16.7091,"","","Prijedor","",14683019,"2022-10-06T16:48:11",3,"NO ERROR",22.83,59.8,1013.16,0.5,0.63,0.63],
    [79,363171,"Vazduh","Libelium","0004A30B0021DF70",44.979,16.7091,"","","Prijedor","",14683624,"2022-10-06T17:48:53",3,"NO ERROR",20.85,69,1013.39,1.16,1.43,1.55],
    [80,363171,"Vazduh","Libelium","0004A30B0021DF70",44.979,16.7091,"","","Prijedor","",14685233,"2022-10-06T18:49:35",3,"NO ERROR",18.76,80.4,1013.7,1.78,2.03,2.04],
    [81,363171,"Vazduh","Libelium","0004A30B0021DF70",44.979,16.7091,"","","Prijedor","",14687820,"2022-10-06T19:50:17",3,"NO ERROR",17.77,89.4,1014.05,0.98,1.19,1.27],
    [82,363171,"Vazduh","Libelium","0004A30B0021DF70",44.979,16.7091,"","","Prijedor","",14689535,"2022-10-06T20:50:59",3,"NO ERROR",16.55,99.8,1014.37,3.02,3.3,3.4],
    [83,363171,"Vazduh","Libelium","0004A30B0021DF70",44.979,16.7091,"","","Prijedor","",14691056,"2022-10-06T21:51:41",3,"NO ERROR",15.36,100,1014.6,2.16,2.72,2.92],
    [84,363171,"Vazduh","Libelium","0004A30B0021DF70",44.979,16.7091,"","","Prijedor","",14692379,"2022-10-06T22:52:23",3,"NO ERROR",14.51,100,1014.81,1.07,1.39,1.9],
    [85,363171,"Vazduh","Libelium","0004A30B0021DF70",44.979,16.7091,"","","Prijedor","",14693645,"2022-10-06T23:53:06",3,"NO ERROR",13.56,100,1014.61,1.95,2.17,2.17],
    [86,363171,"Vazduh","Libelium","0004A30B0021DF70",44.979,16.7091,"","","Prijedor","",14695110,"2022-10-07T00:53:54",3,"NO ERROR",13,100,1014.32,1.53,1.95,2.46],
    [87,363171,"Vazduh","Libelium","0004A30B0021DF70",44.979,16.7091,"","","Prijedor","",14696407,"2022-10-07T01:54:36",3,"NO ERROR",12.22,100,1014.19,2.82,3.11,3.12],
    [88,363171,"Vazduh","Libelium","0004A30B0021DF70",44.979,16.7091,"","","Prijedor","",14697656,"2022-10-07T02:55:18",3,"NO ERROR",12.11,100,1014,2.51,2.74,2.74],
    [89,363171,"Vazduh","Libelium","0004A30B0021DF70",44.979,16.7091,"","","Prijedor","",14698968,"2022-10-07T03:56:00",3,"NO ERROR",11.8,100,1013.4,2.22,2.42,2.52],
    [90,363171,"Vazduh","Libelium","0004A30B0021DF70",44.979,16.7091,"","","Prijedor","",14700203,"2022-10-07T04:56:42",3,"NO ERROR",11.61,100,1013.37,13.96,16.98,59.37],
    [91,363171,"Vazduh","Libelium","0004A30B0021DF70",44.979,16.7091,"","","Prijedor","",14701660,"2022-10-07T05:57:31",3,"NO ERROR",11.38,100,1013.44,13.74,18.14,208.41],
    [92,363171,"Vazduh","Libelium","0004A30B0021DF70",44.979,16.7091,"","","Prijedor","",14703901,"2022-10-07T06:58:13",3,"NO ERROR",11.47,100,1013.11,8.08,14.49,169.05],
    [93,363171,"Vazduh","Libelium","0004A30B0021DF70",44.979,16.7091,"","","Prijedor","",14704459,"2022-10-07T07:58:55",3,"NO ERROR",11.24,100,1013.24,4.01,10.16,309.68],
    [94,363171,"Vazduh","Libelium","0004A30B0021DF70",44.979,16.7091,"","","Prijedor","",14705039,"2022-10-07T08:59:37",3,"NO ERROR",12.02,100,1013.48,1.76,2.45,3.82],
    [95,363171,"Vazduh","Libelium","0004A30B0021DF70",44.979,16.7091,"","","Prijedor","",14705636,"2022-10-07T10:00:19",3,"NO ERROR",16.9,89,1013.22,0.75,0.84,0.84],
    [96,363171,"Vazduh","Libelium","0004A30B0021DF70",44.979,16.7091,"","","Prijedor","",14706239,"2022-10-07T11:01:01",3,"NO ERROR",18.3,82.7,1012.42,0.28,0.32,0.32],
    [97,363171,"Vazduh","Libelium","0004A30B0021DF70",44.979,16.7091,"","","Prijedor","",14706848,"2022-10-07T12:01:43",3,"NO ERROR",20.4,76,1011.74,0.73,0.78,0.78],
    [98,363171,"Vazduh","Libelium","0004A30B0021DF70",44.979,16.7091,"","","Prijedor","",14707434,"2022-10-07T13:02:26",3,"NO ERROR",21.79,70.1,1010.8,0.38,0.46,0.47],
    [99,363171,"Vazduh","Libelium","0004A30B0021DF70",44.979,16.7091,"","","Prijedor","",14708015,"2022-10-07T14:03:08",3,"NO ERROR",22.17,67.8,1009.91,0.85,1.29,1.86],
    [100,363171,"Vazduh","Libelium","0004A30B0021DF70",44.979,16.7091,"","","Prijedor","",14708585,"2022-10-07T15:03:50",3,"NO ERROR",24.58,65,1008.93,0.53,0.75,0.92],
    [101,363171,"Vazduh","Libelium","0004A30B0021DF70",44.979,16.7091,"","","Prijedor","",14709140,"2022-10-07T16:04:32",3,"NO ERROR",23.43,68.5,1008.36,1.49,1.85,1.99],
    [102,363171,"Vazduh","Libelium","0004A30B0021DF70",44.979,16.7091,"","","Prijedor","",14709708,"2022-10-07T17:05:14",3,"NO ERROR",21.55,75.6,1007.93,0.93,1.16,1.27],
    [103,363171,"Vazduh","Libelium","0004A30B0021DF70",44.979,16.7091,"","","Prijedor","",14710281,"2022-10-07T18:05:56",3,"NO ERROR",19.57,86.4,1007.77,1.45,2.08,2.71],
    [104,363171,"Vazduh","Libelium","0004A30B0021DF70",44.979,16.7091,"","","Prijedor","",14712691,"2022-10-07T19:06:38",3,"NO ERROR",18.04,93.3,1007.77,1.77,2.02,2.04],
    [105,363171,"Vazduh","Libelium","0004A30B0021DF70",44.979,16.7091,"","","Prijedor","",14715042,"2022-10-07T20:07:20",3,"NO ERROR",16.38,100,1007.78,2.36,2.78,3.35],
    [106,363171,"Vazduh","Libelium","0004A30B0021DF70",44.979,16.7091,"","","Prijedor","",14716604,"2022-10-07T21:08:02",3,"NO ERROR",15.27,100,1007.56,3.02,3.43,3.56],
    [107,363171,"Vazduh","Libelium","0004A30B0021DF70",44.979,16.7091,"","","Prijedor","",14718043,"2022-10-07T22:08:44",3,"NO ERROR",13.75,100,1007.48,4.37,4.9,4.92],
    [108,363171,"Vazduh","Libelium","0004A30B0021DF70",44.979,16.7091,"","","Prijedor","",14719326,"2022-10-07T23:09:33",3,"NO ERROR",12.85,100,1007.33,3.06,3.53,3.58],
    [109,363171,"Vazduh","Libelium","0004A30B0021DF70",44.979,16.7091,"","","Prijedor","",14720844,"2022-10-08T00:10:21",3,"NO ERROR",11.88,100,1007.06,2.61,2.81,2.82],
    [110,363171,"Vazduh","Libelium","0004A30B0021DF70",44.979,16.7091,"","","Prijedor","",14722212,"2022-10-08T01:11:03",3,"NO ERROR",11.18,100,1006.61,6.5,7.07,25.26],
    [111,363171,"Vazduh","Libelium","0004A30B0021DF70",44.979,16.7091,"","","Prijedor","",14723529,"2022-10-08T02:11:45",3,"NO ERROR",10.94,100,1006.51,17.53,21.33,204.88],
    [112,363171,"Vazduh","Libelium","0004A30B0021DF70",44.979,16.7091,"","","Prijedor","",14724857,"2022-10-08T03:12:27",3,"NO ERROR",10.74,100,1006.16,32.62,41.6,446.33],
    [113,363171,"Vazduh","Libelium","0004A30B0021DF70",44.979,16.7091,"","","Prijedor","",14726221,"2022-10-08T04:13:09",3,"NO ERROR",10.98,100,1005.85,24.47,30.29,184.18],
    [114,363171,"Vazduh","Libelium","0004A30B0021DF70",44.979,16.7091,"","","Prijedor","",14727522,"2022-10-08T05:13:52",3,"NO ERROR",11.08,100,1005.65,24.4,29.16,175.78],
    [115,363171,"Vazduh","Libelium","0004A30B0021DF70",44.979,16.7091,"","","Prijedor","",14728812,"2022-10-08T06:14:34",3,"NO ERROR",10.74,100,1005.72,22.22,33.36,419.63],
    [116,363171,"Vazduh","Libelium","0004A30B0021DF70",44.979,16.7091,"","","Prijedor","",14729557,"2022-10-08T07:15:16",3,"NO ERROR",10.44,100,1005.72,17.15,24.53,229.25],
    [117,363171,"Vazduh","Libelium","0004A30B0021DF70",44.979,16.7091,"","","Prijedor","",14730186,"2022-10-08T08:15:58",3,"NO ERROR",10.7,100,1006,28.62,52.39,406.72],
    [118,363171,"Vazduh","Libelium","0004A30B0021DF70",44.979,16.7091,"","","Prijedor","",14730805,"2022-10-08T09:16:40",3,"NO ERROR",11.78,100,1006.07,3.05,3.55,4.14],
    [119,363171,"Vazduh","Libelium","0004A30B0021DF70",44.979,16.7091,"","","Prijedor","",14731400,"2022-10-08T10:17:22",3,"NO ERROR",13.65,100,1006.07,1.04,1.49,2.58],
    [120,363171,"Vazduh","Libelium","0004A30B0021DF70",44.979,16.7091,"","","Prijedor","",14732012,"2022-10-08T11:18:05",3,"NO ERROR",14.05,100,1006.13,1.3,1.36,1.36],
    [121,363171,"Vazduh","Libelium","0004A30B0021DF70",44.979,16.7091,"","","Prijedor","",14732639,"2022-10-08T12:18:53",3,"NO ERROR",16.25,100,1005.7,0.85,0.94,0.94],
    [122,363171,"Vazduh","Libelium","0004A30B0021DF70",44.979,16.7091,"","","Prijedor","",14733247,"2022-10-08T13:19:35",3,"NO ERROR",20.39,84.6,1004.97,0.67,0.75,0.75],
    [123,363171,"Vazduh","Libelium","0004A30B0021DF70",44.979,16.7091,"","","Prijedor","",14733869,"2022-10-08T14:20:17",3,"NO ERROR",21.36,78.2,1004.13,0.64,0.79,0.87],
    [124,363171,"Vazduh","Libelium","0004A30B0021DF70",44.979,16.7091,"","","Prijedor","",14734470,"2022-10-08T15:20:59",3,"NO ERROR",21.75,79.3,1003.83,0.31,0.53,0.92],
    [125,363171,"Vazduh","Libelium","0004A30B0021DF70",44.979,16.7091,"","","Prijedor","",14735084,"2022-10-08T16:21:41",3,"NO ERROR",21.38,77.9,1003.84,0.84,1.24,1.52],
    [126,363171,"Vazduh","Libelium","0004A30B0021DF70",44.979,16.7091,"","","Prijedor","",14735676,"2022-10-08T17:22:23",3,"NO ERROR",20.18,84,1003.83,0.84,1.09,1.3],
    [127,363171,"Vazduh","Libelium","0004A30B0021DF70",44.979,16.7091,"","","Prijedor","",14736301,"2022-10-08T18:23:05",3,"NO ERROR",18.78,91.2,1004.3,1.14,1.51,2.06],
    [128,363171,"Vazduh","Libelium","0004A30B0021DF70",44.979,16.7091,"","","Prijedor","",14739452,"2022-10-08T19:23:47",3,"NO ERROR",17.42,100,1004.62,2.32,2.88,3.02],
    [129,363171,"Vazduh","Libelium","0004A30B0021DF70",44.979,16.7091,"","","Prijedor","",14741492,"2022-10-08T20:24:29",3,"NO ERROR",16.51,100,1005.05,1.76,1.93,1.95],
    [130,363171,"Vazduh","Libelium","0004A30B0021DF70",44.979,16.7091,"","","Prijedor","",14743190,"2022-10-08T21:25:12",3,"NO ERROR",15.79,100,1005.39,3.17,3.63,4.13],
    [131,363171,"Vazduh","Libelium","0004A30B0021DF70",44.979,16.7091,"","","Prijedor","",14744559,"2022-10-08T22:25:54",3,"NO ERROR",15.2,100,1005.61,3.12,3.6,3.84],
    [132,363171,"Vazduh","Libelium","0004A30B0021DF70",44.979,16.7091,"","","Prijedor","",14745777,"2022-10-08T23:26:36",3,"NO ERROR",14.87,100,1005.86,3.75,4.11,4.23],
    [133,363171,"Vazduh","Libelium","0004A30B0021DF70",44.979,16.7091,"","","Prijedor","",14747234,"2022-10-09T00:27:18",3,"NO ERROR",14.73,100,1005.95,4.97,5.57,6.04],
    [134,363171,"Vazduh","Libelium","0004A30B0021DF70",44.979,16.7091,"","","Prijedor","",14748514,"2022-10-09T01:28:00",3,"NO ERROR",14.19,100,1006.31,4.54,4.73,4.74],
    [135,363171,"Vazduh","Libelium","0004A30B0021DF70",44.979,16.7091,"","","Prijedor","",14749758,"2022-10-09T02:28:42",3,"NO ERROR",13.89,100,1006.66,32,37.59,196.87],
    [136,363171,"Vazduh","Libelium","0004A30B0021DF70",44.979,16.7091,"","","Prijedor","",14751016,"2022-10-09T03:29:24",3,"NO ERROR",13.58,100,1006.74,8.55,9.05,9.16],
    [137,363171,"Vazduh","Libelium","0004A30B0021DF70",44.979,16.7091,"","","Prijedor","",14752337,"2022-10-09T04:30:06",3,"NO ERROR",13.14,100,1007.01,8.51,8.99,9.39],
    [138,363171,"Vazduh","Libelium","0004A30B0021DF70",44.979,16.7091,"","","Prijedor","",14753633,"2022-10-09T05:30:49",3,"NO ERROR",13.3,100,1007.47,5.11,5.33,5.33],
    [139,363171,"Vazduh","Libelium","0004A30B0021DF70",44.979,16.7091,"","","Prijedor","",14754887,"2022-10-09T06:31:31",3,"NO ERROR",13.11,100,1007.92,6.38,6.65,6.65],
    [140,363171,"Vazduh","Libelium","0004A30B0021DF70",44.979,16.7091,"","","Prijedor","",14755464,"2022-10-09T07:32:13",3,"NO ERROR",12.98,100,1008.42,6.33,6.76,7.14],
    [141,363171,"Vazduh","Libelium","0004A30B0021DF70",44.979,16.7091,"","","Prijedor","",14756055,"2022-10-09T08:32:55",3,"NO ERROR",14.99,100,1008.85,1.41,1.69,1.7],
    [142,363171,"Vazduh","Libelium","0004A30B0021DF70",44.979,16.7091,"","","Prijedor","",14756627,"2022-10-09T09:33:37",3,"NO ERROR",17.19,95.9,1009.28,0.95,1.01,1.01],
    [143,363171,"Vazduh","Libelium","0004A30B0021DF70",44.979,16.7091,"","","Prijedor","",14757214,"2022-10-09T10:34:19",3,"NO ERROR",17.46,95.2,1009.54,0.72,1,1.12],
    [144,363171,"Vazduh","Libelium","0004A30B0021DF70",44.979,16.7091,"","","Prijedor","",14757813,"2022-10-09T11:35:01",3,"NO ERROR",17.24,95.7,1009.83,1.31,1.58,1.6],
    [145,363171,"Vazduh","Libelium","0004A30B0021DF70",44.979,16.7091,"","","Prijedor","",14758435,"2022-10-09T12:35:44",3,"NO ERROR",17.59,92.4,1009.81,1.35,1.87,2.05],
    [146,363171,"Vazduh","Libelium","0004A30B0021DF70",44.979,16.7091,"","","Prijedor","",14759041,"2022-10-09T13:36:26",3,"NO ERROR",18.74,85.1,1009.2,0.67,1.08,1.87],
    [147,363171,"Vazduh","Libelium","0004A30B0021DF70",44.979,16.7091,"","","Prijedor","",14759672,"2022-10-09T14:37:08",3,"NO ERROR",19.29,80.6,1008.58,0.73,1.09,1.33],
    [148,363171,"Vazduh","Libelium","0004A30B0021DF70",44.979,16.7091,"","","Prijedor","",14760251,"2022-10-09T15:37:50",3,"NO ERROR",18.7,80.6,1008.43,0.63,0.74,0.76],
    [149,363171,"Vazduh","Libelium","0004A30B0021DF70",44.979,16.7091,"","","Prijedor","",14760872,"2022-10-09T16:38:32",3,"NO ERROR",18.26,78.7,1008.25,0.62,0.69,0.69],
    [150,363171,"Vazduh","Libelium","0004A30B0021DF70",44.979,16.7091,"","","Prijedor","",14761459,"2022-10-09T17:39:14",3,"NO ERROR",17.84,80.3,1007.84,0.75,0.97,15.82],
    [151,363171,"Vazduh","Libelium","0004A30B0021DF70",44.979,16.7091,"","","Prijedor","",14762839,"2022-10-09T18:39:56",3,"NO ERROR",16.87,86.5,1008.23,1.98,2.5,2.67],
    [152,363171,"Vazduh","Libelium","0004A30B0021DF70",44.979,16.7091,"","","Prijedor","",14765781,"2022-10-09T19:40:38",3,"NO ERROR",16.03,92.2,1008.44,1.21,1.39,1.4],
    [153,363171,"Vazduh","Libelium","0004A30B0021DF70",44.979,16.7091,"","","Prijedor","",14767608,"2022-10-09T20:41:20",3,"NO ERROR",15.13,100,1008.46,2.62,2.78,2.78],
    [154,363171,"Vazduh","Libelium","0004A30B0021DF70",44.979,16.7091,"","","Prijedor","",14769063,"2022-10-09T21:42:02",3,"NO ERROR",13.76,100,1008.73,1.24,1.45,1.47],
    [155,363171,"Vazduh","Libelium","0004A30B0021DF70",44.979,16.7091,"","","Prijedor","",14770490,"2022-10-09T22:42:45",3,"NO ERROR",12.99,100,1008.53,2.59,2.96,2.99],
    [156,363171,"Vazduh","Libelium","0004A30B0021DF70",44.979,16.7091,"","","Prijedor","",14771856,"2022-10-09T23:43:27",3,"NO ERROR",12.17,100,1008.53,2.86,3.35,3.51],
    [157,363171,"Vazduh","Libelium","0004A30B0021DF70",44.979,16.7091,"","","Prijedor","",14773400,"2022-10-10T00:44:09",3,"NO ERROR",11.13,100,1008.45,3.96,4.22,4.23],
    [158,363171,"Vazduh","Libelium","0004A30B0021DF70",44.979,16.7091,"","","Prijedor","",14774675,"2022-10-10T01:44:51",3,"NO ERROR",11.19,100,1008.39,2.99,3.5,4.13],
    [159,363171,"Vazduh","Libelium","0004A30B0021DF70",44.979,16.7091,"","","Prijedor","",14775981,"2022-10-10T02:45:33",3,"NO ERROR",10.62,100,1008.17,1.8,2.13,2.3],
    [160,363171,"Vazduh","Libelium","0004A30B0021DF70",44.979,16.7091,"","","Prijedor","",14777239,"2022-10-10T03:46:15",3,"NO ERROR",10.2,100,1007.9,1.61,2.01,2.17],
    [161,363171,"Vazduh","Libelium","0004A30B0021DF70",44.979,16.7091,"","","Prijedor","",14778547,"2022-10-10T04:46:58",3,"NO ERROR",10.03,100,1007.89,4.21,4.55,4.57],
    [162,363171,"Vazduh","Libelium","0004A30B0021DF70",44.979,16.7091,"","","Prijedor","",14779847,"2022-10-10T05:47:46",3,"NO ERROR",9.86,100,1007.8,2.26,2.45,2.48],
    [163,363171,"Vazduh","Libelium","0004A30B0021DF70",44.979,16.7091,"","","Prijedor","",14780928,"2022-10-10T06:48:28",3,"NO ERROR",9.82,100,1007.69,8.45,9.8,10.68],
    [164,363171,"Vazduh","Libelium","0004A30B0021DF70",44.979,16.7091,"","","Prijedor","",14781537,"2022-10-10T07:49:10",3,"NO ERROR",10.84,100,1008.08,1.71,1.89,1.9],
    [165,363171,"Vazduh","Libelium","0004A30B0021DF70",44.979,16.7091,"","","Prijedor","",14782126,"2022-10-10T08:49:52",3,"NO ERROR",12.19,100,1008.3,1.44,1.64,1.65],
    [166,363171,"Vazduh","Libelium","0004A30B0021DF70",44.979,16.7091,"","","Prijedor","",14782745,"2022-10-10T09:50:34",3,"NO ERROR",13.53,100,1008.48,0.72,1.03,1.07],
    [167,363171,"Vazduh","Libelium","0004A30B0021DF70",44.979,16.7091,"","","Prijedor","",14783335,"2022-10-10T10:51:16",3,"NO ERROR",14.93,100,1008.2,0.89,1.13,1.15],
    [168,363171,"Vazduh","Libelium","0004A30B0021DF70",44.979,16.7091,"","","Prijedor","",14783951,"2022-10-10T11:51:59",3,"NO ERROR",17.35,92.1,1008.17,1.61,2.09,2.58],
    [169,363171,"Vazduh","Libelium","0004A30B0021DF70",44.979,16.7091,"","","Prijedor","",14784614,"2022-10-10T12:52:41",3,"NO ERROR",17.83,85.5,1007.73,1.79,2.18,2.21],
    [170,363171,"Vazduh","Libelium","0004A30B0021DF70",44.979,16.7091,"","","Prijedor","",14785233,"2022-10-10T13:53:23",3,"NO ERROR",19.5,78.9,1007.15,2.13,2.62,2.64],
    [171,363171,"Vazduh","Libelium","0004A30B0021DF70",44.979,16.7091,"","","Prijedor","",14785811,"2022-10-10T14:54:05",3,"NO ERROR",19.05,81.6,1006.68,2,2.44,2.47],
    [172,363171,"Vazduh","Libelium","0004A30B0021DF70",44.979,16.7091,"","","Prijedor","",14786437,"2022-10-10T15:54:47",3,"NO ERROR",19.15,81.8,1006.59,2,2.69,2.89],
    [173,363171,"Vazduh","Libelium","0004A30B0021DF70",44.979,16.7091,"","","Prijedor","",14787023,"2022-10-10T16:55:29",3,"NO ERROR",19.05,83.1,1006.35,2.22,2.73,2.83],
    [174,363171,"Vazduh","Libelium","0004A30B0021DF70",44.979,16.7091,"","","Prijedor","",14787645,"2022-10-10T17:56:11",3,"NO ERROR",17.34,92.3,1006.15,2.99,3.71,4.59],
    [175,363171,"Vazduh","Libelium","0004A30B0021DF70",44.979,16.7091,"","","Prijedor","",14790004,"2022-10-10T18:56:53",3,"NO ERROR",15.72,100,1006.41,8.21,9.91,10.31],
    [176,363171,"Vazduh","Libelium","0004A30B0021DF70",44.979,16.7091,"","","Prijedor","",14792452,"2022-10-10T19:57:35",3,"NO ERROR",14.07,100,1006.69,6.03,7.3,7.32],
    [177,363171,"Vazduh","Libelium","0004A30B0021DF70",44.979,16.7091,"","","Prijedor","",14794280,"2022-10-10T20:58:17",3,"NO ERROR",12.99,100,1006.76,9.5,10.99,11.02],
    [178,363171,"Vazduh","Libelium","0004A30B0021DF70",44.979,16.7091,"","","Prijedor","",14795899,"2022-10-10T21:58:59",3,"NO ERROR",12.46,100,1006.73,12.22,14.71,14.87],
    [179,363171,"Vazduh","Libelium","0004A30B0021DF70",44.979,16.7091,"","","Prijedor","",14797302,"2022-10-10T22:59:41",3,"NO ERROR",12.33,100,1006.78,11.94,14.45,14.6],
    [180,363171,"Vazduh","Libelium","0004A30B0021DF70",44.979,16.7091,"","","Prijedor","",14798709,"2022-10-11T00:00:23",3,"NO ERROR",11.74,100,1006.78,7.38,8.94,9.4],
    [181,363171,"Vazduh","Libelium","0004A30B0021DF70",44.979,16.7091,"","","Prijedor","",14800258,"2022-10-11T01:01:06",3,"NO ERROR",11,100,1006.68,14.3,16.95,17.44],
    [182,363171,"Vazduh","Libelium","0004A30B0021DF70",44.979,16.7091,"","","Prijedor","",14801643,"2022-10-11T02:01:48",3,"NO ERROR",11.2,100,1006.61,13.09,15.72,15.8],
    [183,363171,"Vazduh","Libelium","0004A30B0021DF70",44.979,16.7091,"","","Prijedor","",14803040,"2022-10-11T03:02:30",3,"NO ERROR",11.87,100,1006.43,5.25,6.04,6.17],
    [184,363171,"Vazduh","Libelium","0004A30B0021DF70",44.979,16.7091,"","","Prijedor","",14804374,"2022-10-11T04:03:12",3,"NO ERROR",12.17,100,1006.27,3.25,4.04,4.99],
    [185,363171,"Vazduh","Libelium","0004A30B0021DF70",44.979,16.7091,"","","Prijedor","",14805731,"2022-10-11T05:03:54",3,"NO ERROR",12.21,100,1006.25,3.27,3.55,3.55],
    [186,363171,"Vazduh","Libelium","0004A30B0021DF70",44.979,16.7091,"","","Prijedor","",14807043,"2022-10-11T06:04:36",3,"NO ERROR",12.31,100,1006.42,4.08,4.68,4.7],
    [187,363171,"Vazduh","Libelium","0004A30B0021DF70",44.979,16.7091,"","","Prijedor","",14807976,"2022-10-11T07:05:18",3,"NO ERROR",12.28,100,1006.67,4.16,4.79,4.8],
    [188,363171,"Vazduh","Libelium","0004A30B0021DF70",44.979,16.7091,"","","Prijedor","",14808598,"2022-10-11T08:06:00",3,"NO ERROR",12.57,100,1007.15,2.22,2.5,2.51],
    [189,363171,"Vazduh","Libelium","0004A30B0021DF70",44.979,16.7091,"","","Prijedor","",14809258,"2022-10-11T09:06:42",3,"NO ERROR",13.53,100,1007.74,1.6,1.92,2.01],
    [190,363171,"Vazduh","Libelium","0004A30B0021DF70",44.979,16.7091,"","","Prijedor","",14809903,"2022-10-11T10:07:24",3,"NO ERROR",14.4,100,1008.3,1.19,1.47,2.69],
    [191,363171,"Vazduh","Libelium","0004A30B0021DF70",44.979,16.7091,"","","Prijedor","",14810492,"2022-10-11T11:08:06",3,"NO ERROR",15.92,100,1008.24,1.94,2.39,7.16],
    [192,363171,"Vazduh","Libelium","0004A30B0021DF70",44.979,16.7091,"","","Prijedor","",14811131,"2022-10-11T12:08:48",3,"NO ERROR",16.54,100,1008.3,1.76,2.05,2.14],
    [193,363171,"Vazduh","Libelium","0004A30B0021DF70",44.979,16.7091,"","","Prijedor","",14811781,"2022-10-11T13:09:31",3,"NO ERROR",17.39,95.3,1008.24,2.25,2.79,2.94],
    [194,363171,"Vazduh","Libelium","0004A30B0021DF70",44.979,16.7091,"","","Prijedor","",14812400,"2022-10-11T14:10:19",3,"NO ERROR",17.94,90.5,1007.84,3.01,3.55,3.56],
    [195,363171,"Vazduh","Libelium","0004A30B0021DF70",44.979,16.7091,"","","Prijedor","",14813015,"2022-10-11T15:11:01",3,"NO ERROR",18.77,85.1,1007.63,2,2.46,5.45],
    [196,363171,"Vazduh","Libelium","0004A30B0021DF70",44.979,16.7091,"","","Prijedor","",14813650,"2022-10-11T16:11:43",3,"NO ERROR",18.09,86.2,1007.63,2.25,2.55,2.57],
    [197,363171,"Vazduh","Libelium","0004A30B0021DF70",44.979,16.7091,"","","Prijedor","",14814296,"2022-10-11T17:12:25",3,"NO ERROR",17.63,89.5,1007.65,3.06,3.7,3.82],
    [198,363171,"Vazduh","Libelium","0004A30B0021DF70",44.979,16.7091,"","","Prijedor","",14814851,"2022-10-11T18:13:07",3,"NO ERROR",17.05,94.6,1007.92,3.07,3.64,3.68],
    [199,363171,"Vazduh","Libelium","0004A30B0021DF70",44.979,16.7091,"","","Prijedor","",14817756,"2022-10-11T19:13:55",3,"NO ERROR",16.6,99.9,1008.28,4.73,5.59,6.95],
    [200,363171,"Vazduh","Libelium","0004A30B0021DF70",44.979,16.7091,"","","Prijedor","",14819948,"2022-10-11T20:14:43",3,"NO ERROR",16.1,100,1008.32,9.94,12.01,12.57],
    [201,363171,"Vazduh","Libelium","0004A30B0021DF70",44.979,16.7091,"","","Prijedor","",14821558,"2022-10-11T21:15:25",3,"NO ERROR",15.72,100,1008.15,12.33,14.73,15.74],
    [202,363171,"Vazduh","Libelium","0004A30B0021DF70",44.979,16.7091,"","","Prijedor","",14822968,"2022-10-11T22:16:07",3,"NO ERROR",15.26,100,1008.45,10.26,12.69,12.9],
    [203,363171,"Vazduh","Libelium","0004A30B0021DF70",44.979,16.7091,"","","Prijedor","",14824319,"2022-10-11T23:16:49",3,"NO ERROR",15.11,100,1008.59,8.3,9.86,11.29],
    [204,363171,"Vazduh","Libelium","0004A30B0021DF70",44.979,16.7091,"","","Prijedor","",14825867,"2022-10-12T00:17:31",3,"NO ERROR",14.75,100,1008.48,10.2,12.06,12.21],
    [205,363171,"Vazduh","Libelium","0004A30B0021DF70",44.979,16.7091,"","","Prijedor","",14827212,"2022-10-12T01:18:14",3,"NO ERROR",14.53,100,1008.73,9.84,11.6,11.77],
    [206,363171,"Vazduh","Libelium","0004A30B0021DF70",44.979,16.7091,"","","Prijedor","",14828584,"2022-10-12T02:18:56",3,"NO ERROR",14.19,100,1008.69,13.1,15.48,19.52],
    [207,363171,"Vazduh","Libelium","0004A30B0021DF70",44.979,16.7091,"","","Prijedor","",14829806,"2022-10-12T03:19:38",3,"NO ERROR",13.91,100,1008.36,14.39,16.93,17.25],
    [208,363171,"Vazduh","Libelium","0004A30B0021DF70",44.979,16.7091,"","","Prijedor","",14831164,"2022-10-12T04:20:26",3,"NO ERROR",13.47,100,1008.4,19.87,24.24,24.44],
    [209,363171,"Vazduh","Libelium","0004A30B0021DF70",44.979,16.7091,"","","Prijedor","",14832459,"2022-10-12T05:21:08",3,"NO ERROR",13.4,100,1008.44,22.54,27.27,27.59],
    [210,363171,"Vazduh","Libelium","0004A30B0021DF70",44.979,16.7091,"","","Prijedor","",14833783,"2022-10-12T06:21:50",3,"NO ERROR",13.23,100,1008.64,35.71,45.3,68.24],
    [211,363171,"Vazduh","Libelium","0004A30B0021DF70",44.979,16.7091,"","","Prijedor","",14834518,"2022-10-12T07:22:32",3,"NO ERROR",13.24,100,1008.78,94.96,141.81,447.49],
    [212,363171,"Vazduh","Libelium","0004A30B0021DF70",44.979,16.7091,"","","Prijedor","",14835120,"2022-10-12T08:23:14",3,"NO ERROR",13.94,100,1008.87,12.66,14.97,16.46],
    [213,363171,"Vazduh","Libelium","0004A30B0021DF70",44.979,16.7091,"","","Prijedor","",14835662,"2022-10-12T09:23:56",3,"NO ERROR",15.27,100,1009.08,9.78,11.33,11.46],
    [214,363171,"Vazduh","Libelium","0004A30B0021DF70",44.979,16.7091,"","","Prijedor","",14836220,"2022-10-12T10:24:38",3,"NO ERROR",15.84,100,1009.2,6.83,7.81,7.83],
    [215,363171,"Vazduh","Libelium","0004A30B0021DF70",44.979,16.7091,"","","Prijedor","",14836787,"2022-10-12T11:25:20",3,"NO ERROR",18.62,95.1,1009.06,3.43,3.83,3.83],
    [216,363171,"Vazduh","Libelium","0004A30B0021DF70",44.979,16.7091,"","","Prijedor","",14837428,"2022-10-12T12:26:03",3,"NO ERROR",20.57,78.9,1008.74,2.06,2.36,2.36],
    [217,363171,"Vazduh","Libelium","0004A30B0021DF70",44.979,16.7091,"","","Prijedor","",14837998,"2022-10-12T13:26:45",3,"NO ERROR",20.85,76.5,1008.23,1.39,1.69,1.7],
    [218,363171,"Vazduh","Libelium","0004A30B0021DF70",44.979,16.7091,"","","Prijedor","",14838617,"2022-10-12T14:27:27",3,"NO ERROR",20.75,77.6,1007.91,2.13,2.53,2.64],
    [219,363171,"Vazduh","Libelium","0004A30B0021DF70",44.979,16.7091,"","","Prijedor","",14839175,"2022-10-12T15:28:09",3,"NO ERROR",19.81,82.6,1007.97,1.69,2.05,2.07],
    [220,363171,"Vazduh","Libelium","0004A30B0021DF70",44.979,16.7091,"","","Prijedor","",14839772,"2022-10-12T16:28:51",3,"NO ERROR",19.51,86,1007.75,2.65,3.26,3.76],
    [221,363171,"Vazduh","Libelium","0004A30B0021DF70",44.979,16.7091,"","","Prijedor","",14840340,"2022-10-12T17:29:33",3,"NO ERROR",18.29,92.4,1007.87,1.71,2.01,2.03],
    [222,363171,"Vazduh","Libelium","0004A30B0021DF70",44.979,16.7091,"","","Prijedor","",14841368,"2022-10-12T18:30:15",3,"NO ERROR",17.11,99.3,1007.58,2.56,3.33,9.87],
    [223,363171,"Vazduh","Libelium","0004A30B0021DF70",44.979,16.7091,"","","Prijedor","",14844504,"2022-10-12T19:30:57",3,"NO ERROR",16.36,100,1007.92,3.86,4.66,4.67],
    [224,363171,"Vazduh","Libelium","0004A30B0021DF70",44.979,16.7091,"","","Prijedor","",14846331,"2022-10-12T20:31:39",3,"NO ERROR",14.92,100,1008.02,5.08,5.96,6.58],
    [225,363171,"Vazduh","Libelium","0004A30B0021DF70",44.979,16.7091,"","","Prijedor","",14847783,"2022-10-12T21:32:27",3,"NO ERROR",14.41,100,1008.37,5.88,6.93,6.98],
    [226,363171,"Vazduh","Libelium","0004A30B0021DF70",44.979,16.7091,"","","Prijedor","",14849136,"2022-10-12T22:33:15",3,"NO ERROR",13.29,100,1008.43,14.22,17.07,17.47],
    [227,363171,"Vazduh","Libelium","0004A30B0021DF70",44.979,16.7091,"","","Prijedor","",14850411,"2022-10-12T23:33:57",3,"NO ERROR",12.74,100,1008.58,15.99,19.31,19.75],
    [228,363171,"Vazduh","Libelium","0004A30B0021DF70",44.979,16.7091,"","","Prijedor","",14851924,"2022-10-13T00:34:39",3,"NO ERROR",12.28,100,1008.45,13.86,16.9,17.42],
    [229,363171,"Vazduh","Libelium","0004A30B0021DF70",44.979,16.7091,"","","Prijedor","",14853175,"2022-10-13T01:35:22",3,"NO ERROR",12.35,100,1008.51,11.61,14.08,14.26],
    [230,363171,"Vazduh","Libelium","0004A30B0021DF70",44.979,16.7091,"","","Prijedor","",14854430,"2022-10-13T02:36:04",3,"NO ERROR",12.4,100,1008.71,16.98,21.47,22.86],
    [231,363171,"Vazduh","Libelium","0004A30B0021DF70",44.979,16.7091,"","","Prijedor","",14855612,"2022-10-13T03:36:46",3,"NO ERROR",12.36,100,1008.3,10.74,13.49,13.8],
    [232,363171,"Vazduh","Libelium","0004A30B0021DF70",44.979,16.7091,"","","Prijedor","",14856848,"2022-10-13T04:37:28",3,"NO ERROR",12.32,100,1008.2,16.05,19.85,22.24],
    [233,363171,"Vazduh","Libelium","0004A30B0021DF70",44.979,16.7091,"","","Prijedor","",14858106,"2022-10-13T05:38:10",3,"NO ERROR",12.65,100,1008.04,68.49,99.24,242.99],
    [234,363171,"Vazduh","Libelium","0004A30B0021DF70",44.979,16.7091,"","","Prijedor","",14859287,"2022-10-13T06:38:52",3,"NO ERROR",12.71,100,1007.97,52.67,73.14,192.01],
    [235,363171,"Vazduh","Libelium","0004A30B0021DF70",44.979,16.7091,"","","Prijedor","",14859859,"2022-10-13T07:39:34",3,"NO ERROR",13.04,100,1008.11,67.7,98.75,401.77],
    [236,363171,"Vazduh","Libelium","0004A30B0021DF70",44.979,16.7091,"","","Prijedor","",14860439,"2022-10-13T08:40:16",3,"NO ERROR",13.35,100,1008.42,24.79,31.25,65.92],
    [237,363171,"Vazduh","Libelium","0004A30B0021DF70",44.979,16.7091,"","","Prijedor","",14860997,"2022-10-13T09:40:58",3,"NO ERROR",14.25,100,1008.24,10.18,12.06,12.09],
    [238,363171,"Vazduh","Libelium","0004A30B0021DF70",44.979,16.7091,"","","Prijedor","",14861571,"2022-10-13T10:41:40",3,"NO ERROR",15.28,100,1008.11,8.2,10.02,10.18],
    [239,363171,"Vazduh","Libelium","0004A30B0021DF70",44.979,16.7091,"","","Prijedor","",14862141,"2022-10-13T11:42:22",3,"NO ERROR",16.03,100,1008.04,11.01,13.41,13.46],
    [240,363171,"Vazduh","Libelium","0004A30B0021DF70",44.979,16.7091,"","","Prijedor","",14862730,"2022-10-13T12:43:04",3,"NO ERROR",17.77,100,1007.32,9.04,10.89,11.11],
    [241,363171,"Vazduh","Libelium","0004A30B0021DF70",44.979,16.7091,"","","Prijedor","",14863304,"2022-10-13T13:43:47",3,"NO ERROR",20.08,86.1,1006.43,6.14,7.46,7.66],
    [242,363171,"Vazduh","Libelium","0004A30B0021DF70",44.979,16.7091,"","","Prijedor","",14863892,"2022-10-13T14:44:29",3,"NO ERROR",21.51,76.7,1005.71,4.24,4.9,4.99],
    [243,363171,"Vazduh","Libelium","0004A30B0021DF70",44.979,16.7091,"","","Prijedor","",14864465,"2022-10-13T15:45:11",3,"NO ERROR",19.24,88.3,1005.37,3,3.7,3.74],
    [244,363171,"Vazduh","Libelium","0004A30B0021DF70",44.979,16.7091,"","","Prijedor","",14865051,"2022-10-13T16:45:53",3,"NO ERROR",18.56,94.2,1005.22,3.25,3.91,3.96],
    [245,363171,"Vazduh","Libelium","0004A30B0021DF70",44.979,16.7091,"","","Prijedor","",14865618,"2022-10-13T17:46:35",3,"NO ERROR",17.86,97.3,1004.97,5.24,6.02,6.03],
    [246,363171,"Vazduh","Libelium","0004A30B0021DF70",44.979,16.7091,"","","Prijedor","",14867509,"2022-10-13T18:47:17",3,"NO ERROR",15.95,100,1004.86,8.89,10.55,10.7],
    [247,363171,"Vazduh","Libelium","0004A30B0021DF70",44.979,16.7091,"","","Prijedor","",14869787,"2022-10-13T19:47:59",3,"NO ERROR",15.92,100,1005.29,8.61,10.06,10.12],
    [248,363171,"Vazduh","Libelium","0004A30B0021DF70",44.979,16.7091,"","","Prijedor","",14871390,"2022-10-13T20:48:41",3,"NO ERROR",15.75,100,1005.06,8,9.32,9.54],
    [249,363171,"Vazduh","Libelium","0004A30B0021DF70",44.979,16.7091,"","","Prijedor","",14872725,"2022-10-13T21:49:23",3,"NO ERROR",15.46,100,1005.09,10.55,12.42,12.58],
    [250,363171,"Vazduh","Libelium","0004A30B0021DF70",44.979,16.7091,"","","Prijedor","",14873997,"2022-10-13T22:50:05",3,"NO ERROR",14.39,100,1005.06,16.93,20.37,20.44],
    [251,363171,"Vazduh","Libelium","0004A30B0021DF70",44.979,16.7091,"","","Prijedor","",14875225,"2022-10-13T23:50:47",3,"NO ERROR",14.28,100,1004.78,13.79,16.71,16.99],
    [252,363171,"Vazduh","Libelium","0004A30B0021DF70",44.979,16.7091,"","","Prijedor","",14876704,"2022-10-14T00:51:29",3,"NO ERROR",14.05,100,1004.49,16.88,19.96,20.14],
    [253,363171,"Vazduh","Libelium","0004A30B0021DF70",44.979,16.7091,"","","Prijedor","",14877931,"2022-10-14T01:52:12",3,"NO ERROR",13.79,100,1004.27,21.63,25.65,25.84],
    [254,363171,"Vazduh","Libelium","0004A30B0021DF70",44.979,16.7091,"","","Prijedor","",14879210,"2022-10-14T02:52:54",3,"NO ERROR",12.94,100,1003.91,34.35,42.18,42.47],
    [255,363171,"Vazduh","Libelium","0004A30B0021DF70",44.979,16.7091,"","","Prijedor","",14880451,"2022-10-14T03:53:36",3,"NO ERROR",12.77,100,1003.69,26.84,31.6,31.66],
    [256,363171,"Vazduh","Libelium","0004A30B0021DF70",44.979,16.7091,"","","Prijedor","",14881622,"2022-10-14T04:54:18",3,"NO ERROR",12.39,100,1003.32,40.13,47.6,47.96],
    [257,363171,"Vazduh","Libelium","0004A30B0021DF70",44.979,16.7091,"","","Prijedor","",14882825,"2022-10-14T05:55:00",3,"NO ERROR",12.8,100,1003.18,41.41,50.05,50.19],
    [258,363171,"Vazduh","Libelium","0004A30B0021DF70",44.979,16.7091,"","","Prijedor","",14883910,"2022-10-14T06:55:42",3,"NO ERROR",12.31,100,1003.1,63.38,80.07,80.59],
    [259,363171,"Vazduh","Libelium","0004A30B0021DF70",44.979,16.7091,"","","Prijedor","",14884713,"2022-10-14T07:56:24",3,"NO ERROR",13.04,100,1003.19,37.31,45.76,46.04],
    [260,363171,"Vazduh","Libelium","0004A30B0021DF70",44.979,16.7091,"","","Prijedor","",14885983,"2022-10-14T08:57:06",3,"NO ERROR",14.16,100,1003.61,10.29,12.43,12.81],
    [261,363171,"Vazduh","Libelium","0004A30B0021DF70",44.979,16.7091,"","","Prijedor","",14887318,"2022-10-14T09:57:48",3,"NO ERROR",14.91,100,1003.55,7.1,8.21,8.23],
    [262,363171,"Vazduh","Libelium","0004A30B0021DF70",44.979,16.7091,"","","Prijedor","",14888631,"2022-10-14T10:58:30",3,"NO ERROR",16.05,100,1003.67,7.24,8.55,8.56],
    [263,363171,"Vazduh","Libelium","0004A30B0021DF70",44.979,16.7091,"","","Prijedor","",14889941,"2022-10-14T11:59:12",3,"NO ERROR",18.47,99.6,1003.44,5.75,6.85,8.28],
    [264,363171,"Vazduh","Libelium","0004A30B0021DF70",44.979,16.7091,"","","Prijedor","",14891076,"2022-10-14T12:59:55",3,"NO ERROR",19.33,92.2,1003.05,4.15,5.06,5.36],
    [265,363171,"Vazduh","Libelium","0004A30B0021DF70",44.979,16.7091,"","","Prijedor","",14892147,"2022-10-14T14:00:37",3,"NO ERROR",20.17,80.4,1002.3,1.76,2.18,2.6],
    [266,363171,"Vazduh","Libelium","0004A30B0021DF70",44.979,16.7091,"","","Prijedor","",14893147,"2022-10-14T15:01:25",3,"NO ERROR",23.54,62,1001.68,1.62,2.16,2.32],
    [267,363171,"Vazduh","Libelium","0004A30B0021DF70",44.979,16.7091,"","","Prijedor","",14894089,"2022-10-14T16:02:07",3,"NO ERROR",23.74,59.4,1001.34,0.97,1.23,1.56],
    [268,363171,"Vazduh","Libelium","0004A30B0021DF70",44.979,16.7091,"","","Prijedor","",14894993,"2022-10-14T17:02:49",3,"NO ERROR",20.4,69.5,1001.17,1.65,2.07,2.18],
    [269,363171,"Vazduh","Libelium","0004A30B0021DF70",44.979,16.7091,"","","Prijedor","",14895843,"2022-10-14T18:03:31",3,"NO ERROR",18.24,79.6,1001.48,2.86,3.89,4.48],
    [270,363171,"Vazduh","Libelium","0004A30B0021DF70",44.979,16.7091,"","","Prijedor","",14898834,"2022-10-14T19:04:13",3,"NO ERROR",16.28,90.4,1002,3.1,4.09,4.69],
    [271,363171,"Vazduh","Libelium","0004A30B0021DF70",44.979,16.7091,"","","Prijedor","",14901193,"2022-10-14T20:04:55",3,"NO ERROR",14.52,100,1002.42,3.42,4.15,4.56],
    [272,363171,"Vazduh","Libelium","0004A30B0021DF70",44.979,16.7091,"","","Prijedor","",14902883,"2022-10-14T21:05:37",3,"NO ERROR",13.2,100,1002.87,10.73,13.15,13.86],
    [273,363171,"Vazduh","Libelium","0004A30B0021DF70",44.979,16.7091,"","","Prijedor","",14904495,"2022-10-14T22:06:19",3,"NO ERROR",11.98,100,1002.95,7.54,9.25,9.61],
    [274,363171,"Vazduh","Libelium","0004A30B0021DF70",44.979,16.7091,"","","Prijedor","",14905945,"2022-10-14T23:07:01",3,"NO ERROR",11.14,100,1002.91,12.37,14.69,14.99],
    [275,363171,"Vazduh","Libelium","0004A30B0021DF70",44.979,16.7091,"","","Prijedor","",14907602,"2022-10-15T00:07:43",3,"NO ERROR",9.94,100,1002.69,75.79,106.75,426.71],
    [276,363171,"Vazduh","Libelium","0004A30B0021DF70",44.979,16.7091,"","","Prijedor","",14909041,"2022-10-15T01:08:26",3,"NO ERROR",9.79,100,1002.62,15.01,18.93,41.63],
    [277,363171,"Vazduh","Libelium","0004A30B0021DF70",44.979,16.7091,"","","Prijedor","",14910379,"2022-10-15T02:09:08",3,"NO ERROR",9.42,100,1002.72,21.39,30.47,452.37],
    [278,363171,"Vazduh","Libelium","0004A30B0021DF70",44.979,16.7091,"","","Prijedor","",14911709,"2022-10-15T03:09:50",3,"NO ERROR",9.29,100,1002.68,50.36,71.61,391.11],
    [279,363171,"Vazduh","Libelium","0004A30B0021DF70",44.979,16.7091,"","","Prijedor","",14913006,"2022-10-15T04:10:32",3,"NO ERROR",9.41,100,1002.26,60.47,80.08,202.57],
    [280,363171,"Vazduh","Libelium","0004A30B0021DF70",44.979,16.7091,"","","Prijedor","",14914335,"2022-10-15T05:11:14",3,"NO ERROR",9.05,100,1002.4,18.22,24.88,65.3],
    [281,363171,"Vazduh","Libelium","0004A30B0021DF70",44.979,16.7091,"","","Prijedor","",14915638,"2022-10-15T06:11:56",3,"NO ERROR",9.18,100,1002.24,48.12,71.92,308.63],
    [282,363171,"Vazduh","Libelium","0004A30B0021DF70",44.979,16.7091,"","","Prijedor","",14916667,"2022-10-15T07:12:50",3,"NO ERROR",9.11,100,1002.34,41.28,57.89,200.94],
    [283,363171,"Vazduh","Libelium","0004A30B0021DF70",44.979,16.7091,"","","Prijedor","",14917308,"2022-10-15T08:13:32",3,"NO ERROR",9.25,100,1002.67,26.87,38.78,228.8],
    [284,363171,"Vazduh","Libelium","0004A30B0021DF70",44.979,16.7091,"","","Prijedor","",14917949,"2022-10-15T09:14:14",3,"NO ERROR",10.2,100,1002.89,8.63,11.05,29.43],
    [285,363171,"Vazduh","Libelium","0004A30B0021DF70",44.979,16.7091,"","","Prijedor","",14918571,"2022-10-15T10:14:56",3,"NO ERROR",11.1,100,1002.92,5.88,6.95,6.96],
    [286,363171,"Vazduh","Libelium","0004A30B0021DF70",44.979,16.7091,"","","Prijedor","",14919196,"2022-10-15T11:15:39",3,"NO ERROR",12.45,100,1003.2,6.62,7.98,8.04],
    [287,363171,"Vazduh","Libelium","0004A30B0021DF70",44.979,16.7091,"","","Prijedor","",14919863,"2022-10-15T12:16:21",3,"NO ERROR",14.64,100,1003.24,5.98,7.11,7.25],
    [288,363171,"Vazduh","Libelium","0004A30B0021DF70",44.979,16.7091,"","","Prijedor","",14920516,"2022-10-15T13:17:03",3,"NO ERROR",18.29,83.9,1002.25,3.74,4.56,4.69],
    [289,363171,"Vazduh","Libelium","0004A30B0021DF70",44.979,16.7091,"","","Prijedor","",14921157,"2022-10-15T14:17:45",3,"NO ERROR",20.43,70.8,1001.53,2.55,3.13,5.99],
    [290,363171,"Vazduh","Libelium","0004A30B0021DF70",44.979,16.7091,"","","Prijedor","",14921791,"2022-10-15T15:18:27",3,"NO ERROR",24.27,54.8,1001.16,0.88,1.08,1.43],
    [291,363171,"Vazduh","Libelium","0004A30B0021DF70",44.979,16.7091,"","","Prijedor","",14922442,"2022-10-15T16:19:09",3,"NO ERROR",23.43,54.9,1001.1,0.8,0.92,0.93],
    [292,363171,"Vazduh","Libelium","0004A30B0021DF70",44.979,16.7091,"","","Prijedor","",14923074,"2022-10-15T17:19:51",3,"NO ERROR",20.39,69.8,1001.15,1.9,2.24,2.27],
    [293,363171,"Vazduh","Libelium","0004A30B0021DF70",44.979,16.7091,"","","Prijedor","",14923878,"2022-10-15T18:20:33",3,"NO ERROR",18.74,83.9,1001.59,2.71,3.39,3.52],
    [294,363171,"Vazduh","Libelium","0004A30B0021DF70",44.979,16.7091,"","","Prijedor","",14927224,"2022-10-15T19:21:15",3,"NO ERROR",16.73,98.1,1002.41,4.63,5.79,6.04],
    [295,363171,"Vazduh","Libelium","0004A30B0021DF70",44.979,16.7091,"","","Prijedor","",14929490,"2022-10-15T20:21:57",3,"NO ERROR",15.77,100,1003.11,4.94,5.93,6.14],
    [296,363171,"Vazduh","Libelium","0004A30B0021DF70",44.979,16.7091,"","","Prijedor","",14931342,"2022-10-15T21:22:39",3,"NO ERROR",14.42,100,1003.52,16.97,20.6,21.58],
    [297,363171,"Vazduh","Libelium","0004A30B0021DF70",44.979,16.7091,"","","Prijedor","",14932894,"2022-10-15T22:23:21",3,"NO ERROR",13.32,100,1004.29,6.61,7.69,7.73],
    [298,363171,"Vazduh","Libelium","0004A30B0021DF70",44.979,16.7091,"","","Prijedor","",14934320,"2022-10-15T23:24:03",3,"NO ERROR",12.44,100,1005.03,10,11.87,11.94],
    [299,363171,"Vazduh","Libelium","0004A30B0021DF70",44.979,16.7091,"","","Prijedor","",14935899,"2022-10-16T00:24:46",3,"NO ERROR",11.44,100,1005.39,8.59,10.22,10.26],
    [300,363171,"Vazduh","Libelium","0004A30B0021DF70",44.979,16.7091,"","","Prijedor","",14937255,"2022-10-16T01:25:28",3,"NO ERROR",10.47,100,1005.75,49.72,59.22,59.52],
    [301,363171,"Vazduh","Libelium","0004A30B0021DF70",44.979,16.7091,"","","Prijedor","",14938514,"2022-10-16T02:26:10",3,"NO ERROR",10.27,100,1006,76.37,97.41,186.61],
    [302,363171,"Vazduh","Libelium","0004A30B0021DF70",44.979,16.7091,"","","Prijedor","",14939729,"2022-10-16T03:26:52",3,"NO ERROR",10.1,100,1006.26,27.93,34.84,109.6],
    [303,363171,"Vazduh","Libelium","0004A30B0021DF70",44.979,16.7091,"","","Prijedor","",14941026,"2022-10-16T04:27:34",3,"NO ERROR",9.66,100,1006.36,20.39,24.42,24.51],
    [304,363171,"Vazduh","Libelium","0004A30B0021DF70",44.979,16.7091,"","","Prijedor","",14942316,"2022-10-16T05:28:16",3,"NO ERROR",9.27,100,1006.73,14.08,16.87,17.18],
    [305,363171,"Vazduh","Libelium","0004A30B0021DF70",44.979,16.7091,"","","Prijedor","",14943576,"2022-10-16T06:28:58",3,"NO ERROR",9.28,100,1007.13,52.84,73.22,233.96],
    [306,363171,"Vazduh","Libelium","0004A30B0021DF70",44.979,16.7091,"","","Prijedor","",14944351,"2022-10-16T07:29:40",3,"NO ERROR",9.01,100,1007.65,29.52,50.43,416.09],
    [307,363171,"Vazduh","Libelium","0004A30B0021DF70",44.979,16.7091,"","","Prijedor","",14944988,"2022-10-16T08:30:22",3,"NO ERROR",9.73,100,1008.44,13.85,17.13,26.2],
    [308,363171,"Vazduh","Libelium","0004A30B0021DF70",44.979,16.7091,"","","Prijedor","",14945594,"2022-10-16T09:31:04",3,"NO ERROR",10.63,100,1009.02,4.31,5.98,56.17],
    [309,363171,"Vazduh","Libelium","0004A30B0021DF70",44.979,16.7091,"","","Prijedor","",14946213,"2022-10-16T10:31:46",3,"NO ERROR",17.11,86.1,1009.22,1.16,1.45,1.49],
    [310,363171,"Vazduh","Libelium","0004A30B0021DF70",44.979,16.7091,"","","Prijedor","",14946806,"2022-10-16T11:32:29",3,"NO ERROR",16.97,88.1,1009.16,1.54,1.79,1.8],
    [311,363171,"Vazduh","Libelium","0004A30B0021DF70",44.979,16.7091,"","","Prijedor","",14947422,"2022-10-16T12:33:11",3,"NO ERROR",19.81,75.8,1008.61,1.41,1.59,1.59],
    [312,363171,"Vazduh","Libelium","0004A30B0021DF70",44.979,16.7091,"","","Prijedor","",14948075,"2022-10-16T13:33:59",3,"NO ERROR",23.33,59.2,1008.28,1.5,2.37,5.19],
    [313,363171,"Vazduh","Libelium","0004A30B0021DF70",44.979,16.7091,"","","Prijedor","",14948700,"2022-10-16T14:34:47",3,"NO ERROR",24.61,52,1007.91,0.96,1.14,1.15],
    [314,363171,"Vazduh","Libelium","0004A30B0021DF70",44.979,16.7091,"","","Prijedor","",14949344,"2022-10-16T15:35:29",3,"NO ERROR",27.73,47.3,1008,1,1.28,1.61],
    [315,363171,"Vazduh","Libelium","0004A30B0021DF70",44.979,16.7091,"","","Prijedor","",14949989,"2022-10-16T16:36:11",3,"NO ERROR",23.2,56.7,1007.94,1.13,1.35,1.37],
    [316,363171,"Vazduh","Libelium","0004A30B0021DF70",44.979,16.7091,"","","Prijedor","",14950619,"2022-10-16T17:36:53",3,"NO ERROR",21.58,64.3,1008.32,2.26,2.52,2.52],
    [317,363171,"Vazduh","Libelium","0004A30B0021DF70",44.979,16.7091,"","","Prijedor","",14952515,"2022-10-16T18:37:35",3,"NO ERROR",18.81,76.7,1008.7,2.9,3.65,3.77],
    [318,363171,"Vazduh","Libelium","0004A30B0021DF70",44.979,16.7091,"","","Prijedor","",14955347,"2022-10-16T19:38:17",3,"NO ERROR",16.07,100,1009.56,4.7,5.87,6.06],
    [319,363171,"Vazduh","Libelium","0004A30B0021DF70",44.979,16.7091,"","","Prijedor","",14957255,"2022-10-16T20:38:59",3,"NO ERROR",14.46,100,1010.27,4.13,5.11,5.63],
    [320,363171,"Vazduh","Libelium","0004A30B0021DF70",44.979,16.7091,"","","Prijedor","",14958787,"2022-10-16T21:39:41",3,"NO ERROR",13.6,100,1010.92,5.45,6.48,6.64],
    [321,363171,"Vazduh","Libelium","0004A30B0021DF70",44.979,16.7091,"","","Prijedor","",14960210,"2022-10-16T22:40:23",3,"NO ERROR",12.31,100,1011.49,7.93,9.48,10.09],
    [322,363171,"Vazduh","Libelium","0004A30B0021DF70",44.979,16.7091,"","","Prijedor","",14961538,"2022-10-16T23:41:06",3,"NO ERROR",11.79,100,1012.14,11.48,13.25,13.29],
    [323,363171,"Vazduh","Libelium","0004A30B0021DF70",44.979,16.7091,"","","Prijedor","",14963070,"2022-10-17T00:41:48",3,"NO ERROR",11.1,100,1012.22,10.97,13.16,13.31],
    [324,363171,"Vazduh","Libelium","0004A30B0021DF70",44.979,16.7091,"","","Prijedor","",14964451,"2022-10-17T01:42:30",3,"NO ERROR",9.92,100,1012.59,17.69,20.96,21.02],
    [325,363171,"Vazduh","Libelium","0004A30B0021DF70",44.979,16.7091,"","","Prijedor","",14965822,"2022-10-17T02:43:12",3,"NO ERROR",9.27,100,1012.9,39.51,51.2,89.38],
    [326,363171,"Vazduh","Libelium","0004A30B0021DF70",44.979,16.7091,"","","Prijedor","",14967192,"2022-10-17T03:43:54",3,"NO ERROR",9.27,100,1012.98,66.98,88.3,124.41],
    [327,363171,"Vazduh","Libelium","0004A30B0021DF70",44.979,16.7091,"","","Prijedor","",14968486,"2022-10-17T04:44:36",3,"NO ERROR",9.49,100,1013.3,73.72,106.05,330.03],
    [328,363171,"Vazduh","Libelium","0004A30B0021DF70",44.979,16.7091,"","","Prijedor","",14969808,"2022-10-17T05:45:18",3,"NO ERROR",9.6,100,1013.57,55.06,74.52,202.62],
    [329,363171,"Vazduh","Libelium","0004A30B0021DF70",44.979,16.7091,"","","Prijedor","",14971084,"2022-10-17T06:46:00",3,"NO ERROR",9.72,100,1013.98,43.17,60.01,289.82],
    [330,363171,"Vazduh","Libelium","0004A30B0021DF70",44.979,16.7091,"","","Prijedor","",14971718,"2022-10-17T07:46:42",3,"NO ERROR",9.77,100,1014.49,45.85,76.07,641.11],
    [331,363171,"Vazduh","Libelium","0004A30B0021DF70",44.979,16.7091,"","","Prijedor","",14972319,"2022-10-17T08:47:24",3,"NO ERROR",10.23,100,1015.23,9.94,15.96,148.81],
    [332,363171,"Vazduh","Libelium","0004A30B0021DF70",44.979,16.7091,"","","Prijedor","",14972906,"2022-10-17T09:48:13",3,"NO ERROR",11.27,100,1015.59,5.59,8.97,42.38],
    [333,363171,"Vazduh","Libelium","0004A30B0021DF70",44.979,16.7091,"","","Prijedor","",14973507,"2022-10-17T10:48:55",3,"NO ERROR",15.13,98.8,1015.65,4.37,5.06,5.07],
    [334,363171,"Vazduh","Libelium","0004A30B0021DF70",44.979,16.7091,"","","Prijedor","",14974172,"2022-10-17T11:49:37",3,"NO ERROR",16.44,97,1015.52,1.81,2.11,2.11],
    [335,363171,"Vazduh","Libelium","0004A30B0021DF70",44.979,16.7091,"","","Prijedor","",14974846,"2022-10-17T12:50:19",3,"NO ERROR",19.27,80.5,1015.16,1.83,2.23,2.33],
    [336,363171,"Vazduh","Libelium","0004A30B0021DF70",44.979,16.7091,"","","Prijedor","",14975496,"2022-10-17T13:51:01",3,"NO ERROR",25.37,57.4,1014.44,1.4,1.5,1.5],
    [337,363171,"Vazduh","Libelium","0004A30B0021DF70",44.979,16.7091,"","","Prijedor","",14976162,"2022-10-17T14:51:43",3,"NO ERROR",26.61,56.7,1013.84,1.26,1.64,1.74],
    [338,363171,"Vazduh","Libelium","0004A30B0021DF70",44.979,16.7091,"","","Prijedor","",14976793,"2022-10-17T15:52:25",3,"NO ERROR",24.73,58.4,1013.56,1.77,2.24,2.46],
    [339,363171,"Vazduh","Libelium","0004A30B0021DF70",44.979,16.7091,"","","Prijedor","",14977429,"2022-10-17T16:53:07",3,"NO ERROR",22.48,63.3,1013.62,0.86,1.14,2.06],
    [340,363171,"Vazduh","Libelium","0004A30B0021DF70",44.979,16.7091,"","","Prijedor","",14978069,"2022-10-17T17:53:49",3,"NO ERROR",20.57,67,1013.71,2.21,3.19,3.5],
    [341,363171,"Vazduh","Libelium","0004A30B0021DF70",44.979,16.7091,"","","Prijedor","",14980709,"2022-10-17T18:54:31",3,"NO ERROR",17.83,87.3,1014.23,1.84,2.65,3.39],
    [342,363171,"Vazduh","Libelium","0004A30B0021DF70",44.979,16.7091,"","","Prijedor","",14983031,"2022-10-17T19:55:13",3,"NO ERROR",15.85,100,1014.63,3.61,4.75,6.44],
    [343,363171,"Vazduh","Libelium","0004A30B0021DF70",44.979,16.7091,"","","Prijedor","",14984862,"2022-10-17T20:55:55",3,"NO ERROR",13.88,100,1014.75,6.25,7.53,7.56],
    [344,363171,"Vazduh","Libelium","0004A30B0021DF70",44.979,16.7091,"","","Prijedor","",14986545,"2022-10-17T21:56:37",3,"NO ERROR",12.67,100,1014.81,4.79,5.8,6.25],
    [345,363171,"Vazduh","Libelium","0004A30B0021DF70",44.979,16.7091,"","","Prijedor","",14987994,"2022-10-17T22:57:20",3,"NO ERROR",11.69,100,1014.87,5.08,6.05,6.2],
    [346,363171,"Vazduh","Libelium","0004A30B0021DF70",44.979,16.7091,"","","Prijedor","",14989433,"2022-10-17T23:58:02",3,"NO ERROR",10.93,100,1014.74,9.2,11.29,11.71],
    [347,363171,"Vazduh","Libelium","0004A30B0021DF70",44.979,16.7091,"","","Prijedor","",14990924,"2022-10-18T00:58:44",3,"NO ERROR",9.53,100,1014.89,29.96,39.29,106.6],
    [348,363171,"Vazduh","Libelium","0004A30B0021DF70",44.979,16.7091,"","","Prijedor","",14992225,"2022-10-18T01:59:26",3,"NO ERROR",9.35,100,1014.53,27.5,36.23,141.63],
    [349,363171,"Vazduh","Libelium","0004A30B0021DF70",44.979,16.7091,"","","Prijedor","",14993555,"2022-10-18T03:00:08",3,"NO ERROR",8.95,100,1014.25,48.82,66.29,279.42],
    [350,363171,"Vazduh","Libelium","0004A30B0021DF70",44.979,16.7091,"","","Prijedor","",14994867,"2022-10-18T04:00:50",3,"NO ERROR",9.08,100,1013.85,35.26,50.95,279.85],
    [351,363171,"Vazduh","Libelium","0004A30B0021DF70",44.979,16.7091,"","","Prijedor","",14996163,"2022-10-18T05:01:32",3,"NO ERROR",9.02,100,1013.73,41.98,67.04,869.87],
    [352,363171,"Vazduh","Libelium","0004A30B0021DF70",44.979,16.7091,"","","Prijedor","",14997467,"2022-10-18T06:02:14",3,"NO ERROR",9.02,100,1014,41.59,58.92,217.72],
    [353,363171,"Vazduh","Libelium","0004A30B0021DF70",44.979,16.7091,"","","Prijedor","",14998629,"2022-10-18T07:02:56",3,"NO ERROR",8.69,100,1013.79,49.74,67.03,239.83],
    [354,363171,"Vazduh","Libelium","0004A30B0021DF70",44.979,16.7091,"","","Prijedor","",14999323,"2022-10-18T08:03:39",3,"NO ERROR",8.91,100,1013.91,45.84,64.16,216.45],
    [355,363171,"Vazduh","Libelium","0004A30B0021DF70",44.979,16.7091,"","","Prijedor","",14999949,"2022-10-18T09:04:21",3,"NO ERROR",9.44,100,1014.2,15.65,29.41,185.11],
    [356,363171,"Vazduh","Libelium","0004A30B0021DF70",44.979,16.7091,"","","Prijedor","",15000589,"2022-10-18T10:05:03",3,"NO ERROR",10.72,100,1013.84,4.1,4.6,4.6],
    [357,363171,"Vazduh","Libelium","0004A30B0021DF70",44.979,16.7091,"","","Prijedor","",15001230,"2022-10-18T11:05:45",3,"NO ERROR",12.62,100,1013.34,4.31,5.24,5.36],
    [358,363171,"Vazduh","Libelium","0004A30B0021DF70",44.979,16.7091,"","","Prijedor","",15001918,"2022-10-18T12:06:27",3,"NO ERROR",14.7,100,1012.71,2.01,2.34,2.35],
    [359,363171,"Vazduh","Libelium","0004A30B0021DF70",44.979,16.7091,"","","Prijedor","",15002614,"2022-10-18T13:07:15",3,"NO ERROR",18.45,86.1,1011.68,0.77,0.91,0.93],
    [360,363171,"Vazduh","Libelium","0004A30B0021DF70",44.979,16.7091,"","","Prijedor","",15003277,"2022-10-18T14:07:57",3,"NO ERROR",25.37,58.9,1010.39,0.97,1.14,1.15],
    [361,363171,"Vazduh","Libelium","0004A30B0021DF70",44.979,16.7091,"","","Prijedor","",15003911,"2022-10-18T15:08:39",3,"NO ERROR",26.96,55.1,1009.59,1.28,1.54,1.54],
    [362,363171,"Vazduh","Libelium","0004A30B0021DF70",44.979,16.7091,"","","Prijedor","",15004589,"2022-10-18T16:09:21",3,"NO ERROR",25.71,58.5,1009.26,1.27,1.79,2.3],
    [363,363171,"Vazduh","Libelium","0004A30B0021DF70",44.979,16.7091,"","","Prijedor","",15005278,"2022-10-18T17:10:09",3,"NO ERROR",20.76,70.2,1008.92,4.13,5.24,5.3],
    [364,363171,"Vazduh","Libelium","0004A30B0021DF70",44.979,16.7091,"","","Prijedor","",15005967,"2022-10-18T18:10:51",3,"NO ERROR",18.83,77.6,1008.64,1.12,1.26,1.26],
    [365,363171,"Vazduh","Libelium","0004A30B0021DF70",44.979,16.7091,"","","Prijedor","",15009380,"2022-10-18T19:11:33",3,"NO ERROR",16.58,91.9,1009.21,2.68,3.51,5.08],
    [366,363171,"Vazduh","Libelium","0004A30B0021DF70",44.979,16.7091,"","","Prijedor","",15011596,"2022-10-18T20:12:16",3,"NO ERROR",14.83,100,1009.19,4.83,6.14,6.7],
    [367,363171,"Vazduh","Libelium","0004A30B0021DF70",44.979,16.7091,"","","Prijedor","",15013329,"2022-10-18T21:12:58",3,"NO ERROR",13.15,100,1009.26,5.43,6.57,6.6],
    [368,363171,"Vazduh","Libelium","0004A30B0021DF70",44.979,16.7091,"","","Prijedor","",15014724,"2022-10-18T22:13:40",3,"NO ERROR",11.95,100,1009.37,4.27,5.39,6.1],
    [369,363171,"Vazduh","Libelium","0004A30B0021DF70",44.979,16.7091,"","","Prijedor","",15016102,"2022-10-18T23:14:22",3,"NO ERROR",11.35,100,1009.23,5,6.11,6.19],
    [370,363171,"Vazduh","Libelium","0004A30B0021DF70",44.979,16.7091,"","","Prijedor","",15017707,"2022-10-19T00:15:04",3,"NO ERROR",10.36,100,1009.07,58.33,79.28,249.29],
    [371,363171,"Vazduh","Libelium","0004A30B0021DF70",44.979,16.7091,"","","Prijedor","",15019085,"2022-10-19T01:15:46",3,"NO ERROR",9.68,100,1008.92,23.72,29.87,97.69],
    [372,363171,"Vazduh","Libelium","0004A30B0021DF70",44.979,16.7091,"","","Prijedor","",15020472,"2022-10-19T02:16:28",3,"NO ERROR",10.14,100,1009.12,22.63,34.51,225.68],
    [373,363171,"Vazduh","Libelium","0004A30B0021DF70",44.979,16.7091,"","","Prijedor","",15021765,"2022-10-19T03:17:10",3,"NO ERROR",10.13,100,1008.9,47.68,65.11,268.41],
    [374,363171,"Vazduh","Libelium","0004A30B0021DF70",44.979,16.7091,"","","Prijedor","",15023082,"2022-10-19T04:17:52",3,"NO ERROR",10.54,100,1008.92,143.23,206.75,412.67],
    [375,363171,"Vazduh","Libelium","0004A30B0021DF70",44.979,16.7091,"","","Prijedor","",15024428,"2022-10-19T05:18:34",3,"NO ERROR",10.19,100,1009.2,57.53,81.65,421.96],
    [376,363171,"Vazduh","Libelium","0004A30B0021DF70",44.979,16.7091,"","","Prijedor","",15025738,"2022-10-19T06:19:16",3,"NO ERROR",10.37,100,1009.28,51.78,68.76,156.34],
    [377,363171,"Vazduh","Libelium","0004A30B0021DF70",44.979,16.7091,"","","Prijedor","",15026691,"2022-10-19T07:19:59",3,"NO ERROR",10.34,100,1009.34,68.85,91.08,150.32],
    [378,363171,"Vazduh","Libelium","0004A30B0021DF70",44.979,16.7091,"","","Prijedor","",15027337,"2022-10-19T08:20:41",3,"NO ERROR",10.34,100,1009.78,53.32,74.21,206.13],
    [379,363171,"Vazduh","Libelium","0004A30B0021DF70",44.979,16.7091,"","","Prijedor","",15027960,"2022-10-19T09:21:23",3,"NO ERROR",10.85,100,1010.3,7.14,9.12,22.59],
    [380,363171,"Vazduh","Libelium","0004A30B0021DF70",44.979,16.7091,"","","Prijedor","",15028608,"2022-10-19T10:22:05",3,"NO ERROR",12.5,100,1010.24,1.52,1.73,1.73],
    [381,363171,"Vazduh","Libelium","0004A30B0021DF70",44.979,16.7091,"","","Prijedor","",15029228,"2022-10-19T11:22:47",3,"NO ERROR",15.14,100,1009.87,0.26,0.29,0.29],
    [382,363171,"Vazduh","Libelium","0004A30B0021DF70",44.979,16.7091,"","","Prijedor","",15029919,"2022-10-19T12:23:29",3,"NO ERROR",19.52,89.1,1009.44,0.81,1,1.01],
    [383,363171,"Vazduh","Libelium","0004A30B0021DF70",44.979,16.7091,"","","Prijedor","",15030598,"2022-10-19T13:24:11",3,"NO ERROR",21.81,74.7,1008.83,1.14,1.52,1.67],
    [384,363171,"Vazduh","Libelium","0004A30B0021DF70",44.979,16.7091,"","","Prijedor","",15031275,"2022-10-19T14:24:53",3,"NO ERROR",21.72,67.7,1008.18,0.17,0.21,0.22],
    [385,363171,"Vazduh","Libelium","0004A30B0021DF70",44.979,16.7091,"","","Prijedor","",15031936,"2022-10-19T15:25:35",3,"NO ERROR",24.94,55.7,1007.55,0.53,0.67,0.67],
    [386,363171,"Vazduh","Libelium","0004A30B0021DF70",44.979,16.7091,"","","Prijedor","",15032617,"2022-10-19T16:26:17",3,"NO ERROR",20.98,67.9,1007.42,0.24,0.28,0.28],
    [387,363171,"Vazduh","Libelium","0004A30B0021DF70",44.979,16.7091,"","","Prijedor","",15033279,"2022-10-19T17:27:05",3,"NO ERROR",19.68,73.3,1007.42,1.27,1.71,1.89],
    [388,363171,"Vazduh","Libelium","0004A30B0021DF70",44.979,16.7091,"","","Prijedor","",15034857,"2022-10-19T18:27:47",3,"NO ERROR",17.4,85,1007.72,1.25,1.59,1.71],
    [389,363171,"Vazduh","Libelium","0004A30B0021DF70",44.979,16.7091,"","","Prijedor","",15037591,"2022-10-19T19:28:29",3,"NO ERROR",15.52,98.2,1008.38,2.68,3.34,3.51],
    [390,363171,"Vazduh","Libelium","0004A30B0021DF70",44.979,16.7091,"","","Prijedor","",15039380,"2022-10-19T20:29:18",3,"NO ERROR",13.94,100,1008.58,2,2.72,2.97],
    [391,363171,"Vazduh","Libelium","0004A30B0021DF70",44.979,16.7091,"","","Prijedor","",15040986,"2022-10-19T21:30:00",3,"NO ERROR",12.38,100,1008.78,1.96,2.63,2.98],
    [392,363171,"Vazduh","Libelium","0004A30B0021DF70",44.979,16.7091,"","","Prijedor","",15042371,"2022-10-19T22:30:48",3,"NO ERROR",11.5,100,1009.04,2.83,3.53,3.55],
    [393,363171,"Vazduh","Libelium","0004A30B0021DF70",44.979,16.7091,"","","Prijedor","",15043681,"2022-10-19T23:31:30",3,"NO ERROR",10.87,100,1009.57,2.7,3.33,3.47],
    [394,363171,"Vazduh","Libelium","0004A30B0021DF70",44.979,16.7091,"","","Prijedor","",15045297,"2022-10-20T00:32:12",3,"NO ERROR",11.31,100,1009.62,1.3,1.59,1.59],
    [395,363171,"Vazduh","Libelium","0004A30B0021DF70",44.979,16.7091,"","","Prijedor","",15046656,"2022-10-20T01:32:54",3,"NO ERROR",11.26,100,1009.97,1.33,1.62,1.62],
    [396,363171,"Vazduh","Libelium","0004A30B0021DF70",44.979,16.7091,"","","Prijedor","",15047956,"2022-10-20T02:33:42",3,"NO ERROR",10.43,100,1010.36,2.1,2.65,2.84],
    [397,363171,"Vazduh","Libelium","0004A30B0021DF70",44.979,16.7091,"","","Prijedor","",15049255,"2022-10-20T03:34:24",3,"NO ERROR",10.17,100,1010.25,2.27,2.72,2.85],
    [398,363171,"Vazduh","Libelium","0004A30B0021DF70",44.979,16.7091,"","","Prijedor","",15050513,"2022-10-20T04:35:06",3,"NO ERROR",9.6,100,1010.33,3.03,3.83,4.36],
    [399,363171,"Vazduh","Libelium","0004A30B0021DF70",44.979,16.7091,"","","Prijedor","",15051792,"2022-10-20T05:35:48",3,"NO ERROR",8.89,100,1010.65,6.25,7.94,13.91],
    [400,363171,"Vazduh","Libelium","0004A30B0021DF70",44.979,16.7091,"","","Prijedor","",15053051,"2022-10-20T06:36:31",3,"NO ERROR",8.25,100,1010.79,19.63,25.17,46.94],
    [401,363171,"Vazduh","Libelium","0004A30B0021DF70",44.979,16.7091,"","","Prijedor","",15053798,"2022-10-20T07:37:13",3,"NO ERROR",8.45,100,1011.03,11.39,16.38,117.4],
    [402,363171,"Vazduh","Libelium","0004A30B0021DF70",44.979,16.7091,"","","Prijedor","",15054405,"2022-10-20T08:37:55",3,"NO ERROR",9.2,100,1011.61,8.6,14.74,270.25],
    [403,363171,"Vazduh","Libelium","0004A30B0021DF70",44.979,16.7091,"","","Prijedor","",15054978,"2022-10-20T09:38:37",3,"NO ERROR",10.9,100,1011.74,5.48,7.31,48.53],
    [404,363171,"Vazduh","Libelium","0004A30B0021DF70",44.979,16.7091,"","","Prijedor","",15055552,"2022-10-20T10:39:19",3,"NO ERROR",14.5,99.8,1011.73,4.04,5.02,5.22],
    [405,363171,"Vazduh","Libelium","0004A30B0021DF70",44.979,16.7091,"","","Prijedor","",15056108,"2022-10-20T11:40:01",3,"NO ERROR",15.53,83.5,1011.26,1.52,1.86,1.88],
    [406,363171,"Vazduh","Libelium","0004A30B0021DF70",44.979,16.7091,"","","Prijedor","",15056747,"2022-10-20T12:40:49",3,"NO ERROR",17.39,72,1010.75,0.47,0.6,0.6],
    [407,363171,"Vazduh","Libelium","0004A30B0021DF70",44.979,16.7091,"","","Prijedor","",15057306,"2022-10-20T13:41:31",3,"NO ERROR",21.16,53.7,1009.7,0.22,0.26,0.26],
    [408,363171,"Vazduh","Libelium","0004A30B0021DF70",44.979,16.7091,"","","Prijedor","",15057888,"2022-10-20T14:42:13",3,"NO ERROR",21.58,52.5,1009.17,0.32,0.41,0.41],
    [409,363171,"Vazduh","Libelium","0004A30B0021DF70",44.979,16.7091,"","","Prijedor","",15058492,"2022-10-20T15:42:55",3,"NO ERROR",22.65,49.2,1008.61,0.29,0.4,0.4],
    [410,363171,"Vazduh","Libelium","0004A30B0021DF70",44.979,16.7091,"","","Prijedor","",15059077,"2022-10-20T16:43:44",3,"NO ERROR",18.03,56,1008.47,0.47,0.57,0.57],
    [411,363171,"Vazduh","Libelium","0004A30B0021DF70",44.979,16.7091,"","","Prijedor","",15059680,"2022-10-20T17:44:25",3,"NO ERROR",16.08,65,1008.25,0.55,0.92,1.13],
    [412,363171,"Vazduh","Libelium","0004A30B0021DF70",44.979,16.7091,"","","Prijedor","",15062050,"2022-10-20T18:45:08",3,"NO ERROR",14.53,73,1008.16,2.15,2.93,3.31],
    [413,363171,"Vazduh","Libelium","0004A30B0021DF70",44.979,16.7091,"","","Prijedor","",15064240,"2022-10-20T19:45:50",3,"NO ERROR",11.92,93.3,1008.23,3.55,4.42,4.57],
    [414,363171,"Vazduh","Libelium","0004A30B0021DF70",44.979,16.7091,"","","Prijedor","",15066122,"2022-10-20T20:46:32",3,"NO ERROR",10.2,100,1008.41,2.77,3.73,4.39],
    [415,363171,"Vazduh","Libelium","0004A30B0021DF70",44.979,16.7091,"","","Prijedor","",15067757,"2022-10-20T21:47:14",3,"NO ERROR",9.3,100,1008.34,1.82,2.27,2.29],
    [416,363171,"Vazduh","Libelium","0004A30B0021DF70",44.979,16.7091,"","","Prijedor","",15069142,"2022-10-20T22:47:56",3,"NO ERROR",8.58,100,1008.33,1.73,2.3,2.35],
    [417,363171,"Vazduh","Libelium","0004A30B0021DF70",44.979,16.7091,"","","Prijedor","",15070478,"2022-10-20T23:48:38",3,"NO ERROR",8.41,100,1008.19,1.9,2.47,2.64],
    [418,363171,"Vazduh","Libelium","0004A30B0021DF70",44.979,16.7091,"","","Prijedor","",15072156,"2022-10-21T00:49:20",3,"NO ERROR",7.7,100,1008.17,1.91,2.7,2.87],
    [419,363171,"Vazduh","Libelium","0004A30B0021DF70",44.979,16.7091,"","","Prijedor","",15073523,"2022-10-21T01:50:08",3,"NO ERROR",7.19,100,1007.82,2.34,2.9,2.91],
    [420,363171,"Vazduh","Libelium","0004A30B0021DF70",44.979,16.7091,"","","Prijedor","",15074876,"2022-10-21T02:50:50",3,"NO ERROR",6.21,100,1007.61,1.28,1.63,1.78],
    [421,363171,"Vazduh","Libelium","0004A30B0021DF70",44.979,16.7091,"","","Prijedor","",15076294,"2022-10-21T03:51:32",3,"NO ERROR",6.18,100,1007.31,0.67,0.73,0.73],
    [422,363171,"Vazduh","Libelium","0004A30B0021DF70",44.979,16.7091,"","","Prijedor","",15077657,"2022-10-21T04:52:15",3,"NO ERROR",6.63,100,1006.86,5.21,6.85,6.9],
    [423,363171,"Vazduh","Libelium","0004A30B0021DF70",44.979,16.7091,"","","Prijedor","",15079042,"2022-10-21T05:52:57",3,"NO ERROR",6.79,100,1006.54,1.72,2.09,2.21],
    [424,363171,"Vazduh","Libelium","0004A30B0021DF70",44.979,16.7091,"","","Prijedor","",15080421,"2022-10-21T06:53:39",3,"NO ERROR",5.8,100,1006.41,3.55,5.6,9.84],
    [425,363171,"Vazduh","Libelium","0004A30B0021DF70",44.979,16.7091,"","","Prijedor","",15081059,"2022-10-21T07:54:21",3,"NO ERROR",6.01,100,1006.2,1.6,2.12,2.68],
    [426,363171,"Vazduh","Libelium","0004A30B0021DF70",44.979,16.7091,"","","Prijedor","",15081673,"2022-10-21T08:55:03",3,"NO ERROR",9.72,98.9,1006.49,2.35,2.95,2.98],
    [427,363171,"Vazduh","Libelium","0004A30B0021DF70",44.979,16.7091,"","","Prijedor","",15082284,"2022-10-21T09:55:45",3,"NO ERROR",11.79,88.4,1006.14,1.61,2.07,6.08],
    [428,363171,"Vazduh","Libelium","0004A30B0021DF70",44.979,16.7091,"","","Prijedor","",15082905,"2022-10-21T10:56:39",3,"NO ERROR",14.08,78.8,1005.69,0.67,1.15,5.99],
    [429,363171,"Vazduh","Libelium","0004A30B0021DF70",44.979,16.7091,"","","Prijedor","",15083557,"2022-10-21T11:57:21",3,"NO ERROR",15.93,70.4,1005.32,0.27,0.43,0.55],
    [430,363171,"Vazduh","Libelium","0004A30B0021DF70",44.979,16.7091,"","","Prijedor","",15084163,"2022-10-21T12:58:03",3,"NO ERROR",17.97,61.2,1004.53,0.44,0.74,0.89],
    [431,363171,"Vazduh","Libelium","0004A30B0021DF70",44.979,16.7091,"","","Prijedor","",15084745,"2022-10-21T13:58:45",3,"NO ERROR",18.11,61.9,1003.84,0.51,0.66,0.68],
    [432,363171,"Vazduh","Libelium","0004A30B0021DF70",44.979,16.7091,"","","Prijedor","",15085338,"2022-10-21T14:59:27",3,"NO ERROR",19.81,59.4,1003.62,0.36,0.49,0.49],
    [433,363171,"Vazduh","Libelium","0004A30B0021DF70",44.979,16.7091,"","","Prijedor","",15085946,"2022-10-21T16:00:10",3,"NO ERROR",19.46,62.7,1003.55,0.83,1.24,1.66],
    [434,363171,"Vazduh","Libelium","0004A30B0021DF70",44.979,16.7091,"","","Prijedor","",15086531,"2022-10-21T17:00:52",3,"NO ERROR",18.11,70.9,1003.43,1.72,2.4,2.7],
    [435,363171,"Vazduh","Libelium","0004A30B0021DF70",44.979,16.7091,"","","Prijedor","",15087084,"2022-10-21T18:01:34",3,"NO ERROR",17,77,1003.17,1.35,1.99,2.3],
    [436,363171,"Vazduh","Libelium","0004A30B0021DF70",44.979,16.7091,"","","Prijedor","",15089913,"2022-10-21T19:02:16",3,"NO ERROR",15.89,94.8,1003.79,6.41,7.91,8.34],
    [437,363171,"Vazduh","Libelium","0004A30B0021DF70",44.979,16.7091,"","","Prijedor","",15091817,"2022-10-21T20:02:58",3,"NO ERROR",15.33,100,1003.61,3.32,4.05,4.18],
    [438,363171,"Vazduh","Libelium","0004A30B0021DF70",44.979,16.7091,"","","Prijedor","",15093443,"2022-10-21T21:03:40",3,"NO ERROR",14.77,100,1003.49,4.08,5.16,5.55],
    [439,363171,"Vazduh","Libelium","0004A30B0021DF70",44.979,16.7091,"","","Prijedor","",15094737,"2022-10-21T22:04:22",3,"NO ERROR",14.11,100,1004.04,1.83,2.42,2.85],
    [440,363171,"Vazduh","Libelium","0004A30B0021DF70",44.979,16.7091,"","","Prijedor","",15095995,"2022-10-21T23:05:04",3,"NO ERROR",13.8,100,1004.18,2.25,3.07,5.44],
    [441,363171,"Vazduh","Libelium","0004A30B0021DF70",44.979,16.7091,"","","Prijedor","",15097426,"2022-10-22T00:05:46",3,"NO ERROR",13.81,100,1003.8,2.46,3.01,3.18],
    [442,363171,"Vazduh","Libelium","0004A30B0021DF70",44.979,16.7091,"","","Prijedor","",15098705,"2022-10-22T01:06:28",3,"NO ERROR",13.37,100,1004.25,4.03,4.99,5.28],
    [443,363171,"Vazduh","Libelium","0004A30B0021DF70",44.979,16.7091,"","","Prijedor","",15099990,"2022-10-22T02:07:10",3,"NO ERROR",13.13,100,1003.9,4.45,5.58,6.3],
    [444,363171,"Vazduh","Libelium","0004A30B0021DF70",44.979,16.7091,"","","Prijedor","",15101268,"2022-10-22T03:07:52",3,"NO ERROR",12,100,1003.72,3.85,4.62,4.74],
    [445,363171,"Vazduh","Libelium","0004A30B0021DF70",44.979,16.7091,"","","Prijedor","",15102580,"2022-10-22T04:08:35",3,"NO ERROR",11.48,100,1003.51,3.04,3.69,4.18],
    [446,363171,"Vazduh","Libelium","0004A30B0021DF70",44.979,16.7091,"","","Prijedor","",15103845,"2022-10-22T05:09:17",3,"NO ERROR",11.32,100,1003.54,7.97,9.81,10],
    [447,363171,"Vazduh","Libelium","0004A30B0021DF70",44.979,16.7091,"","","Prijedor","",15105105,"2022-10-22T06:09:59",3,"NO ERROR",10.53,100,1003.6,2.93,3.83,4.46],
    [448,363171,"Vazduh","Libelium","0004A30B0021DF70",44.979,16.7091,"","","Prijedor","",15106097,"2022-10-22T07:10:41",3,"NO ERROR",10.25,100,1003.24,2.29,2.88,3.12],
    [449,363171,"Vazduh","Libelium","0004A30B0021DF70",44.979,16.7091,"","","Prijedor","",15106654,"2022-10-22T08:11:23",3,"NO ERROR",10.64,100,1003.04,2.36,2.81,2.83],
    [450,363171,"Vazduh","Libelium","0004A30B0021DF70",44.979,16.7091,"","","Prijedor","",15107210,"2022-10-22T09:12:05",3,"NO ERROR",12.44,100,1003.41,2.09,2.48,2.51],
    [451,363171,"Vazduh","Libelium","0004A30B0021DF70",44.979,16.7091,"","","Prijedor","",15107768,"2022-10-22T10:12:47",3,"NO ERROR",15.56,96.2,1003.47,1.28,1.73,4.41],
    [452,363171,"Vazduh","Libelium","0004A30B0021DF70",44.979,16.7091,"","","Prijedor","",15108331,"2022-10-22T11:13:29",3,"NO ERROR",19.68,71.5,1003.55,1.34,1.92,2.38],
    [453,363171,"Vazduh","Libelium","0004A30B0021DF70",44.979,16.7091,"","","Prijedor","",15108890,"2022-10-22T12:14:11",3,"NO ERROR",20.23,68.9,1003.51,1.35,2.41,4.94],
    [454,363171,"Vazduh","Libelium","0004A30B0021DF70",44.979,16.7091,"","","Prijedor","",15109468,"2022-10-22T13:14:53",3,"NO ERROR",19.5,73.2,1003.16,1.37,1.97,2.52],
    [455,363171,"Vazduh","Libelium","0004A30B0021DF70",44.979,16.7091,"","","Prijedor","",15110016,"2022-10-22T14:15:35",3,"NO ERROR",19.98,75.8,1002.59,2.76,3.52,5],
    [456,363171,"Vazduh","Libelium","0004A30B0021DF70",44.979,16.7091,"","","Prijedor","",15110564,"2022-10-22T15:16:24",3,"NO ERROR",20.79,73.7,1002.22,3.33,4.09,4.36],
    [457,363171,"Vazduh","Libelium","0004A30B0021DF70",44.979,16.7091,"","","Prijedor","",15111121,"2022-10-22T16:17:06",3,"NO ERROR",20.44,75.6,1002,2.25,3.09,3.9],
    [458,363171,"Vazduh","Libelium","0004A30B0021DF70",44.979,16.7091,"","","Prijedor","",15111698,"2022-10-22T17:17:48",3,"NO ERROR",19.59,83,1001.97,4.41,5.58,27.55],
    [459,363171,"Vazduh","Libelium","0004A30B0021DF70",44.979,16.7091,"","","Prijedor","",15113059,"2022-10-22T18:18:30",3,"NO ERROR",19.35,77.7,1002.07,5.37,6.82,7.06],
    [460,363171,"Vazduh","Libelium","0004A30B0021DF70",44.979,16.7091,"","","Prijedor","",15114784,"2022-10-22T19:19:12",3,"NO ERROR",17.38,97.1,1004.25,0.87,1.15,1.16],
    [461,363171,"Vazduh","Libelium","0004A30B0021DF70",44.979,16.7091,"","","Prijedor","",15116221,"2022-10-22T20:19:54",3,"NO ERROR",15.54,100,1006.1,0.26,0.38,0.4],
    [462,363171,"Vazduh","Libelium","0004A30B0021DF70",44.979,16.7091,"","","Prijedor","",15117428,"2022-10-22T21:20:36",3,"NO ERROR",15.45,100,1007.32,4.07,5.02,5.17],
    [463,363171,"Vazduh","Libelium","0004A30B0021DF70",44.979,16.7091,"","","Prijedor","",15118646,"2022-10-22T22:21:18",3,"NO ERROR",15.13,100,1008.47,1.62,2.13,2.18],
    [464,363171,"Vazduh","Libelium","0004A30B0021DF70",44.979,16.7091,"","","Prijedor","",15119897,"2022-10-22T23:22:00",3,"NO ERROR",14.99,100,1008.69,0.99,1.23,1.23],
    [465,363171,"Vazduh","Libelium","0004A30B0021DF70",44.979,16.7091,"","","Prijedor","",15121413,"2022-10-23T00:22:42",3,"NO ERROR",14.9,100,1008.51,3.61,4.8,5.32],
    [466,363171,"Vazduh","Libelium","0004A30B0021DF70",44.979,16.7091,"","","Prijedor","",15122762,"2022-10-23T01:23:24",3,"NO ERROR",14.93,100,1008.39,1.42,1.76,1.77],
    [467,363171,"Vazduh","Libelium","0004A30B0021DF70",44.979,16.7091,"","","Prijedor","",15124040,"2022-10-23T02:24:06",3,"NO ERROR",14.83,100,1008.04,1,1.14,1.15],
    [468,363171,"Vazduh","Libelium","0004A30B0021DF70",44.979,16.7091,"","","Prijedor","",15125310,"2022-10-23T03:24:55",3,"NO ERROR",14.55,100,1007.96,0.96,1.26,1.36],
    [469,363171,"Vazduh","Libelium","0004A30B0021DF70",44.979,16.7091,"","","Prijedor","",15126617,"2022-10-23T04:25:37",3,"NO ERROR",14.58,100,1007.9,1.71,2.11,2.15],
    [470,363171,"Vazduh","Libelium","0004A30B0021DF70",44.979,16.7091,"","","Prijedor","",15127880,"2022-10-23T05:26:19",3,"NO ERROR",14.28,100,1007.71,2.06,2.53,6.56],
    [471,363171,"Vazduh","Libelium","0004A30B0021DF70",44.979,16.7091,"","","Prijedor","",15129120,"2022-10-23T06:27:01",3,"NO ERROR",14.14,100,1007.65,4.83,5.71,5.72],
    [472,363171,"Vazduh","Libelium","0004A30B0021DF70",44.979,16.7091,"","","Prijedor","",15130039,"2022-10-23T07:27:43",3,"NO ERROR",13.5,100,1007.6,7.28,8.86,8.89],
    [473,363171,"Vazduh","Libelium","0004A30B0021DF70",44.979,16.7091,"","","Prijedor","",15130631,"2022-10-23T08:28:25",3,"NO ERROR",13.83,100,1008.07,5.13,6.46,6.49],
    [474,363171,"Vazduh","Libelium","0004A30B0021DF70",44.979,16.7091,"","","Prijedor","",15131181,"2022-10-23T09:29:07",3,"NO ERROR",17.9,100,1008.15,0.11,0.21,0.28],
    [475,363171,"Vazduh","Libelium","0004A30B0021DF70",44.979,16.7091,"","","Prijedor","",15131746,"2022-10-23T10:29:49",3,"NO ERROR",18.58,100,1008.16,0.49,0.57,0.57],
    [476,363171,"Vazduh","Libelium","0004A30B0021DF70",44.979,16.7091,"","","Prijedor","",15132280,"2022-10-23T11:30:31",3,"NO ERROR",20.21,96.8,1008,0.7,1.1,1.13],
    [477,363171,"Vazduh","Libelium","0004A30B0021DF70",44.979,16.7091,"","","Prijedor","",15132831,"2022-10-23T12:31:13",3,"NO ERROR",22.62,84.9,1007.59,0.54,0.79,0.88],
    [478,363171,"Vazduh","Libelium","0004A30B0021DF70",44.979,16.7091,"","","Prijedor","",15133387,"2022-10-23T13:31:55",3,"NO ERROR",24.95,71.5,1006.88,0.26,0.49,0.82],
    [479,363171,"Vazduh","Libelium","0004A30B0021DF70",44.979,16.7091,"","","Prijedor","",15133957,"2022-10-23T14:32:37",3,"NO ERROR",25.63,66.6,1006.17,0.74,0.93,0.94],
    [480,363171,"Vazduh","Libelium","0004A30B0021DF70",44.979,16.7091,"","","Prijedor","",15134543,"2022-10-23T15:33:26",3,"NO ERROR",27.79,60,1005.61,0.84,1.18,1.21],
    [481,363171,"Vazduh","Libelium","0004A30B0021DF70",44.979,16.7091,"","","Prijedor","",15135151,"2022-10-23T16:34:08",3,"NO ERROR",25.15,67.9,1005.27,1.46,2.17,2.78],
    [482,363171,"Vazduh","Libelium","0004A30B0021DF70",44.979,16.7091,"","","Prijedor","",15135724,"2022-10-23T17:34:50",3,"NO ERROR",22.36,84.5,1004.98,1.81,2.37,2.48],
    [483,363171,"Vazduh","Libelium","0004A30B0021DF70",44.979,16.7091,"","","Prijedor","",15137951,"2022-10-23T18:35:32",3,"NO ERROR",19.88,100,1004.93,2.16,2.72,2.78],
    [484,363171,"Vazduh","Libelium","0004A30B0021DF70",44.979,16.7091,"","","Prijedor","",15140418,"2022-10-23T19:36:14",3,"NO ERROR",18.26,100,1005.6,3.25,4.11,4.18],
    [485,363171,"Vazduh","Libelium","0004A30B0021DF70",44.979,16.7091,"","","Prijedor","",15142199,"2022-10-23T20:36:56",3,"NO ERROR",16.79,100,1005.64,4.02,5.16,5.31],
    [486,363171,"Vazduh","Libelium","0004A30B0021DF70",44.979,16.7091,"","","Prijedor","",15143585,"2022-10-23T21:37:38",3,"NO ERROR",15.68,100,1005.72,4.56,5.91,6.6],
    [487,363171,"Vazduh","Libelium","0004A30B0021DF70",44.979,16.7091,"","","Prijedor","",15144928,"2022-10-23T22:38:20",3,"NO ERROR",14.88,100,1005.75,5.26,6.95,7.31],
    [488,363171,"Vazduh","Libelium","0004A30B0021DF70",44.979,16.7091,"","","Prijedor","",15146155,"2022-10-23T23:39:08",3,"NO ERROR",14.17,100,1005.86,6.12,7.51,8.02],
    [489,363171,"Vazduh","Libelium","0004A30B0021DF70",44.979,16.7091,"","","Prijedor","",15147777,"2022-10-24T00:39:50",3,"NO ERROR",13.2,100,1005.85,21.2,29.74,115.88],
    [490,363171,"Vazduh","Libelium","0004A30B0021DF70",44.979,16.7091,"","","Prijedor","",15149140,"2022-10-24T01:40:38",3,"NO ERROR",13.17,100,1005.86,28.23,40.76,110.54],
    [491,363171,"Vazduh","Libelium","0004A30B0021DF70",44.979,16.7091,"","","Prijedor","",15150498,"2022-10-24T02:41:20",3,"NO ERROR",12.7,100,1005.81,28.49,41.86,294.56],
    [492,363171,"Vazduh","Libelium","0004A30B0021DF70",44.979,16.7091,"","","Prijedor","",15151834,"2022-10-24T03:42:03",3,"NO ERROR",12.51,100,1005.5,32.59,55.25,396.34],
    [493,363171,"Vazduh","Libelium","0004A30B0021DF70",44.979,16.7091,"","","Prijedor","",15153180,"2022-10-24T04:42:45",3,"NO ERROR",12.04,100,1005.34,46.12,69.74,364.73],
    [494,363171,"Vazduh","Libelium","0004A30B0021DF70",44.979,16.7091,"","","Prijedor","",15154444,"2022-10-24T05:43:27",3,"NO ERROR",11.8,100,1004.86,25.82,37.59,208.86],
    [495,363171,"Vazduh","Libelium","0004A30B0021DF70",44.979,16.7091,"","","Prijedor","",15155689,"2022-10-24T06:44:09",3,"NO ERROR",11.41,100,1005.18,51.99,77.73,260.73],
    [496,363171,"Vazduh","Libelium","0004A30B0021DF70",44.979,16.7091,"","","Prijedor","",15156412,"2022-10-24T07:44:51",3,"NO ERROR",11.5,100,1005.09,18.78,30.17,165.21],
    [497,363171,"Vazduh","Libelium","0004A30B0021DF70",44.979,16.7091,"","","Prijedor","",15157021,"2022-10-24T08:45:33",3,"NO ERROR",11.82,100,1005.62,7.56,9.45,62.76],
    [498,363171,"Vazduh","Libelium","0004A30B0021DF70",44.979,16.7091,"","","Prijedor","",15157565,"2022-10-24T09:46:15",3,"NO ERROR",12.53,100,1006.23,2.83,3.81,6.09],
    [499,363171,"Vazduh","Libelium","0004A30B0021DF70",44.979,16.7091,"","","Prijedor","",15158156,"2022-10-24T10:46:57",3,"NO ERROR",14.38,100,1006.24,1.88,2.14,2.15],
    [500,363171,"Vazduh","Libelium","0004A30B0021DF70",44.979,16.7091,"","","Prijedor","",15158733,"2022-10-24T11:47:39",3,"NO ERROR",16.59,100,1005.9,0.86,1.23,1.33],
    [501,363171,"Vazduh","Libelium","0004A30B0021DF70",44.979,16.7091,"","","Prijedor","",15159318,"2022-10-24T12:48:21",3,"NO ERROR",18.65,99.5,1005.38,2.7,3.39,3.41],
    [502,363171,"Vazduh","Libelium","0004A30B0021DF70",44.979,16.7091,"","","Prijedor","",15159907,"2022-10-24T13:49:03",3,"NO ERROR",20.5,88.1,1004.47,0.92,1.42,1.53],
    [503,363171,"Vazduh","Libelium","0004A30B0021DF70",44.979,16.7091,"","","Prijedor","",15160507,"2022-10-24T14:49:51",3,"NO ERROR",21.19,80.3,1003.77,1.59,2.35,2.49],
    [504,363171,"Vazduh","Libelium","0004A30B0021DF70",44.979,16.7091,"","","Prijedor","",15161105,"2022-10-24T15:50:40",3,"NO ERROR",20.87,81.6,1003.08,1.78,2.6,3.94],
    [505,363171,"Vazduh","Libelium","0004A30B0021DF70",44.979,16.7091,"","","Prijedor","",15161645,"2022-10-24T16:51:21",3,"NO ERROR",20.4,83.2,1002.68,2.33,3.11,3.27],
    [506,363171,"Vazduh","Libelium","0004A30B0021DF70",44.979,16.7091,"","","Prijedor","",15162219,"2022-10-24T17:52:04",3,"NO ERROR",18.48,100,1002.46,2.87,4.12,4.22],
    [507,363171,"Vazduh","Libelium","0004A30B0021DF70",44.979,16.7091,"","","Prijedor","",15165015,"2022-10-24T18:52:46",3,"NO ERROR",16.84,100,1002.78,4.27,5.67,5.91],
    [508,363171,"Vazduh","Libelium","0004A30B0021DF70",44.979,16.7091,"","","Prijedor","",15166993,"2022-10-24T19:53:28",3,"NO ERROR",15.18,100,1002.85,8.6,10.49,10.97],
    [509,363171,"Vazduh","Libelium","0004A30B0021DF70",44.979,16.7091,"","","Prijedor","",15168538,"2022-10-24T20:54:10",3,"NO ERROR",14.01,100,1002.78,11.83,15.04,15.54],
    [510,363171,"Vazduh","Libelium","0004A30B0021DF70",44.979,16.7091,"","","Prijedor","",15169945,"2022-10-24T21:54:52",3,"NO ERROR",12.94,100,1003.42,6.6,8.24,8.79],
    [511,363171,"Vazduh","Libelium","0004A30B0021DF70",44.979,16.7091,"","","Prijedor","",15171251,"2022-10-24T22:55:34",3,"NO ERROR",12.84,100,1003.65,4.84,5.93,7.56],
    [512,363171,"Vazduh","Libelium","0004A30B0021DF70",44.979,16.7091,"","","Prijedor","",15172569,"2022-10-24T23:56:16",3,"NO ERROR",12.37,100,1003.84,5.64,6.7,6.72],
    [513,363171,"Vazduh","Libelium","0004A30B0021DF70",44.979,16.7091,"","","Prijedor","",15174274,"2022-10-25T00:56:58",3,"NO ERROR",11.28,100,1004.32,17.27,22.47,34.51],
    [514,363171,"Vazduh","Libelium","0004A30B0021DF70",44.979,16.7091,"","","Prijedor","",15175679,"2022-10-25T01:57:40",3,"NO ERROR",12.2,100,1004.62,111.73,166.51,443.46],
    [515,363171,"Vazduh","Libelium","0004A30B0021DF70",44.979,16.7091,"","","Prijedor","",15176994,"2022-10-25T02:58:22",3,"NO ERROR",11.48,100,1004.69,12.93,15.84,23.6],
    [516,363171,"Vazduh","Libelium","0004A30B0021DF70",44.979,16.7091,"","","Prijedor","",15178304,"2022-10-25T03:59:04",3,"NO ERROR",11.54,100,1004.29,51.07,80.02,534.69],
    [517,363171,"Vazduh","Libelium","0004A30B0021DF70",44.979,16.7091,"","","Prijedor","",15179652,"2022-10-25T04:59:47",3,"NO ERROR",11.71,100,1004.28,30.36,48.03,610.33],
    [518,363171,"Vazduh","Libelium","0004A30B0021DF70",44.979,16.7091,"","","Prijedor","",15180967,"2022-10-25T06:00:29",3,"NO ERROR",11.6,100,1004.37,38.07,56.35,214.19],
    [519,363171,"Vazduh","Libelium","0004A30B0021DF70",44.979,16.7091,"","","Prijedor","",15182187,"2022-10-25T07:01:11",3,"NO ERROR",11.5,100,1004.36,27.72,39.26,188.75],
    [520,363171,"Vazduh","Libelium","0004A30B0021DF70",44.979,16.7091,"","","Prijedor","",15182840,"2022-10-25T08:01:53",3,"NO ERROR",11.14,100,1004.87,4.19,5,5.03],
    [521,363171,"Vazduh","Libelium","0004A30B0021DF70",44.979,16.7091,"","","Prijedor","",15183427,"2022-10-25T09:02:35",3,"NO ERROR",12.09,100,1005.45,2.18,2.35,2.35],
    [522,363171,"Vazduh","Libelium","0004A30B0021DF70",44.979,16.7091,"","","Prijedor","",15184045,"2022-10-25T10:03:17",3,"NO ERROR",13.54,100,1005.88,4.59,5.81,5.98],
    [523,363171,"Vazduh","Libelium","0004A30B0021DF70",44.979,16.7091,"","","Prijedor","",15184616,"2022-10-25T11:03:59",3,"NO ERROR",17.07,100,1005.87,1.53,1.8,1.8],
    [524,363171,"Vazduh","Libelium","0004A30B0021DF70",44.979,16.7091,"","","Prijedor","",15185243,"2022-10-25T12:04:41",3,"NO ERROR",19.53,95.7,1006.36,0.59,0.94,1.16],
    [525,363171,"Vazduh","Libelium","0004A30B0021DF70",44.979,16.7091,"","","Prijedor","",15185849,"2022-10-25T13:05:23",3,"NO ERROR",20.34,90.6,1006.08,0.35,0.56,0.64],
    [526,363171,"Vazduh","Libelium","0004A30B0021DF70",44.979,16.7091,"","","Prijedor","",15186447,"2022-10-25T14:06:05",3,"NO ERROR",21.18,83.1,1005.68,0.51,0.67,0.68],
    [527,363171,"Vazduh","Libelium","0004A30B0021DF70",44.979,16.7091,"","","Prijedor","",15187044,"2022-10-25T15:06:47",3,"NO ERROR",23.92,72.3,1005.27,0.78,1,1.02],
    [528,363171,"Vazduh","Libelium","0004A30B0021DF70",44.979,16.7091,"","","Prijedor","",15187635,"2022-10-25T16:07:29",3,"NO ERROR",21.84,83.4,1005.41,0.6,0.8,0.82],
    [529,363171,"Vazduh","Libelium","0004A30B0021DF70",44.979,16.7091,"","","Prijedor","",15188249,"2022-10-25T17:08:12",3,"NO ERROR",17.58,100,1005.46,1.17,1.76,1.94],
    [530,363171,"Vazduh","Libelium","0004A30B0021DF70",44.979,16.7091,"","","Prijedor","",15189266,"2022-10-25T18:08:54",3,"NO ERROR",16.4,100,1005.64,2.35,2.87,2.9],
    [531,363171,"Vazduh","Libelium","0004A30B0021DF70",44.979,16.7091,"","","Prijedor","",15192536,"2022-10-25T19:09:36",3,"NO ERROR",15.28,100,1006.07,2.62,3.25,3.28],
    [532,363171,"Vazduh","Libelium","0004A30B0021DF70",44.979,16.7091,"","","Prijedor","",15194722,"2022-10-25T20:10:18",3,"NO ERROR",15.42,100,1006.54,3.06,4.12,4.33],
    [533,363171,"Vazduh","Libelium","0004A30B0021DF70",44.979,16.7091,"","","Prijedor","",15196270,"2022-10-25T21:11:00",3,"NO ERROR",14.21,100,1006.77,3.35,4.35,4.5],
    [534,363171,"Vazduh","Libelium","0004A30B0021DF70",44.979,16.7091,"","","Prijedor","",15197641,"2022-10-25T22:11:42",3,"NO ERROR",13.38,100,1006.81,11.43,13.96,18.55],
    [535,363171,"Vazduh","Libelium","0004A30B0021DF70",44.979,16.7091,"","","Prijedor","",15198984,"2022-10-25T23:12:24",3,"NO ERROR",13.17,100,1006.99,5.78,7.13,7.2],
    [536,363171,"Vazduh","Libelium","0004A30B0021DF70",44.979,16.7091,"","","Prijedor","",15200452,"2022-10-26T00:13:06",3,"NO ERROR",13.38,100,1007.08,12.13,16.02,70.53],
    [537,363171,"Vazduh","Libelium","0004A30B0021DF70",44.979,16.7091,"","","Prijedor","",15201784,"2022-10-26T01:13:48",3,"NO ERROR",13.69,100,1006.95,16.54,23.1,127.83],
    [538,363171,"Vazduh","Libelium","0004A30B0021DF70",44.979,16.7091,"","","Prijedor","",15203116,"2022-10-26T02:14:30",3,"NO ERROR",13.28,100,1007.08,43.01,65.43,182.81],
    [539,363171,"Vazduh","Libelium","0004A30B0021DF70",44.979,16.7091,"","","Prijedor","",15204462,"2022-10-26T03:15:12",3,"NO ERROR",13.07,100,1007.07,10.94,16.85,111.4],
    [540,363171,"Vazduh","Libelium","0004A30B0021DF70",44.979,16.7091,"","","Prijedor","",15205766,"2022-10-26T04:15:55",3,"NO ERROR",12.98,100,1006.75,10.5,15.59,65.53],
    [541,363171,"Vazduh","Libelium","0004A30B0021DF70",44.979,16.7091,"","","Prijedor","",15207017,"2022-10-26T05:16:37",3,"NO ERROR",12.67,100,1006.99,7.37,14.39,175.58],
    [542,363171,"Vazduh","Libelium","0004A30B0021DF70",44.979,16.7091,"","","Prijedor","",15208322,"2022-10-26T06:17:19",3,"NO ERROR",12.45,100,1006.88,7.27,9.23,9.44],
    [543,363171,"Vazduh","Libelium","0004A30B0021DF70",44.979,16.7091,"","","Prijedor","",15209396,"2022-10-26T07:18:01",3,"NO ERROR",12.34,100,1007.09,7.03,9.19,29.65],
    [544,363171,"Vazduh","Libelium","0004A30B0021DF70",44.979,16.7091,"","","Prijedor","",15210000,"2022-10-26T08:18:43",3,"NO ERROR",12.41,100,1007.32,3.28,4.91,56.39],
    [545,363171,"Vazduh","Libelium","0004A30B0021DF70",44.979,16.7091,"","","Prijedor","",15210567,"2022-10-26T09:19:25",3,"NO ERROR",12.52,100,1007.62,2.96,5.08,64.02],
    [546,363171,"Vazduh","Libelium","0004A30B0021DF70",44.979,16.7091,"","","Prijedor","",15211174,"2022-10-26T10:20:07",3,"NO ERROR",13.73,100,1007.92,1.05,1.92,8.11],
    [547,363171,"Vazduh","Libelium","0004A30B0021DF70",44.979,16.7091,"","","Prijedor","",15211745,"2022-10-26T11:20:49",3,"NO ERROR",14.95,100,1007.75,0.61,0.88,1],
    [548,363171,"Vazduh","Libelium","0004A30B0021DF70",44.979,16.7091,"","","Prijedor","",15212372,"2022-10-26T12:21:31",3,"NO ERROR",17.39,100,1007.61,1.09,1.4,1.45],
    [549,363171,"Vazduh","Libelium","0004A30B0021DF70",44.979,16.7091,"","","Prijedor","",15212981,"2022-10-26T13:22:13",3,"NO ERROR",19.42,93.3,1007.19,1.22,1.49,1.51],
    [550,363171,"Vazduh","Libelium","0004A30B0021DF70",44.979,16.7091,"","","Prijedor","",15213609,"2022-10-26T14:22:55",3,"NO ERROR",22.5,76.2,1006.72,1.34,1.85,3.42],
    [551,363171,"Vazduh","Libelium","0004A30B0021DF70",44.979,16.7091,"","","Prijedor","",15214221,"2022-10-26T15:23:37",3,"NO ERROR",26.28,61.9,1006.64,0.67,1.1,1.22],
    [552,363171,"Vazduh","Libelium","0004A30B0021DF70",44.979,16.7091,"","","Prijedor","",15214835,"2022-10-26T16:24:20",3,"NO ERROR",23.63,69.2,1006.62,1.64,2.16,2.31],
    [553,363171,"Vazduh","Libelium","0004A30B0021DF70",44.979,16.7091,"","","Prijedor","",15215437,"2022-10-26T17:25:02",3,"NO ERROR",22.25,77.7,1006.8,0.42,0.7,0.73],
    [554,363171,"Vazduh","Libelium","0004A30B0021DF70",44.979,16.7091,"","","Prijedor","",15217549,"2022-10-26T18:25:44",3,"NO ERROR",19.25,95.2,1007.39,1.07,1.63,3.37],
    [555,363171,"Vazduh","Libelium","0004A30B0021DF70",44.979,16.7091,"","","Prijedor","",15220075,"2022-10-26T19:26:26",3,"NO ERROR",16.86,100,1008.11,0.88,1.21,1.32],
    [556,363171,"Vazduh","Libelium","0004A30B0021DF70",44.979,16.7091,"","","Prijedor","",15221826,"2022-10-26T20:27:08",3,"NO ERROR",15.53,100,1008.93,1.26,1.65,1.67],
    [557,363171,"Vazduh","Libelium","0004A30B0021DF70",44.979,16.7091,"","","Prijedor","",15223298,"2022-10-26T21:27:50",3,"NO ERROR",14.67,100,1009.63,2.56,3.51,3.77],
    [558,363171,"Vazduh","Libelium","0004A30B0021DF70",44.979,16.7091,"","","Prijedor","",15224718,"2022-10-26T22:28:32",3,"NO ERROR",13.83,100,1010.12,7.12,8.76,8.93],
    [559,363171,"Vazduh","Libelium","0004A30B0021DF70",44.979,16.7091,"","","Prijedor","",15226083,"2022-10-26T23:29:14",3,"NO ERROR",12.55,100,1010.74,3.71,4.63,4.66],
    [560,363171,"Vazduh","Libelium","0004A30B0021DF70",44.979,16.7091,"","","Prijedor","",15227711,"2022-10-27T00:29:56",3,"NO ERROR",12.19,100,1010.9,5.33,6.48,6.63],
    [561,363171,"Vazduh","Libelium","0004A30B0021DF70",44.979,16.7091,"","","Prijedor","",15229084,"2022-10-27T01:30:38",3,"NO ERROR",11.86,100,1011.33,10.93,14.18,15.94],
    [562,363171,"Vazduh","Libelium","0004A30B0021DF70",44.979,16.7091,"","","Prijedor","",15230458,"2022-10-27T02:31:20",3,"NO ERROR",12.23,100,1011.65,33.67,49.34,225.86],
    [563,363171,"Vazduh","Libelium","0004A30B0021DF70",44.979,16.7091,"","","Prijedor","",15231745,"2022-10-27T03:32:02",3,"NO ERROR",12.07,100,1011.84,21.64,32.86,181.84],
    [564,363171,"Vazduh","Libelium","0004A30B0021DF70",44.979,16.7091,"","","Prijedor","",15233055,"2022-10-27T04:32:45",3,"NO ERROR",12.31,100,1012.17,19.78,31.96,369.29],
    [565,363171,"Vazduh","Libelium","0004A30B0021DF70",44.979,16.7091,"","","Prijedor","",15234308,"2022-10-27T05:33:27",3,"NO ERROR",12.42,100,1012.49,14.46,20.64,249.46],
    [566,363171,"Vazduh","Libelium","0004A30B0021DF70",44.979,16.7091,"","","Prijedor","",15235601,"2022-10-27T06:34:09",3,"NO ERROR",12.5,100,1012.59,20.98,28.55,195.82],
    [567,363171,"Vazduh","Libelium","0004A30B0021DF70",44.979,16.7091,"","","Prijedor","",15236467,"2022-10-27T07:34:51",3,"NO ERROR",12.09,100,1013.05,12.02,17.34,160.91],
    [568,363171,"Vazduh","Libelium","0004A30B0021DF70",44.979,16.7091,"","","Prijedor","",15237066,"2022-10-27T08:35:33",3,"NO ERROR",11.92,100,1013.91,5.98,9.34,135.88],
    [569,363171,"Vazduh","Libelium","0004A30B0021DF70",44.979,16.7091,"","","Prijedor","",15237638,"2022-10-27T09:36:15",3,"NO ERROR",12.77,100,1014.37,1.73,2.37,10.39],
    [570,363171,"Vazduh","Libelium","0004A30B0021DF70",44.979,16.7091,"","","Prijedor","",15238232,"2022-10-27T10:36:57",3,"NO ERROR",14.77,100,1014.9,1.54,1.87,18.36],
    [571,363171,"Vazduh","Libelium","0004A30B0021DF70",44.979,16.7091,"","","Prijedor","",15238795,"2022-10-27T11:37:39",3,"NO ERROR",15.78,100,1014.84,1.5,1.95,2.1],
    [572,363171,"Vazduh","Libelium","0004A30B0021DF70",44.979,16.7091,"","","Prijedor","",15239406,"2022-10-27T12:38:21",3,"NO ERROR",17.08,100,1014.68,1.53,2.22,2.45],
    [573,363171,"Vazduh","Libelium","0004A30B0021DF70",44.979,16.7091,"","","Prijedor","",15239988,"2022-10-27T13:39:03",3,"NO ERROR",19.9,93.8,1014.05,0.49,0.64,0.65],
    [574,363171,"Vazduh","Libelium","0004A30B0021DF70",44.979,16.7091,"","","Prijedor","",15240603,"2022-10-27T14:39:45",3,"NO ERROR",20.86,90.3,1013.44,0.94,1.32,1.46],
    [575,363171,"Vazduh","Libelium","0004A30B0021DF70",44.979,16.7091,"","","Prijedor","",15241182,"2022-10-27T15:40:27",3,"NO ERROR",24.82,69.8,1013.05,1.21,1.67,1.7],
    [576,363171,"Vazduh","Libelium","0004A30B0021DF70",44.979,16.7091,"","","Prijedor","",15241828,"2022-10-27T16:41:09",3,"NO ERROR",19.36,94.8,1012.97,1.05,1.35,1.4],
    [577,363171,"Vazduh","Libelium","0004A30B0021DF70",44.979,16.7091,"","","Prijedor","",15242429,"2022-10-27T17:41:58",3,"NO ERROR",16.71,100,1012.93,2.19,2.92,3.81],
    [578,363171,"Vazduh","Libelium","0004A30B0021DF70",44.979,16.7091,"","","Prijedor","",15245180,"2022-10-27T18:42:40",3,"NO ERROR",14.77,100,1013.34,3.7,4.5,4.61],
    [579,363171,"Vazduh","Libelium","0004A30B0021DF70",44.979,16.7091,"","","Prijedor","",15247444,"2022-10-27T19:43:22",3,"NO ERROR",13.96,100,1013.96,4.02,5.02,5.51],
    [580,363171,"Vazduh","Libelium","0004A30B0021DF70",44.979,16.7091,"","","Prijedor","",15249244,"2022-10-27T20:44:04",3,"NO ERROR",13.23,100,1014.11,5.39,6.64,7.04],
    [581,363171,"Vazduh","Libelium","0004A30B0021DF70",44.979,16.7091,"","","Prijedor","",15250718,"2022-10-27T21:44:46",3,"NO ERROR",12.27,100,1014.3,58.49,90.37,684.38],
    [582,363171,"Vazduh","Libelium","0004A30B0021DF70",44.979,16.7091,"","","Prijedor","",15252047,"2022-10-27T22:45:28",3,"NO ERROR",11.81,100,1014.52,25.27,46.7,551.93],
    [583,363171,"Vazduh","Libelium","0004A30B0021DF70",44.979,16.7091,"","","Prijedor","",15253295,"2022-10-27T23:46:10",3,"NO ERROR",11.78,100,1014.68,29.5,42.31,170.4],
    [584,363171,"Vazduh","Libelium","0004A30B0021DF70",44.979,16.7091,"","","Prijedor","",15254815,"2022-10-28T00:46:52",3,"NO ERROR",12.05,100,1014.83,37.29,53.24,182.68],
    [585,363171,"Vazduh","Libelium","0004A30B0021DF70",44.979,16.7091,"","","Prijedor","",15256090,"2022-10-28T01:47:34",3,"NO ERROR",11.81,100,1015,26.36,35.28,72.56],
    [586,363171,"Vazduh","Libelium","0004A30B0021DF70",44.979,16.7091,"","","Prijedor","",15257333,"2022-10-28T02:48:16",3,"NO ERROR",11.77,100,1014.91,13.66,20.48,175.56],
    [587,363171,"Vazduh","Libelium","0004A30B0021DF70",44.979,16.7091,"","","Prijedor","",15258570,"2022-10-28T03:48:58",3,"NO ERROR",11.61,100,1014.68,19.76,33.82,341.26],
    [588,363171,"Vazduh","Libelium","0004A30B0021DF70",44.979,16.7091,"","","Prijedor","",15259846,"2022-10-28T04:49:41",3,"NO ERROR",11.77,100,1014.58,31.79,54.26,276.93],
    [589,363171,"Vazduh","Libelium","0004A30B0021DF70",44.979,16.7091,"","","Prijedor","",15261131,"2022-10-28T05:50:23",3,"NO ERROR",11.67,100,1014.57,19.43,28.7,171.88],
    [590,363171,"Vazduh","Libelium","0004A30B0021DF70",44.979,16.7091,"","","Prijedor","",15262378,"2022-10-28T06:51:05",3,"NO ERROR",11.32,100,1014.4,22.98,34.56,86.54],
    [591,363171,"Vazduh","Libelium","0004A30B0021DF70",44.979,16.7091,"","","Prijedor","",15263058,"2022-10-28T07:51:47",3,"NO ERROR",11.13,100,1014.48,63.53,85.19,164.14],
    [592,363171,"Vazduh","Libelium","0004A30B0021DF70",44.979,16.7091,"","","Prijedor","",15263610,"2022-10-28T08:52:29",3,"NO ERROR",11.48,100,1014.92,4.54,6.45,34.65],
    [593,363171,"Vazduh","Libelium","0004A30B0021DF70",44.979,16.7091,"","","Prijedor","",15264178,"2022-10-28T09:53:11",3,"NO ERROR",12.15,100,1015.36,2.63,3.7,4.41],
    [594,363171,"Vazduh","Libelium","0004A30B0021DF70",44.979,16.7091,"","","Prijedor","",15264723,"2022-10-28T10:53:53",3,"NO ERROR",12.91,100,1015.26,0.88,1.05,1.05],
    [595,363171,"Vazduh","Libelium","0004A30B0021DF70",44.979,16.7091,"","","Prijedor","",15265286,"2022-10-28T11:54:35",3,"NO ERROR",13.8,100,1015.16,0.54,0.7,0.7],
    [596,363171,"Vazduh","Libelium","0004A30B0021DF70",44.979,16.7091,"","","Prijedor","",15265852,"2022-10-28T12:55:17",3,"NO ERROR",14.43,100,1014.63,0.55,0.63,0.63],
    [597,363171,"Vazduh","Libelium","0004A30B0021DF70",44.979,16.7091,"","","Prijedor","",15266416,"2022-10-28T13:55:59",3,"NO ERROR",17.82,100,1013.88,0.7,1.06,1.12],
    [598,363171,"Vazduh","Libelium","0004A30B0021DF70",44.979,16.7091,"","","Prijedor","",15266991,"2022-10-28T14:56:41",3,"NO ERROR",22.88,76.8,1013.07,0.37,0.51,0.52],
    [599,363171,"Vazduh","Libelium","0004A30B0021DF70",44.979,16.7091,"","","Prijedor","",15267597,"2022-10-28T15:57:23",3,"NO ERROR",23.92,70.4,1012.66,0.71,1.09,1.19],
    [600,363171,"Vazduh","Libelium","0004A30B0021DF70",44.979,16.7091,"","","Prijedor","",15268141,"2022-10-28T16:58:05",3,"NO ERROR",17.53,98.2,1012.7,0.74,0.95,0.97],
    [601,363171,"Vazduh","Libelium","0004A30B0021DF70",44.979,16.7091,"","","Prijedor","",15268830,"2022-10-28T17:58:48",3,"NO ERROR",14.7,100,1012.82,4.93,5.88,6.29],
    [602,363171,"Vazduh","Libelium","0004A30B0021DF70",44.979,16.7091,"","","Prijedor","",15271549,"2022-10-28T18:59:30",3,"NO ERROR",13.24,100,1013.39,5.9,6.96,6.98],
    [603,363171,"Vazduh","Libelium","0004A30B0021DF70",44.979,16.7091,"","","Prijedor","",15273266,"2022-10-28T20:00:18",3,"NO ERROR",12.68,100,1013.1,5.89,6.9,6.94],
    [604,363171,"Vazduh","Libelium","0004A30B0021DF70",44.979,16.7091,"","","Prijedor","",15274767,"2022-10-28T21:01:00",3,"NO ERROR",11.28,100,1013.39,12.11,19.47,231.93],
    [605,363171,"Vazduh","Libelium","0004A30B0021DF70",44.979,16.7091,"","","Prijedor","",15276123,"2022-10-28T22:01:42",3,"NO ERROR",11.07,100,1013.64,68.67,117.02,732.56],
    [606,363171,"Vazduh","Libelium","0004A30B0021DF70",44.979,16.7091,"","","Prijedor","",15277392,"2022-10-28T23:02:24",3,"NO ERROR",10.61,100,1014.05,4.9,6.05,45.84],
    [607,363171,"Vazduh","Libelium","0004A30B0021DF70",44.979,16.7091,"","","Prijedor","",15278830,"2022-10-29T00:03:06",3,"NO ERROR",10.65,100,1013.96,26.16,41.96,238.42],
    [608,363171,"Vazduh","Libelium","0004A30B0021DF70",44.979,16.7091,"","","Prijedor","",15280398,"2022-10-29T01:03:48",3,"NO ERROR",11.1,100,1013.68,36.83,62.71,855.69],
    [609,363171,"Vazduh","Libelium","0004A30B0021DF70",44.979,16.7091,"","","Prijedor","",15281780,"2022-10-29T02:04:30",3,"NO ERROR",11.15,100,1013.39,25.17,39.44,257.47],
    [610,363171,"Vazduh","Libelium","0004A30B0021DF70",44.979,16.7091,"","","Prijedor","",15283168,"2022-10-29T03:05:12",3,"NO ERROR",10.7,100,1013.42,40.04,63.14,335.01],
    [611,363171,"Vazduh","Libelium","0004A30B0021DF70",44.979,16.7091,"","","Prijedor","",15284568,"2022-10-29T04:05:55",3,"NO ERROR",10.76,100,1012.98,30.18,46.9,192.8],
    [612,363171,"Vazduh","Libelium","0004A30B0021DF70",44.979,16.7091,"","","Prijedor","",15285898,"2022-10-29T05:06:37",3,"NO ERROR",10.5,100,1012.91,21.07,31.19,67.43],
    [613,363171,"Vazduh","Libelium","0004A30B0021DF70",44.979,16.7091,"","","Prijedor","",15287281,"2022-10-29T06:07:19",3,"NO ERROR",10.41,100,1012.8,18.16,32.24,322],
    [614,363171,"Vazduh","Libelium","0004A30B0021DF70",44.979,16.7091,"","","Prijedor","",15288571,"2022-10-29T07:08:01",3,"NO ERROR",10.3,100,1013.13,14.19,26.6,466.51],
    [615,363171,"Vazduh","Libelium","0004A30B0021DF70",44.979,16.7091,"","","Prijedor","",15289258,"2022-10-29T08:08:43",3,"NO ERROR",9.99,100,1013.24,26.18,37.64,115.17],
    [616,363171,"Vazduh","Libelium","0004A30B0021DF70",44.979,16.7091,"","","Prijedor","",15289953,"2022-10-29T09:09:25",3,"NO ERROR",10.25,100,1013.45,12.26,20.9,218.28],
    [617,363171,"Vazduh","Libelium","0004A30B0021DF70",44.979,16.7091,"","","Prijedor","",15290554,"2022-10-29T10:10:07",3,"NO ERROR",11.45,100,1013.28,3.01,3.73,3.74],
    [618,363171,"Vazduh","Libelium","0004A30B0021DF70",44.979,16.7091,"","","Prijedor","",15291129,"2022-10-29T11:10:49",3,"NO ERROR",12.46,100,1013.09,2.37,2.68,2.69],
    [619,363171,"Vazduh","Libelium","0004A30B0021DF70",44.979,16.7091,"","","Prijedor","",15291760,"2022-10-29T12:11:31",3,"NO ERROR",13.73,100,1012.74,2.99,3.4,3.4],
    [620,363171,"Vazduh","Libelium","0004A30B0021DF70",44.979,16.7091,"","","Prijedor","",15292335,"2022-10-29T13:12:13",3,"NO ERROR",14.89,100,1011.84,1.49,1.74,1.74],
    [621,363171,"Vazduh","Libelium","0004A30B0021DF70",44.979,16.7091,"","","Prijedor","",15292948,"2022-10-29T14:12:55",3,"NO ERROR",20.18,78.8,1011.08,0.79,1.09,1.47],
    [622,363171,"Vazduh","Libelium","0004A30B0021DF70",44.979,16.7091,"","","Prijedor","",15293553,"2022-10-29T15:13:38",3,"NO ERROR",25.32,61.1,1010.26,1.03,1.37,1.97],
    [623,363171,"Vazduh","Libelium","0004A30B0021DF70",44.979,16.7091,"","","Prijedor","",15294158,"2022-10-29T16:14:26",3,"NO ERROR",23.96,61.3,1009.99,0.74,1.07,1.18],
    [624,363171,"Vazduh","Libelium","0004A30B0021DF70",44.979,16.7091,"","","Prijedor","",15294752,"2022-10-29T17:15:08",3,"NO ERROR",18.32,89.2,1009.86,2.32,2.89,3.03],
    [625,363171,"Vazduh","Libelium","0004A30B0021DF70",44.979,16.7091,"","","Prijedor","",15296392,"2022-10-29T18:15:50",3,"NO ERROR",15.27,100,1009.92,2.2,2.5,2.51],
    [626,363171,"Vazduh","Libelium","0004A30B0021DF70",44.979,16.7091,"","","Prijedor","",15298112,"2022-10-29T19:16:32",3,"NO ERROR",14.12,100,1010.19,4.33,4.81,4.83],
    [627,363171,"Vazduh","Libelium","0004A30B0021DF70",44.979,16.7091,"","","Prijedor","",15299456,"2022-10-29T20:17:14",3,"NO ERROR",12.49,100,1010.65,4.96,6.02,6.16],
    [628,363171,"Vazduh","Libelium","0004A30B0021DF70",44.979,16.7091,"","","Prijedor","",15300811,"2022-10-29T21:17:56",3,"NO ERROR",11.25,100,1010.5,4.39,5.2,5.46],
    [629,363171,"Vazduh","Libelium","0004A30B0021DF70",44.979,16.7091,"","","Prijedor","",15302208,"2022-10-29T22:18:38",3,"NO ERROR",10.89,100,1010.5,5.41,6.8,7.22],
    [630,363171,"Vazduh","Libelium","0004A30B0021DF70",44.979,16.7091,"","","Prijedor","",15303507,"2022-10-29T23:19:20",3,"NO ERROR",9.47,100,1010.48,8.67,10.38,10.4],
    [631,363171,"Vazduh","Libelium","0004A30B0021DF70",44.979,16.7091,"","","Prijedor","",15305081,"2022-10-30T00:20:08",3,"NO ERROR",9.26,100,1010.3,37.25,45.23,45.63],
    [632,363171,"Vazduh","Libelium","0004A30B0021DF70",44.979,16.7091,"","","Prijedor","",15306397,"2022-10-30T01:20:50",3,"NO ERROR",9.02,100,1009.97,69.77,96.22,534.89],
    [633,363171,"Vazduh","Libelium","0004A30B0021DF70",44.979,16.7091,"","","Prijedor","",15309216,"2022-10-30T02:22:15",3,"NO ERROR",9.21,100,1009.59,75.48,108.8,300.79],
    [634,363171,"Vazduh","Libelium","0004A30B0021DF70",44.979,16.7091,"","","Prijedor","",15307732,"2022-10-30T02:21:32",3,"NO ERROR",9.24,100,1010.02,64.8,92.98,467.99],
    [635,363171,"Vazduh","Libelium","0004A30B0021DF70",44.979,16.7091,"","","Prijedor","",15310578,"2022-10-30T03:22:57",3,"NO ERROR",8.98,100,1009.36,33.37,53.82,371.65],
    [636,363171,"Vazduh","Libelium","0004A30B0021DF70",44.979,16.7091,"","","Prijedor","",15311911,"2022-10-30T04:23:39",3,"NO ERROR",8.46,100,1009.21,28.93,50.86,433.89],
    [637,363171,"Vazduh","Libelium","0004A30B0021DF70",44.979,16.7091,"","","Prijedor","",15313248,"2022-10-30T05:24:21",3,"NO ERROR",7.89,100,1009.12,12.43,20.28,107.66],
    [638,363171,"Vazduh","Libelium","0004A30B0021DF70",44.979,16.7091,"","","Prijedor","",15314320,"2022-10-30T06:25:03",3,"NO ERROR",7.59,100,1009.07,24.11,38.78,448.19],
    [639,363171,"Vazduh","Libelium","0004A30B0021DF70",44.979,16.7091,"","","Prijedor","",15315051,"2022-10-30T07:25:45",3,"NO ERROR",7.66,100,1009.27,5.55,12.43,207.89],
    [640,363171,"Vazduh","Libelium","0004A30B0021DF70",44.979,16.7091,"","","Prijedor","",15315741,"2022-10-30T08:26:27",3,"NO ERROR",8.81,100,1009.34,2.19,3.03,8.23],
    [641,363171,"Vazduh","Libelium","0004A30B0021DF70",44.979,16.7091,"","","Prijedor","",15316403,"2022-10-30T09:27:09",3,"NO ERROR",11.07,100,1009.38,1.67,1.95,1.95],
    [642,363171,"Vazduh","Libelium","0004A30B0021DF70",44.979,16.7091,"","","Prijedor","",15317007,"2022-10-30T10:27:51",3,"NO ERROR",14.07,100,1009.05,0.81,0.94,0.95],
    [643,363171,"Vazduh","Libelium","0004A30B0021DF70",44.979,16.7091,"","","Prijedor","",15317658,"2022-10-30T11:28:33",3,"NO ERROR",17.03,86.6,1008.56,0.84,1.07,1.08],
    [644,363171,"Vazduh","Libelium","0004A30B0021DF70",44.979,16.7091,"","","Prijedor","",15318273,"2022-10-30T12:29:16",3,"NO ERROR",20.4,66.7,1007.81,0.74,0.95,0.96],
    [645,363171,"Vazduh","Libelium","0004A30B0021DF70",44.979,16.7091,"","","Prijedor","",15318860,"2022-10-30T13:29:58",3,"NO ERROR",22.83,54.4,1007.09,0.53,0.65,0.66],
    [646,363171,"Vazduh","Libelium","0004A30B0021DF70",44.979,16.7091,"","","Prijedor","",15319409,"2022-10-30T14:30:40",3,"NO ERROR",27.22,47,1006.64,0.71,0.85,0.87],
    [647,363171,"Vazduh","Libelium","0004A30B0021DF70",44.979,16.7091,"","","Prijedor","",15319993,"2022-10-30T15:31:22",3,"NO ERROR",22.99,57.3,1006.67,0.37,0.46,0.46],
    [648,363171,"Vazduh","Libelium","0004A30B0021DF70",44.979,16.7091,"","","Prijedor","",15320570,"2022-10-30T16:32:04",3,"NO ERROR",19.56,77,1006.61,0.65,0.85,0.86],
    [649,363171,"Vazduh","Libelium","0004A30B0021DF70",44.979,16.7091,"","","Prijedor","",15323260,"2022-10-30T17:32:46",3,"NO ERROR",16.44,95.4,1006.92,2.88,3.49,3.5],
    [650,363171,"Vazduh","Libelium","0004A30B0021DF70",44.979,16.7091,"","","Prijedor","",15325702,"2022-10-30T18:33:28",3,"NO ERROR",14.92,100,1007.43,4.25,4.93,5.34],
    [651,363171,"Vazduh","Libelium","0004A30B0021DF70",44.979,16.7091,"","","Prijedor","",15327497,"2022-10-30T19:34:10",3,"NO ERROR",13.34,100,1007.64,2.71,3.7,3.99],
    [652,363171,"Vazduh","Libelium","0004A30B0021DF70",44.979,16.7091,"","","Prijedor","",15328950,"2022-10-30T20:34:52",3,"NO ERROR",12.13,100,1007.69,2.68,3.15,3.26],
    [653,363171,"Vazduh","Libelium","0004A30B0021DF70",44.979,16.7091,"","","Prijedor","",15330257,"2022-10-30T21:35:34",3,"NO ERROR",11.21,100,1007.94,4.31,5.33,5.39],
    [654,363171,"Vazduh","Libelium","0004A30B0021DF70",44.979,16.7091,"","","Prijedor","",15331502,"2022-10-30T22:36:16",3,"NO ERROR",10.29,100,1008.03,2.73,3.24,3.34],
    [655,363171,"Vazduh","Libelium","0004A30B0021DF70",44.979,16.7091,"","","Prijedor","",15332806,"2022-10-30T23:36:58",3,"NO ERROR",9.53,100,1008.19,3.9,4.6,4.61],
    [656,363171,"Vazduh","Libelium","0004A30B0021DF70",44.979,16.7091,"","","Prijedor","",15334513,"2022-10-31T00:37:41",3,"NO ERROR",8.95,100,1008.14,5,5.84,5.86],
    [657,363171,"Vazduh","Libelium","0004A30B0021DF70",44.979,16.7091,"","","Prijedor","",15335954,"2022-10-31T01:38:23",3,"NO ERROR",8.08,100,1008.11,17.84,22.16,22.77],
    [658,363171,"Vazduh","Libelium","0004A30B0021DF70",44.979,16.7091,"","","Prijedor","",15337310,"2022-10-31T02:39:05",3,"NO ERROR",8.25,100,1008.05,36.66,47.18,89.06],
    [659,363171,"Vazduh","Libelium","0004A30B0021DF70",44.979,16.7091,"","","Prijedor","",15338660,"2022-10-31T03:39:47",3,"NO ERROR",8.27,100,1007.85,59.86,79,116.25],
    [660,363171,"Vazduh","Libelium","0004A30B0021DF70",44.979,16.7091,"","","Prijedor","",15340056,"2022-10-31T04:40:29",3,"NO ERROR",7.92,100,1008.18,21.63,31.59,251.42],
    [661,363171,"Vazduh","Libelium","0004A30B0021DF70",44.979,16.7091,"","","Prijedor","",15341469,"2022-10-31T05:41:11",3,"NO ERROR",7.7,100,1008.12,42.84,65.8,420.27],
    [662,363171,"Vazduh","Libelium","0004A30B0021DF70",44.979,16.7091,"","","Prijedor","",15342403,"2022-10-31T06:41:53",3,"NO ERROR",7.59,100,1008.4,23.91,34.93,270.03],
    [663,363171,"Vazduh","Libelium","0004A30B0021DF70",44.979,16.7091,"","","Prijedor","",15343066,"2022-10-31T07:42:35",3,"NO ERROR",8.11,100,1008.7,16.29,23.68,63.33],
    [664,363171,"Vazduh","Libelium","0004A30B0021DF70",44.979,16.7091,"","","Prijedor","",15343686,"2022-10-31T08:43:17",3,"NO ERROR",10.29,100,1008.89,13.58,16.64,16.73],
    [665,363171,"Vazduh","Libelium","0004A30B0021DF70",44.979,16.7091,"","","Prijedor","",15344310,"2022-10-31T09:43:59",3,"NO ERROR",13.21,100,1008.64,2.02,2.39,2.4],
    [666,363171,"Vazduh","Libelium","0004A30B0021DF70",44.979,16.7091,"","","Prijedor","",15344934,"2022-10-31T10:44:48",3,"NO ERROR",16.27,87.5,1008.22,1.44,1.8,1.93],
    [667,363171,"Vazduh","Libelium","0004A30B0021DF70",44.979,16.7091,"","","Prijedor","",15345551,"2022-10-31T11:45:30",3,"NO ERROR",19.94,68,1007.58,1.02,1.44,1.66],
    [668,363171,"Vazduh","Libelium","0004A30B0021DF70",44.979,16.7091,"","","Prijedor","",15346180,"2022-10-31T12:46:12",3,"NO ERROR",23.67,55.2,1006.89,2.06,3.32,5.77],
    [669,363171,"Vazduh","Libelium","0004A30B0021DF70",44.979,16.7091,"","","Prijedor","",15346776,"2022-10-31T13:46:54",3,"NO ERROR",26.5,48.1,1006.26,1.23,1.85,2.01],
    [670,363171,"Vazduh","Libelium","0004A30B0021DF70",44.979,16.7091,"","","Prijedor","",15347358,"2022-10-31T14:47:36",3,"NO ERROR",28.32,48.9,1005.81,1.66,2.35,2.4],
    [671,363171,"Vazduh","Libelium","0004A30B0021DF70",44.979,16.7091,"","","Prijedor","",15347926,"2022-10-31T15:48:24",3,"NO ERROR",22.99,62.9,1005.76,0.95,1.39,1.42],
    [672,363171,"Vazduh","Libelium","0004A30B0021DF70",44.979,16.7091,"","","Prijedor","",15348515,"2022-10-31T16:49:06",3,"NO ERROR",19.64,82.2,1005.88,2.17,2.56,2.61],
    [673,363171,"Vazduh","Libelium","0004A30B0021DF70",44.979,16.7091,"","","Prijedor","",15351757,"2022-10-31T17:49:48",3,"NO ERROR",16.97,95.5,1006.36,3,4.05,8.38],
    [674,363171,"Vazduh","Libelium","0004A30B0021DF70",44.979,16.7091,"","","Prijedor","",15353690,"2022-10-31T18:50:30",3,"NO ERROR",15.13,100,1006.69,2.09,2.95,3.2],
    [675,363171,"Vazduh","Libelium","0004A30B0021DF70",44.979,16.7091,"","","Prijedor","",15355198,"2022-10-31T19:51:12",3,"NO ERROR",13.56,100,1006.85,2.86,3.77,3.94],
    [676,363171,"Vazduh","Libelium","0004A30B0021DF70",44.979,16.7091,"","","Prijedor","",15356456,"2022-10-31T20:51:54",3,"NO ERROR",12.54,100,1007.03,2.75,3.81,4.45],
    [677,363171,"Vazduh","Libelium","0004A30B0021DF70",44.979,16.7091,"","","Prijedor","",15357662,"2022-10-31T21:52:36",3,"NO ERROR",11.65,100,1007.21,2.92,3.75,3.9],
    [678,363171,"Vazduh","Libelium","0004A30B0021DF70",44.979,16.7091,"","","Prijedor","",15358904,"2022-10-31T22:53:18",3,"NO ERROR",10.6,100,1007.32,2,2.88,3.58],
    [679,363171,"Vazduh","Libelium","0004A30B0021DF70",44.979,16.7091,"","","Prijedor","",15360119,"2022-10-31T23:54:01",3,"NO ERROR",10.19,100,1007.29,3.57,4.57,5.1],
    [680,363171,"Vazduh","Libelium","0004A30B0021DF70",44.979,16.7091,"","","Prijedor","",15361689,"2022-11-01T00:54:43",3,"NO ERROR",9.25,100,1007.05,2.17,2.91,3.17],
    [681,363171,"Vazduh","Libelium","0004A30B0021DF70",44.979,16.7091,"","","Prijedor","",15362977,"2022-11-01T01:55:25",3,"NO ERROR",8.08,100,1007.16,12.49,17.16,22.45],
    [682,363171,"Vazduh","Libelium","0004A30B0021DF70",44.979,16.7091,"","","Prijedor","",15364261,"2022-11-01T02:56:07",3,"NO ERROR",7.77,100,1006.96,7.4,9.29,25.33],
    [683,363171,"Vazduh","Libelium","0004A30B0021DF70",44.979,16.7091,"","","Prijedor","",15365504,"2022-11-01T03:56:49",3,"NO ERROR",7.34,100,1007.01,38.25,50.23,96.7],
    [684,363171,"Vazduh","Libelium","0004A30B0021DF70",44.979,16.7091,"","","Prijedor","",15366726,"2022-11-01T04:57:31",3,"NO ERROR",7.2,100,1007.15,27.59,36.13,352.9],
    [685,363171,"Vazduh","Libelium","0004A30B0021DF70",44.979,16.7091,"","","Prijedor","",15367980,"2022-11-01T05:58:13",3,"NO ERROR",6.96,100,1007.04,11.06,14.77,43.4],
    [686,363171,"Vazduh","Libelium","0004A30B0021DF70",44.979,16.7091,"","","Prijedor","",15368655,"2022-11-01T06:58:55",3,"NO ERROR",6.86,100,1007.43,12.57,20.83,187.32],
    [687,363171,"Vazduh","Libelium","0004A30B0021DF70",44.979,16.7091,"","","Prijedor","",15369225,"2022-11-01T07:59:37",3,"NO ERROR",8.54,100,1007.84,6.33,8.25,8.89],
    [688,363171,"Vazduh","Libelium","0004A30B0021DF70",44.979,16.7091,"","","Prijedor","",15369778,"2022-11-01T09:00:19",3,"NO ERROR",11.7,100,1007.59,1.19,1.48,1.52],
    [689,363171,"Vazduh","Libelium","0004A30B0021DF70",44.979,16.7091,"","","Prijedor","",15370330,"2022-11-01T10:01:02",3,"NO ERROR",15.48,91.1,1007.22,2.13,2.66,2.67],
    [690,363171,"Vazduh","Libelium","0004A30B0021DF70",44.979,16.7091,"","","Prijedor","",15370913,"2022-11-01T11:01:44",3,"NO ERROR",19.12,73,1006.68,1.74,2.35,3.07],
    [691,363171,"Vazduh","Libelium","0004A30B0021DF70",44.979,16.7091,"","","Prijedor","",15371468,"2022-11-01T12:02:26",3,"NO ERROR",22.7,60,1005.81,2.13,3.09,3.66],
    [692,363171,"Vazduh","Libelium","0004A30B0021DF70",44.979,16.7091,"","","Prijedor","",15372024,"2022-11-01T13:03:08",3,"NO ERROR",27.22,49.9,1005.15,1.57,2.34,2.6],
    [693,363171,"Vazduh","Libelium","0004A30B0021DF70",44.979,16.7091,"","","Prijedor","",15372576,"2022-11-01T14:03:50",3,"NO ERROR",29.64,43.2,1004.45,1.92,2.86,3.35],
    [694,363171,"Vazduh","Libelium","0004A30B0021DF70",44.979,16.7091,"","","Prijedor","",15373150,"2022-11-01T15:04:32",3,"NO ERROR",30.6,39.7,1004.09,1.29,1.8,1.92],
    [695,363171,"Vazduh","Libelium","0004A30B0021DF70",44.979,16.7091,"","","Prijedor","",15373711,"2022-11-01T16:05:14",3,"NO ERROR",23.36,55.3,1004.25,2.44,3.67,4.54],
    [696,363171,"Vazduh","Libelium","0004A30B0021DF70",44.979,16.7091,"","","Prijedor","",15375212,"2022-11-01T17:05:56",3,"NO ERROR",19.58,71.9,1004.63,2.45,3.31,3.37],
    [697,363171,"Vazduh","Libelium","0004A30B0021DF70",44.979,16.7091,"","","Prijedor","",15378191,"2022-11-01T18:06:38",3,"NO ERROR",16.4,86.9,1005.48,3.34,4.53,4.83],
    [698,363171,"Vazduh","Libelium","0004A30B0021DF70",44.979,16.7091,"","","Prijedor","",15380109,"2022-11-01T19:07:20",3,"NO ERROR",14.45,100,1005.99,2.12,2.85,3.01],
    [699,363171,"Vazduh","Libelium","0004A30B0021DF70",44.979,16.7091,"","","Prijedor","",15381590,"2022-11-01T20:08:02",3,"NO ERROR",12.8,100,1006.35,1.87,2.57,2.71],
    [700,363171,"Vazduh","Libelium","0004A30B0021DF70",44.979,16.7091,"","","Prijedor","",15382965,"2022-11-01T21:08:45",3,"NO ERROR",11.58,100,1006.54,2.09,2.7,2.86],
    [701,363171,"Vazduh","Libelium","0004A30B0021DF70",44.979,16.7091,"","","Prijedor","",15384241,"2022-11-01T22:09:27",3,"NO ERROR",10.46,100,1006.93,1.74,2.62,3.11],
    [702,363171,"Vazduh","Libelium","0004A30B0021DF70",44.979,16.7091,"","","Prijedor","",15385519,"2022-11-01T23:10:09",3,"NO ERROR",8.48,100,1007.17,1.08,1.39,1.41],
    [703,363171,"Vazduh","Libelium","0004A30B0021DF70",44.979,16.7091,"","","Prijedor","",15386948,"2022-11-02T00:10:51",3,"NO ERROR",8.26,100,1007.27,1.57,1.93,1.95],
    [704,363171,"Vazduh","Libelium","0004A30B0021DF70",44.979,16.7091,"","","Prijedor","",15388323,"2022-11-02T01:11:33",3,"NO ERROR",7.2,100,1007.6,1.48,2.23,2.45],
    [705,363171,"Vazduh","Libelium","0004A30B0021DF70",44.979,16.7091,"","","Prijedor","",15389637,"2022-11-02T02:12:15",3,"NO ERROR",7.35,100,1007.81,1.35,1.75,1.78],
    [706,363171,"Vazduh","Libelium","0004A30B0021DF70",44.979,16.7091,"","","Prijedor","",15390975,"2022-11-02T03:12:57",3,"NO ERROR",6.71,100,1007.82,0.95,1.34,1.34],
    [707,363171,"Vazduh","Libelium","0004A30B0021DF70",44.979,16.7091,"","","Prijedor","",15392224,"2022-11-02T04:13:39",3,"NO ERROR",6.68,100,1008.07,0.33,0.44,0.45],
    [708,363171,"Vazduh","Libelium","0004A30B0021DF70",44.979,16.7091,"","","Prijedor","",15393323,"2022-11-02T05:14:21",3,"NO ERROR",7.64,100,1007.97,1.58,2,2.02],
    [709,363171,"Vazduh","Libelium","0004A30B0021DF70",44.979,16.7091,"","","Prijedor","",15394458,"2022-11-02T06:15:03",3,"NO ERROR",7.84,100,1008.23,0.9,1.46,1.63],
    [710,363171,"Vazduh","Libelium","0004A30B0021DF70",44.979,16.7091,"","","Prijedor","",15395067,"2022-11-02T07:15:46",3,"NO ERROR",7.73,100,1008.81,0.97,1.46,1.51],
    [711,363171,"Vazduh","Libelium","0004A30B0021DF70",44.979,16.7091,"","","Prijedor","",15395653,"2022-11-02T08:16:28",3,"NO ERROR",13.47,84.5,1009.41,1.64,2.37,7.44],
    [712,363171,"Vazduh","Libelium","0004A30B0021DF70",44.979,16.7091,"","","Prijedor","",15396209,"2022-11-02T09:17:10",3,"NO ERROR",13.02,91.2,1009.39,2.08,3.08,3.19],
    [713,363171,"Vazduh","Libelium","0004A30B0021DF70",44.979,16.7091,"","","Prijedor","",15396754,"2022-11-02T10:17:52",3,"NO ERROR",16.12,80,1008.97,1.35,2.18,2.48],
    [714,363171,"Vazduh","Libelium","0004A30B0021DF70",44.979,16.7091,"","","Prijedor","",15397341,"2022-11-02T11:18:34",3,"NO ERROR",18.8,62.7,1008.51,0.94,1.21,1.22],
    [715,363171,"Vazduh","Libelium","0004A30B0021DF70",44.979,16.7091,"","","Prijedor","",15397926,"2022-11-02T12:19:16",3,"NO ERROR",22,54.8,1007.99,0.93,1.34,1.47],
    [716,363171,"Vazduh","Libelium","0004A30B0021DF70",44.979,16.7091,"","","Prijedor","",15398498,"2022-11-02T13:19:58",3,"NO ERROR",23.42,52.6,1007.32,0.55,0.8,0.88],
    [717,363171,"Vazduh","Libelium","0004A30B0021DF70",44.979,16.7091,"","","Prijedor","",15399027,"2022-11-02T14:20:40",3,"NO ERROR",25.05,46.8,1007.08,0.94,1.27,1.67],
    [718,363171,"Vazduh","Libelium","0004A30B0021DF70",44.979,16.7091,"","","Prijedor","",15399618,"2022-11-02T15:21:22",3,"NO ERROR",23.72,51.6,1006.97,1.06,1.51,2.02],
    [719,363171,"Vazduh","Libelium","0004A30B0021DF70",44.979,16.7091,"","","Prijedor","",15400186,"2022-11-02T16:22:04",3,"NO ERROR",18.74,70.3,1007.07,1.29,1.84,1.99],
    [720,363171,"Vazduh","Libelium","0004A30B0021DF70",44.979,16.7091,"","","Prijedor","",15402646,"2022-11-02T17:22:46",3,"NO ERROR",18.11,77,1007.32,0.97,1.47,1.52],
    [721,363171,"Vazduh","Libelium","0004A30B0021DF70",44.979,16.7091,"","","Prijedor","",15405209,"2022-11-02T18:23:28",3,"NO ERROR",17.58,84.2,1007.92,1.82,2.44,4.4],
    [722,363171,"Vazduh","Libelium","0004A30B0021DF70",44.979,16.7091,"","","Prijedor","",15406942,"2022-11-02T19:24:11",3,"NO ERROR",16.63,83.6,1008.29,3.01,3.87,4.03],
    [723,363171,"Vazduh","Libelium","0004A30B0021DF70",44.979,16.7091,"","","Prijedor","",15408379,"2022-11-02T20:24:53",3,"NO ERROR",16.15,83.4,1008.55,1.51,2.09,2.13],
    [724,363171,"Vazduh","Libelium","0004A30B0021DF70",44.979,16.7091,"","","Prijedor","",15409709,"2022-11-02T21:25:35",3,"NO ERROR",15.04,92.1,1008.7,3.24,4.02,4.03],
    [725,363171,"Vazduh","Libelium","0004A30B0021DF70",44.979,16.7091,"","","Prijedor","",15410988,"2022-11-02T22:26:17",3,"NO ERROR",13.1,100,1008.82,1.51,1.86,1.88],
    [726,363171,"Vazduh","Libelium","0004A30B0021DF70",44.979,16.7091,"","","Prijedor","",15412234,"2022-11-02T23:26:59",3,"NO ERROR",12.34,100,1008.55,2.57,3.24,3.26],
    [727,363171,"Vazduh","Libelium","0004A30B0021DF70",44.979,16.7091,"","","Prijedor","",15413703,"2022-11-03T00:27:41",3,"NO ERROR",11.03,100,1008.63,3.61,4.46,4.49],
    [728,363171,"Vazduh","Libelium","0004A30B0021DF70",44.979,16.7091,"","","Prijedor","",15415089,"2022-11-03T01:28:23",3,"NO ERROR",10.81,100,1008.62,2.41,3.09,3.22],
    [729,363171,"Vazduh","Libelium","0004A30B0021DF70",44.979,16.7091,"","","Prijedor","",15416380,"2022-11-03T02:29:05",3,"NO ERROR",9.98,100,1008.52,3.24,4.1,4.56],
    [730,363171,"Vazduh","Libelium","0004A30B0021DF70",44.979,16.7091,"","","Prijedor","",15417736,"2022-11-03T03:29:47",3,"NO ERROR",8.89,100,1008.45,9.2,11.37,11.42],
    [731,363171,"Vazduh","Libelium","0004A30B0021DF70",44.979,16.7091,"","","Prijedor","",15419034,"2022-11-03T04:30:29",3,"NO ERROR",8.65,100,1008.26,16.17,21.54,70.95],
    [732,363171,"Vazduh","Libelium","0004A30B0021DF70",44.979,16.7091,"","","Prijedor","",15420360,"2022-11-03T05:31:11",3,"NO ERROR",8.79,100,1008.24,18.73,24.15,31.26],
    [733,363171,"Vazduh","Libelium","0004A30B0021DF70",44.979,16.7091,"","","Prijedor","",15421390,"2022-11-03T06:31:53",3,"NO ERROR",8.59,100,1007.98,23.63,31.3,31.77],
    [734,363171,"Vazduh","Libelium","0004A30B0021DF70",44.979,16.7091,"","","Prijedor","",15422047,"2022-11-03T07:32:36",3,"NO ERROR",8.88,100,1008.17,13.84,27.27,335.97],
    [735,363171,"Vazduh","Libelium","0004A30B0021DF70",44.979,16.7091,"","","Prijedor","",15422632,"2022-11-03T08:33:18",3,"NO ERROR",9.64,100,1008.26,21.33,28.08,84.68],
    [736,363171,"Vazduh","Libelium","0004A30B0021DF70",44.979,16.7091,"","","Prijedor","",15423185,"2022-11-03T09:34:00",3,"NO ERROR",11.04,100,1007.67,1.72,2,2.01],
    [737,363171,"Vazduh","Libelium","0004A30B0021DF70",44.979,16.7091,"","","Prijedor","",15423758,"2022-11-03T10:34:42",3,"NO ERROR",13.38,100,1007.06,1.32,1.58,1.58],
    [738,363171,"Vazduh","Libelium","0004A30B0021DF70",44.979,16.7091,"","","Prijedor","",15424328,"2022-11-03T11:35:24",3,"NO ERROR",17.18,80.8,1005.87,1.19,1.47,1.48],
    [739,363171,"Vazduh","Libelium","0004A30B0021DF70",44.979,16.7091,"","","Prijedor","",15424870,"2022-11-03T12:36:12",3,"NO ERROR",19.08,72.7,1004.7,1.05,1.31,1.32],
    [740,363171,"Vazduh","Libelium","0004A30B0021DF70",44.979,16.7091,"","","Prijedor","",15425435,"2022-11-03T13:36:54",3,"NO ERROR",19.16,71.2,1003.71,0.95,1.32,1.44],
    [741,363171,"Vazduh","Libelium","0004A30B0021DF70",44.979,16.7091,"","","Prijedor","",15425993,"2022-11-03T14:37:36",3,"NO ERROR",23.1,59.1,1002.8,1.53,1.93,3.75],
    [742,363171,"Vazduh","Libelium","0004A30B0021DF70",44.979,16.7091,"","","Prijedor","",15426566,"2022-11-03T15:38:18",3,"NO ERROR",19.6,66.8,1002.33,1.54,2.04,2.22],
    [743,363171,"Vazduh","Libelium","0004A30B0021DF70",44.979,16.7091,"","","Prijedor","",15427123,"2022-11-03T16:39:00",3,"NO ERROR",17.86,75.8,1001.84,1.52,1.99,2.03],
    [744,363171,"Vazduh","Libelium","0004A30B0021DF70",44.979,16.7091,"","","Prijedor","",15429864,"2022-11-03T17:39:43",3,"NO ERROR",16.02,87.9,1001.63,3.93,5.68,10.31],
    [745,363171,"Vazduh","Libelium","0004A30B0021DF70",44.979,16.7091,"","","Prijedor","",15431788,"2022-11-03T18:40:25",3,"NO ERROR",14.49,100,1001.72,13.42,15.41,15.54],
    [746,363171,"Vazduh","Libelium","0004A30B0021DF70",44.979,16.7091,"","","Prijedor","",15433205,"2022-11-03T19:41:07",3,"NO ERROR",12.84,100,1001.06,4.55,5.47,5.49],
    [747,363171,"Vazduh","Libelium","0004A30B0021DF70",44.979,16.7091,"","","Prijedor","",15434525,"2022-11-03T20:41:49",3,"NO ERROR",12.09,100,1000.48,8.74,10.58,10.65],
    [748,363171,"Vazduh","Libelium","0004A30B0021DF70",44.979,16.7091,"","","Prijedor","",15435868,"2022-11-03T21:42:31",3,"NO ERROR",10.93,100,1000.07,3.93,4.83,4.96],
    [749,363171,"Vazduh","Libelium","0004A30B0021DF70",44.979,16.7091,"","","Prijedor","",15437190,"2022-11-03T22:43:13",3,"NO ERROR",10.5,100,999.43,4.36,5.31,5.43],
    [750,363171,"Vazduh","Libelium","0004A30B0021DF70",44.979,16.7091,"","","Prijedor","",15438478,"2022-11-03T23:43:55",3,"NO ERROR",9.86,100,998.68,4.76,5.87,5.91],
    [751,363171,"Vazduh","Libelium","0004A30B0021DF70",44.979,16.7091,"","","Prijedor","",15440138,"2022-11-04T00:44:37",3,"NO ERROR",9.1,100,998.13,2.26,2.7,2.71],
    [752,363171,"Vazduh","Libelium","0004A30B0021DF70",44.979,16.7091,"","","Prijedor","",15441563,"2022-11-04T01:45:19",3,"NO ERROR",7.97,100,997.52,65.7,98.93,288.39],
    [753,363171,"Vazduh","Libelium","0004A30B0021DF70",44.979,16.7091,"","","Prijedor","",15442965,"2022-11-04T02:46:01",3,"NO ERROR",8.41,100,996.39,7.58,9.09,9.11],
    [754,363171,"Vazduh","Libelium","0004A30B0021DF70",44.979,16.7091,"","","Prijedor","",15444370,"2022-11-04T03:46:43",3,"NO ERROR",9.03,100,995.47,5.26,6.36,6.5],
    [755,363171,"Vazduh","Libelium","0004A30B0021DF70",44.979,16.7091,"","","Prijedor","",15445708,"2022-11-04T04:47:26",3,"NO ERROR",8.66,100,994.91,4.29,5.32,5.34],
    [756,363171,"Vazduh","Libelium","0004A30B0021DF70",44.979,16.7091,"","","Prijedor","",15447029,"2022-11-04T05:48:08",3,"NO ERROR",8.99,100,994.2,3.07,3.67,3.68],
    [757,363171,"Vazduh","Libelium","0004A30B0021DF70",44.979,16.7091,"","","Prijedor","",15447922,"2022-11-04T06:48:50",3,"NO ERROR",8.99,100,994.1,2.66,3.38,3.66],
    [758,363171,"Vazduh","Libelium","0004A30B0021DF70",44.979,16.7091,"","","Prijedor","",15448510,"2022-11-04T07:49:32",3,"NO ERROR",10.46,100,994.06,3.4,4.42,5.06],
    [759,363171,"Vazduh","Libelium","0004A30B0021DF70",44.979,16.7091,"","","Prijedor","",15449114,"2022-11-04T08:50:14",3,"NO ERROR",10.93,100,993.28,5.16,6.39,6.44],
    [760,363171,"Vazduh","Libelium","0004A30B0021DF70",44.979,16.7091,"","","Prijedor","",15449723,"2022-11-04T09:51:02",3,"NO ERROR",11.72,100,992.49,2.39,3.09,3.1],
    [761,363171,"Vazduh","Libelium","0004A30B0021DF70",44.979,16.7091,"","","Prijedor","",15450292,"2022-11-04T10:51:44",3,"NO ERROR",13.68,100,991.52,1.9,2.42,2.43],
    [762,363171,"Vazduh","Libelium","0004A30B0021DF70",44.979,16.7091,"","","Prijedor","",15450864,"2022-11-04T11:52:26",3,"NO ERROR",16.01,100,990.29,1.18,1.41,1.41],
    [763,363171,"Vazduh","Libelium","0004A30B0021DF70",44.979,16.7091,"","","Prijedor","",15451762,"2022-11-04T12:53:08",3,"NO ERROR",17.94,93.6,989.35,0.96,1.16,1.16],
    [764,363171,"Vazduh","Libelium","0004A30B0021DF70",44.979,16.7091,"","","Prijedor","",15452806,"2022-11-04T13:53:50",3,"NO ERROR",19.02,81,988.28,0.65,0.76,0.76],
    [765,363171,"Vazduh","Libelium","0004A30B0021DF70",44.979,16.7091,"","","Prijedor","",15453515,"2022-11-04T14:54:32",3,"NO ERROR",18.95,80.1,988.52,0.64,0.76,0.77],
    [766,363171,"Vazduh","Libelium","0004A30B0021DF70",44.979,16.7091,"","","Prijedor","",15454199,"2022-11-04T15:55:15",3,"NO ERROR",15.65,100,989.44,1.73,2.05,2.07],
    [767,363171,"Vazduh","Libelium","0004A30B0021DF70",44.979,16.7091,"","","Prijedor","",15455366,"2022-11-04T16:55:57",3,"NO ERROR",13.65,100,990.81,0.93,1.13,1.14],
    [768,363171,"Vazduh","Libelium","0004A30B0021DF70",44.979,16.7091,"","","Prijedor","",15458491,"2022-11-04T17:56:39",3,"NO ERROR",13.58,100,991.4,9.2,11.13,11.2],
    [769,363171,"Vazduh","Libelium","0004A30B0021DF70",44.979,16.7091,"","","Prijedor","",15460535,"2022-11-04T18:57:21",3,"NO ERROR",12.92,100,990.4,2.51,3.03,3.04],
    [770,363171,"Vazduh","Libelium","0004A30B0021DF70",44.979,16.7091,"","","Prijedor","",15462185,"2022-11-04T19:58:03",3,"NO ERROR",12.82,100,990.98,0.28,0.32,0.32],
    [771,363171,"Vazduh","Libelium","0004A30B0021DF70",44.979,16.7091,"","","Prijedor","",15463604,"2022-11-04T20:58:45",3,"NO ERROR",12.25,100,989.44,0.53,0.65,0.68],
    [772,363171,"Vazduh","Libelium","0004A30B0021DF70",44.979,16.7091,"","","Prijedor","",15464976,"2022-11-04T21:59:27",3,"NO ERROR",12.35,100,989.57,0.55,0.59,0.59],
    [773,363171,"Vazduh","Libelium","0004A30B0021DF70",44.979,16.7091,"","","Prijedor","",15466291,"2022-11-04T23:00:09",3,"NO ERROR",12.11,100,988.59,1.07,1.17,1.17],
    [774,363171,"Vazduh","Libelium","0004A30B0021DF70",44.979,16.7091,"","","Prijedor","",15467824,"2022-11-05T00:00:51",3,"NO ERROR",12.42,100,991.99,0.46,0.54,0.54],
    [775,363171,"Vazduh","Libelium","0004A30B0021DF70",44.979,16.7091,"","","Prijedor","",15469331,"2022-11-05T01:01:34",3,"NO ERROR",12.04,100,992.57,1.8,2.13,2.24],
    [776,363171,"Vazduh","Libelium","0004A30B0021DF70",44.979,16.7091,"","","Prijedor","",15470674,"2022-11-05T02:02:16",3,"NO ERROR",11.87,100,992.99,3.39,3.56,3.56],
    [777,363171,"Vazduh","Libelium","0004A30B0021DF70",44.979,16.7091,"","","Prijedor","",15472009,"2022-11-05T03:02:58",3,"NO ERROR",9.85,100,985.95,1.07,1.15,1.15],
    [778,363171,"Vazduh","Libelium","0004A30B0021DF70",44.979,16.7091,"","","Prijedor","",15473281,"2022-11-05T04:03:40",3,"NO ERROR",9.26,100,984.74,0.18,0.19,0.19],
    [779,363171,"Vazduh","Libelium","0004A30B0021DF70",44.979,16.7091,"","","Prijedor","",15474542,"2022-11-05T05:04:22",3,"NO ERROR",8.43,100,983.78,0.33,0.36,0.36],
    [780,363171,"Vazduh","Libelium","0004A30B0021DF70",44.979,16.7091,"","","Prijedor","",15475836,"2022-11-05T06:05:04",3,"NO ERROR",8.24,100,984.62,0.17,0.18,0.18],
    [781,363171,"Vazduh","Libelium","0004A30B0021DF70",44.979,16.7091,"","","Prijedor","",15476545,"2022-11-05T07:05:53",3,"NO ERROR",8.03,100,984.59,0.15,0.2,0.2],
    [782,363171,"Vazduh","Libelium","0004A30B0021DF70",44.979,16.7091,"","","Prijedor","",15477143,"2022-11-05T08:06:35",3,"NO ERROR",8.24,100,985.88,0.3,0.36,0.36],
    [783,363171,"Vazduh","Libelium","0004A30B0021DF70",44.979,16.7091,"","","Prijedor","",15477774,"2022-11-05T09:07:17",3,"NO ERROR",8.71,100,988.3,0.42,0.49,0.49],
    [784,363171,"Vazduh","Libelium","0004A30B0021DF70",44.979,16.7091,"","","Prijedor","",15478366,"2022-11-05T10:07:59",3,"NO ERROR",9.88,100,991.89,0.63,0.67,0.67],
    [785,363171,"Vazduh","Libelium","0004A30B0021DF70",44.979,16.7091,"","","Prijedor","",15478973,"2022-11-05T11:08:41",3,"NO ERROR",10.73,100,995.11,0.08,0.11,0.11],
    [786,363171,"Vazduh","Libelium","0004A30B0021DF70",44.979,16.7091,"","","Prijedor","",15479591,"2022-11-05T12:09:23",3,"NO ERROR",11.15,100,998.66,0.15,0.22,0.24],
    [787,363171,"Vazduh","Libelium","0004A30B0021DF70",44.979,16.7091,"","","Prijedor","",15480484,"2022-11-05T13:10:06",3,"NO ERROR",10.73,100,998.49,0.33,0.42,0.42],
    [788,363171,"Vazduh","Libelium","0004A30B0021DF70",44.979,16.7091,"","","Prijedor","",15481046,"2022-11-05T14:10:48",3,"NO ERROR",10.31,100,998.32,0.18,0.19,0.19],
    [789,363171,"Vazduh","Libelium","0004A30B0021DF70",44.979,16.7091,"","","Prijedor","",15481652,"2022-11-05T15:11:30",3,"NO ERROR",9.95,100,998.41,0.26,0.31,0.31],
    [790,363171,"Vazduh","Libelium","0004A30B0021DF70",44.979,16.7091,"","","Prijedor","",15482211,"2022-11-05T16:12:12",3,"NO ERROR",9.74,100,998.83,0.99,1.2,1.33],
    [791,363171,"Vazduh","Libelium","0004A30B0021DF70",44.979,16.7091,"","","Prijedor","",15483912,"2022-11-05T17:12:54",3,"NO ERROR",9.32,100,999.72,1.05,1.13,1.13],
    [792,363171,"Vazduh","Libelium","0004A30B0021DF70",44.979,16.7091,"","","Prijedor","",15485308,"2022-11-05T18:13:37",3,"NO ERROR",9.26,100,1000.57,3.82,4.12,4.12],
    [793,363171,"Vazduh","Libelium","0004A30B0021DF70",44.979,16.7091,"","","Prijedor","",15519991,"2022-11-07T02:36:24",3,"NO ERROR",8.91,100,1004.69,4.02,5.21,5.73],
    [794,363171,"Vazduh","Libelium","0004A30B0021DF70",44.979,16.7091,"","","Prijedor","",15521132,"2022-11-07T03:37:06",3,"NO ERROR",9.09,100,1004.52,2.97,3.16,3.17],
    [795,363171,"Vazduh","Libelium","0004A30B0021DF70",44.979,16.7091,"","","Prijedor","",15522331,"2022-11-07T04:37:49",3,"NO ERROR",8.81,100,1004.79,3.6,4.64,6.74],
    [796,363171,"Vazduh","Libelium","0004A30B0021DF70",44.979,16.7091,"","","Prijedor","",15523541,"2022-11-07T05:38:31",3,"NO ERROR",8.91,100,1005.14,3.55,4.34,4.41],
    [797,363171,"Vazduh","Libelium","0004A30B0021DF70",44.979,16.7091,"","","Prijedor","",15524412,"2022-11-07T06:39:13",3,"NO ERROR",8.9,100,1005.72,4.16,5.04,5.4],
    [798,363171,"Vazduh","Libelium","0004A30B0021DF70",44.979,16.7091,"","","Prijedor","",15524928,"2022-11-07T07:39:55",3,"NO ERROR",9.23,100,1006.31,1.96,2.35,2.47],
    [799,363171,"Vazduh","Libelium","0004A30B0021DF70",44.979,16.7091,"","","Prijedor","",15525401,"2022-11-07T08:40:37",3,"NO ERROR",9.96,100,1006.92,1.29,1.39,1.39],
    [800,363171,"Vazduh","Libelium","0004A30B0021DF70",44.979,16.7091,"","","Prijedor","",15525897,"2022-11-07T09:41:20",3,"NO ERROR",11.16,100,1007.17,0.38,0.42,0.42],
    [801,363171,"Vazduh","Libelium","0004A30B0021DF70",44.979,16.7091,"","","Prijedor","",15526381,"2022-11-07T10:42:02",3,"NO ERROR",11.14,100,1007.65,1.65,1.99,2.58],
    [802,363171,"Vazduh","Libelium","0004A30B0021DF70",44.979,16.7091,"","","Prijedor","",15526886,"2022-11-07T11:42:50",3,"NO ERROR",12.68,98.3,1007.41,1.17,1.27,1.27],
    [803,363171,"Vazduh","Libelium","0004A30B0021DF70",44.979,16.7091,"","","Prijedor","",15527382,"2022-11-07T12:43:32",3,"NO ERROR",13.21,93.1,1007.02,0.89,1.16,1.81],
    [804,363171,"Vazduh","Libelium","0004A30B0021DF70",44.979,16.7091,"","","Prijedor","",15527885,"2022-11-07T13:44:14",3,"NO ERROR",13.33,89.8,1006.72,0.94,1.03,1.03],
    [805,363171,"Vazduh","Libelium","0004A30B0021DF70",44.979,16.7091,"","","Prijedor","",15528401,"2022-11-07T14:44:56",3,"NO ERROR",13.42,87.2,1006.7,0.82,0.87,0.87],
    [806,363171,"Vazduh","Libelium","0004A30B0021DF70",44.979,16.7091,"","","Prijedor","",15528938,"2022-11-07T15:45:38",3,"NO ERROR",12.62,95.2,1006.55,1.42,1.71,1.72],
    [807,363171,"Vazduh","Libelium","0004A30B0021DF70",44.979,16.7091,"","","Prijedor","",15529555,"2022-11-07T16:46:21",3,"NO ERROR",12.11,98.5,1007.21,0.96,1,1],
    [808,363171,"Vazduh","Libelium","0004A30B0021DF70",44.979,16.7091,"","","Prijedor","",15532743,"2022-11-07T17:47:03",3,"NO ERROR",11.78,100,1007.3,1.78,2.01,2.04],
    [809,363171,"Vazduh","Libelium","0004A30B0021DF70",44.979,16.7091,"","","Prijedor","",15534599,"2022-11-07T18:47:45",3,"NO ERROR",11.13,100,1007.56,1.4,1.49,1.49],
    [810,363171,"Vazduh","Libelium","0004A30B0021DF70",44.979,16.7091,"","","Prijedor","",15535983,"2022-11-07T19:48:27",3,"NO ERROR",9.27,100,1007.79,2.23,2.41,2.42],
    [811,363171,"Vazduh","Libelium","0004A30B0021DF70",44.979,16.7091,"","","Prijedor","",15537316,"2022-11-07T20:49:09",3,"NO ERROR",8.26,100,1008.05,4.67,4.98,5.1],
    [812,363171,"Vazduh","Libelium","0004A30B0021DF70",44.979,16.7091,"","","Prijedor","",15538635,"2022-11-07T21:49:51",3,"NO ERROR",7.15,100,1008.4,6.78,7.58,7.85],
    [813,363171,"Vazduh","Libelium","0004A30B0021DF70",44.979,16.7091,"","","Prijedor","",15539960,"2022-11-07T22:50:34",3,"NO ERROR",6.13,100,1008.27,11.31,12.22,12.24],
    [814,363171,"Vazduh","Libelium","0004A30B0021DF70",44.979,16.7091,"","","Prijedor","",15541258,"2022-11-07T23:51:22",3,"NO ERROR",5.36,100,1007.9,6.72,7.25,7.25],
    [815,363171,"Vazduh","Libelium","0004A30B0021DF70",44.979,16.7091,"","","Prijedor","",15542822,"2022-11-08T00:52:04",3,"NO ERROR",4.71,100,1008.14,73.18,93.47,313.97],
    [816,363171,"Vazduh","Libelium","0004A30B0021DF70",44.979,16.7091,"","","Prijedor","",15544183,"2022-11-08T01:52:46",3,"NO ERROR",5.01,100,1008.03,45.61,64.96,260.26],
    [817,363171,"Vazduh","Libelium","0004A30B0021DF70",44.979,16.7091,"","","Prijedor","",15545500,"2022-11-08T02:53:35",3,"NO ERROR",4.97,100,1007.9,66.9,96.37,277.88],
    [818,363171,"Vazduh","Libelium","0004A30B0021DF70",44.979,16.7091,"","","Prijedor","",15546823,"2022-11-08T03:54:17",3,"NO ERROR",4.47,100,1007.51,19.24,27.85,164.11],
    [819,363171,"Vazduh","Libelium","0004A30B0021DF70",44.979,16.7091,"","","Prijedor","",15548170,"2022-11-08T04:54:59",3,"NO ERROR",3.85,100,1007.7,9.23,19.14,253.81],
    [820,363171,"Vazduh","Libelium","0004A30B0021DF70",44.979,16.7091,"","","Prijedor","",15549554,"2022-11-08T05:55:41",3,"NO ERROR",3.72,100,1007.5,36.68,49.13,301.45],
    [821,363171,"Vazduh","Libelium","0004A30B0021DF70",44.979,16.7091,"","","Prijedor","",15550440,"2022-11-08T06:56:23",3,"NO ERROR",3.11,100,1007.38,19.68,31.95,423.19],
    [822,363171,"Vazduh","Libelium","0004A30B0021DF70",44.979,16.7091,"","","Prijedor","",15551067,"2022-11-08T07:57:05",3,"NO ERROR",3.63,100,1007.5,7.49,16.11,192.39],
    [823,363171,"Vazduh","Libelium","0004A30B0021DF70",44.979,16.7091,"","","Prijedor","",15551670,"2022-11-08T08:57:47",3,"NO ERROR",4.75,100,1007.48,7.28,10.46,120.2],
    [824,363171,"Vazduh","Libelium","0004A30B0021DF70",44.979,16.7091,"","","Prijedor","",15552259,"2022-11-08T09:58:30",3,"NO ERROR",6.06,100,1007.58,1.81,2.91,20.48],
    [825,363171,"Vazduh","Libelium","0004A30B0021DF70",44.979,16.7091,"","","Prijedor","",15552862,"2022-11-08T10:59:12",3,"NO ERROR",8.96,100,1006.95,0.58,0.6,0.6],
    [826,363171,"Vazduh","Libelium","0004A30B0021DF70",44.979,16.7091,"","","Prijedor","",15553424,"2022-11-08T11:59:54",3,"NO ERROR",11.64,100,1006.28,0.72,0.76,0.76],
    [827,363171,"Vazduh","Libelium","0004A30B0021DF70",44.979,16.7091,"","","Prijedor","",15554024,"2022-11-08T13:00:36",3,"NO ERROR",15.55,84.2,1005.53,1.16,1.21,1.21],
    [828,363171,"Vazduh","Libelium","0004A30B0021DF70",44.979,16.7091,"","","Prijedor","",15554676,"2022-11-08T14:01:18",3,"NO ERROR",19.17,69.4,1005.07,1.62,1.85,1.89],
    [829,363171,"Vazduh","Libelium","0004A30B0021DF70",44.979,16.7091,"","","Prijedor","",15555350,"2022-11-08T15:02:00",3,"NO ERROR",20.21,61.5,1004.82,0.33,0.34,0.34],
    [830,363171,"Vazduh","Libelium","0004A30B0021DF70",44.979,16.7091,"","","Prijedor","",15555992,"2022-11-08T16:02:42",3,"NO ERROR",13.65,89.2,1004.56,1.25,1.63,2.17],
    [831,363171,"Vazduh","Libelium","0004A30B0021DF70",44.979,16.7091,"","","Prijedor","",15557644,"2022-11-08T17:03:24",3,"NO ERROR",11.32,100,1004.63,2.98,3.73,3.96],
    [832,363171,"Vazduh","Libelium","0004A30B0021DF70",44.979,16.7091,"","","Prijedor","",15560305,"2022-11-08T18:04:07",3,"NO ERROR",10.34,100,1005.03,6.82,7.59,8.22],
    [833,363171,"Vazduh","Libelium","0004A30B0021DF70",44.979,16.7091,"","","Prijedor","",15562161,"2022-11-08T19:04:49",3,"NO ERROR",8.57,100,1005.36,5.33,6.09,6.33],
    [834,363171,"Vazduh","Libelium","0004A30B0021DF70",44.979,16.7091,"","","Prijedor","",15563711,"2022-11-08T20:05:31",3,"NO ERROR",7.45,100,1005.55,5.83,6.12,6.12],
    [835,363171,"Vazduh","Libelium","0004A30B0021DF70",44.979,16.7091,"","","Prijedor","",15565226,"2022-11-08T21:06:13",3,"NO ERROR",7.21,100,1005.9,8.64,9.08,9.08],
    [836,363171,"Vazduh","Libelium","0004A30B0021DF70",44.979,16.7091,"","","Prijedor","",15566665,"2022-11-08T22:06:55",3,"NO ERROR",6.56,100,1005.84,9.56,10.55,10.71],
    [837,363171,"Vazduh","Libelium","0004A30B0021DF70",44.979,16.7091,"","","Prijedor","",15568061,"2022-11-08T23:07:38",3,"NO ERROR",5.42,100,1006.07,6.22,6.64,6.64],
    [838,363171,"Vazduh","Libelium","0004A30B0021DF70",44.979,16.7091,"","","Prijedor","",15569613,"2022-11-09T00:08:20",3,"NO ERROR",5.08,100,1006.11,38.73,46.2,122.34],
    [839,363171,"Vazduh","Libelium","0004A30B0021DF70",44.979,16.7091,"","","Prijedor","",15571190,"2022-11-09T01:09:02",3,"NO ERROR",5.53,100,1006.03,55.38,70.53,322.57],
    [840,363171,"Vazduh","Libelium","0004A30B0021DF70",44.979,16.7091,"","","Prijedor","",15572610,"2022-11-09T02:09:44",3,"NO ERROR",5.22,100,1005.95,46.44,63.06,280.95],
    [841,363171,"Vazduh","Libelium","0004A30B0021DF70",44.979,16.7091,"","","Prijedor","",15573979,"2022-11-09T03:10:26",3,"NO ERROR",4.7,100,1005.64,15.42,20.01,161.13],
    [842,363171,"Vazduh","Libelium","0004A30B0021DF70",44.979,16.7091,"","","Prijedor","",15575331,"2022-11-09T04:11:09",3,"NO ERROR",4.47,100,1005.88,10.29,13.67,104.78],
    [843,363171,"Vazduh","Libelium","0004A30B0021DF70",44.979,16.7091,"","","Prijedor","",15576737,"2022-11-09T05:11:51",3,"NO ERROR",3.83,100,1005.74,4.52,8.49,129.81],
    [844,363171,"Vazduh","Libelium","0004A30B0021DF70",44.979,16.7091,"","","Prijedor","",15577959,"2022-11-09T06:12:33",3,"NO ERROR",3.74,100,1005.63,28.59,44.71,472.15],
    [845,363171,"Vazduh","Libelium","0004A30B0021DF70",44.979,16.7091,"","","Prijedor","",15578690,"2022-11-09T07:13:15",3,"NO ERROR",4.07,100,1005.87,20.1,30.93,239.26],
    [846,363171,"Vazduh","Libelium","0004A30B0021DF70",44.979,16.7091,"","","Prijedor","",15579343,"2022-11-09T08:13:57",3,"NO ERROR",5.19,100,1006.46,2.26,2.42,2.42],
    [847,363171,"Vazduh","Libelium","0004A30B0021DF70",44.979,16.7091,"","","Prijedor","",15579986,"2022-11-09T09:14:39",3,"NO ERROR",7.02,100,1006.33,3.52,3.87,3.92],
    [848,363171,"Vazduh","Libelium","0004A30B0021DF70",44.979,16.7091,"","","Prijedor","",15580597,"2022-11-09T10:15:22",3,"NO ERROR",9.21,100,1006.04,0.91,1.02,1.04],
    [849,363171,"Vazduh","Libelium","0004A30B0021DF70",44.979,16.7091,"","","Prijedor","",15581266,"2022-11-09T11:16:04",3,"NO ERROR",12.97,96,1005.41,0.63,0.72,0.72],
    [850,363171,"Vazduh","Libelium","0004A30B0021DF70",44.979,16.7091,"","","Prijedor","",15581906,"2022-11-09T12:16:46",3,"NO ERROR",15.16,80.5,1004.73,0.19,0.26,0.27],
    [851,363171,"Vazduh","Libelium","0004A30B0021DF70",44.979,16.7091,"","","Prijedor","",15582542,"2022-11-09T13:17:28",3,"NO ERROR",18.13,64.7,1004,0.19,0.22,0.22],
    [852,363171,"Vazduh","Libelium","0004A30B0021DF70",44.979,16.7091,"","","Prijedor","",15583170,"2022-11-09T14:18:10",3,"NO ERROR",24.2,49.6,1003.7,0.51,0.6,0.6],
    [853,363171,"Vazduh","Libelium","0004A30B0021DF70",44.979,16.7091,"","","Prijedor","",15583835,"2022-11-09T15:18:52",3,"NO ERROR",19.31,60.5,1003.75,0.57,0.65,0.65],
    [854,363171,"Vazduh","Libelium","0004A30B0021DF70",44.979,16.7091,"","","Prijedor","",15584474,"2022-11-09T16:19:34",3,"NO ERROR",17.36,69.7,1003.58,1.17,1.3,1.31],
    [855,363171,"Vazduh","Libelium","0004A30B0021DF70",44.979,16.7091,"","","Prijedor","",15587014,"2022-11-09T17:20:16",3,"NO ERROR",15.48,89.4,1003.93,2.08,2.56,4.28],
    [856,363171,"Vazduh","Libelium","0004A30B0021DF70",44.979,16.7091,"","","Prijedor","",15589345,"2022-11-09T18:20:59",3,"NO ERROR",14.18,97.6,1004.26,2.29,2.53,2.54],
    [857,363171,"Vazduh","Libelium","0004A30B0021DF70",44.979,16.7091,"","","Prijedor","",15591209,"2022-11-09T19:21:41",3,"NO ERROR",12.74,100,1004.47,5.94,6.56,6.59],
    [858,363171,"Vazduh","Libelium","0004A30B0021DF70",44.979,16.7091,"","","Prijedor","",15592674,"2022-11-09T20:22:23",3,"NO ERROR",11.18,100,1004.78,5.08,5.94,6.56],
    [859,363171,"Vazduh","Libelium","0004A30B0021DF70",44.979,16.7091,"","","Prijedor","",15594071,"2022-11-09T21:23:05",3,"NO ERROR",9.85,100,1005.02,4.12,4.36,4.37],
    [860,363171,"Vazduh","Libelium","0004A30B0021DF70",44.979,16.7091,"","","Prijedor","",15595368,"2022-11-09T22:23:47",3,"NO ERROR",9.13,100,1005.1,5.32,5.89,6.05],
    [861,363171,"Vazduh","Libelium","0004A30B0021DF70",44.979,16.7091,"","","Prijedor","",15596708,"2022-11-09T23:24:30",3,"NO ERROR",7.93,100,1005.28,4.55,4.94,4.96],
    [862,363171,"Vazduh","Libelium","0004A30B0021DF70",44.979,16.7091,"","","Prijedor","",15598177,"2022-11-10T00:25:12",3,"NO ERROR",7.7,100,1005.42,3.95,4.21,4.21],
    [863,363171,"Vazduh","Libelium","0004A30B0021DF70",44.979,16.7091,"","","Prijedor","",15599479,"2022-11-10T01:25:54",3,"NO ERROR",6.89,100,1005.66,4.23,4.51,4.51],
    [864,363171,"Vazduh","Libelium","0004A30B0021DF70",44.979,16.7091,"","","Prijedor","",15600697,"2022-11-10T02:26:36",3,"NO ERROR",5.9,100,1005.83,5.28,5.48,5.48],
    [865,363171,"Vazduh","Libelium","0004A30B0021DF70",44.979,16.7091,"","","Prijedor","",15601866,"2022-11-10T03:27:18",3,"NO ERROR",6.23,100,1005.7,22.74,26.14,81.14],
    [866,363171,"Vazduh","Libelium","0004A30B0021DF70",44.979,16.7091,"","","Prijedor","",15603029,"2022-11-10T04:28:07",3,"NO ERROR",5.66,100,1006.34,42.87,50.06,77.12],
    [867,363171,"Vazduh","Libelium","0004A30B0021DF70",44.979,16.7091,"","","Prijedor","",15604196,"2022-11-10T05:28:55",3,"NO ERROR",5.59,100,1006.8,56.21,72.75,411.52],
    [868,363171,"Vazduh","Libelium","0004A30B0021DF70",44.979,16.7091,"","","Prijedor","",15605244,"2022-11-10T06:29:37",3,"NO ERROR",5.18,100,1007.4,21.26,23.67,23.71],
    [869,363171,"Vazduh","Libelium","0004A30B0021DF70",44.979,16.7091,"","","Prijedor","",15605858,"2022-11-10T07:30:19",3,"NO ERROR",5.48,100,1008.22,3.09,3.38,3.83],
    [870,363171,"Vazduh","Libelium","0004A30B0021DF70",44.979,16.7091,"","","Prijedor","",15606474,"2022-11-10T08:31:01",3,"NO ERROR",9.09,100,1009.06,1.1,1.26,1.26],
    [871,363171,"Vazduh","Libelium","0004A30B0021DF70",44.979,16.7091,"","","Prijedor","",15607101,"2022-11-10T09:31:43",3,"NO ERROR",11.72,100,1009.31,1.49,1.57,1.57],
    [872,363171,"Vazduh","Libelium","0004A30B0021DF70",44.979,16.7091,"","","Prijedor","",15607700,"2022-11-10T10:32:26",3,"NO ERROR",13.95,90.3,1009.99,1.4,1.72,1.8],
    [873,363171,"Vazduh","Libelium","0004A30B0021DF70",44.979,16.7091,"","","Prijedor","",15608315,"2022-11-10T11:33:08",3,"NO ERROR",18.44,67.1,1010.06,0.24,0.27,0.28],
    [874,363171,"Vazduh","Libelium","0004A30B0021DF70",44.979,16.7091,"","","Prijedor","",15608916,"2022-11-10T12:33:50",3,"NO ERROR",15.53,84.5,1010.95,0.41,0.79,1.32],
    [875,363171,"Vazduh","Libelium","0004A30B0021DF70",44.979,16.7091,"","","Prijedor","",15609521,"2022-11-10T13:34:32",3,"NO ERROR",14.59,92.5,1011.62,0.27,0.38,0.46],
    [876,363171,"Vazduh","Libelium","0004A30B0021DF70",44.979,16.7091,"","","Prijedor","",15610123,"2022-11-10T14:35:14",3,"NO ERROR",13.62,97.5,1012.38,0.28,0.29,0.29],
    [877,363171,"Vazduh","Libelium","0004A30B0021DF70",44.979,16.7091,"","","Prijedor","",15610755,"2022-11-10T15:35:56",3,"NO ERROR",13.17,100,1013.23,1.19,1.33,1.35],
    [878,363171,"Vazduh","Libelium","0004A30B0021DF70",44.979,16.7091,"","","Prijedor","",15611359,"2022-11-10T16:36:39",3,"NO ERROR",12.82,100,1013.88,1.02,1.1,1.1],
    [879,363171,"Vazduh","Libelium","0004A30B0021DF70",44.979,16.7091,"","","Prijedor","",15614318,"2022-11-10T17:37:21",3,"NO ERROR",12.54,100,1014.55,1.95,2.08,2.09],
    [880,363171,"Vazduh","Libelium","0004A30B0021DF70",44.979,16.7091,"","","Prijedor","",15616374,"2022-11-10T18:38:09",3,"NO ERROR",12.37,100,1015.01,1.47,1.57,1.57],
    [881,363171,"Vazduh","Libelium","0004A30B0021DF70",44.979,16.7091,"","","Prijedor","",15617945,"2022-11-10T19:38:51",3,"NO ERROR",12.29,100,1016.05,2.16,2.33,2.34],
    [882,363171,"Vazduh","Libelium","0004A30B0021DF70",44.979,16.7091,"","","Prijedor","",15619329,"2022-11-10T20:39:33",3,"NO ERROR",12.13,100,1017.08,1.69,1.79,1.79],
    [883,363171,"Vazduh","Libelium","0004A30B0021DF70",44.979,16.7091,"","","Prijedor","",15620662,"2022-11-10T21:40:15",3,"NO ERROR",11.77,100,1017.83,2.07,2.22,2.23],
    [884,363171,"Vazduh","Libelium","0004A30B0021DF70",44.979,16.7091,"","","Prijedor","",15621968,"2022-11-10T22:40:58",3,"NO ERROR",11.77,100,1018.12,1.94,2.03,2.03],
    [885,363171,"Vazduh","Libelium","0004A30B0021DF70",44.979,16.7091,"","","Prijedor","",15623245,"2022-11-10T23:41:40",3,"NO ERROR",11.22,100,1018.35,2.26,2.42,2.42],
    [886,363171,"Vazduh","Libelium","0004A30B0021DF70",44.979,16.7091,"","","Prijedor","",15624768,"2022-11-11T00:42:22",3,"NO ERROR",10.4,100,1018.18,3.75,3.91,3.91],
    [887,363171,"Vazduh","Libelium","0004A30B0021DF70",44.979,16.7091,"","","Prijedor","",15626087,"2022-11-11T01:43:10",3,"NO ERROR",10.52,100,1018.35,3.84,4.04,4.04],
    [888,363171,"Vazduh","Libelium","0004A30B0021DF70",44.979,16.7091,"","","Prijedor","",15627357,"2022-11-11T02:43:52",3,"NO ERROR",10.23,100,1018.18,3.29,3.82,4],
    [889,363171,"Vazduh","Libelium","0004A30B0021DF70",44.979,16.7091,"","","Prijedor","",15628656,"2022-11-11T03:44:35",3,"NO ERROR",10.03,100,1017.9,2.15,2.35,2.36],
    [890,363171,"Vazduh","Libelium","0004A30B0021DF70",44.979,16.7091,"","","Prijedor","",15629878,"2022-11-11T04:45:17",3,"NO ERROR",9.05,100,1017.98,4.15,4.48,4.49],
    [891,363171,"Vazduh","Libelium","0004A30B0021DF70",44.979,16.7091,"","","Prijedor","",15631084,"2022-11-11T05:45:59",3,"NO ERROR",7.79,100,1018.44,10.65,11.71,11.74],
    [892,363171,"Vazduh","Libelium","0004A30B0021DF70",44.979,16.7091,"","","Prijedor","",15632031,"2022-11-11T06:46:41",3,"NO ERROR",6.95,100,1019.28,12.1,13.36,13.38],
    [893,363171,"Vazduh","Libelium","0004A30B0021DF70",44.979,16.7091,"","","Prijedor","",15632636,"2022-11-11T07:47:23",3,"NO ERROR",7.55,100,1019.81,114.81,139.3,295.33],
    [894,363171,"Vazduh","Libelium","0004A30B0021DF70",44.979,16.7091,"","","Prijedor","",15633221,"2022-11-11T08:48:06",3,"NO ERROR",7.89,100,1020.5,14.5,17.92,72.67],
    [895,363171,"Vazduh","Libelium","0004A30B0021DF70",44.979,16.7091,"","","Prijedor","",15633819,"2022-11-11T09:48:48",3,"NO ERROR",9.79,100,1020.36,10.87,12.65,19.46],
    [896,363171,"Vazduh","Libelium","0004A30B0021DF70",44.979,16.7091,"","","Prijedor","",15634425,"2022-11-11T10:49:30",3,"NO ERROR",10.43,100,1020.45,10.81,11.6,19.15],
    [897,363171,"Vazduh","Libelium","0004A30B0021DF70",44.979,16.7091,"","","Prijedor","",15635019,"2022-11-11T11:50:12",3,"NO ERROR",11.33,100,1020.17,6.87,7.41,7.41],
    [898,363171,"Vazduh","Libelium","0004A30B0021DF70",44.979,16.7091,"","","Prijedor","",15635623,"2022-11-11T12:50:54",3,"NO ERROR",15.74,90.3,1019.37,0.8,0.94,0.96],
    [899,363171,"Vazduh","Libelium","0004A30B0021DF70",44.979,16.7091,"","","Prijedor","",15636243,"2022-11-11T13:51:42",3,"NO ERROR",17.13,77,1018.95,0.32,0.53,0.63],
    [900,363171,"Vazduh","Libelium","0004A30B0021DF70",44.979,16.7091,"","","Prijedor","",15636898,"2022-11-11T14:52:24",3,"NO ERROR",16.04,69.6,1018.31,0.47,0.75,0.91],
    [901,363171,"Vazduh","Libelium","0004A30B0021DF70",44.979,16.7091,"","","Prijedor","",15637540,"2022-11-11T15:53:07",3,"NO ERROR",13.58,81,1018.87,0.61,0.76,0.76],
    [902,363171,"Vazduh","Libelium","0004A30B0021DF70",44.979,16.7091,"","","Prijedor","",15638935,"2022-11-11T16:53:49",3,"NO ERROR",11.65,96.5,1019.04,0.34,0.5,0.52],
    [903,363171,"Vazduh","Libelium","0004A30B0021DF70",44.979,16.7091,"","","Prijedor","",15641831,"2022-11-11T17:54:31",3,"NO ERROR",10.59,100,1019.11,1.36,1.74,1.77],
    [904,363171,"Vazduh","Libelium","0004A30B0021DF70",44.979,16.7091,"","","Prijedor","",15643734,"2022-11-11T18:55:13",3,"NO ERROR",9.4,100,1019.17,0.96,1.13,1.14],
    [905,363171,"Vazduh","Libelium","0004A30B0021DF70",44.979,16.7091,"","","Prijedor","",15645250,"2022-11-11T19:55:55",3,"NO ERROR",8.22,100,1019.26,0.9,1.36,1.4],
    [906,363171,"Vazduh","Libelium","0004A30B0021DF70",44.979,16.7091,"","","Prijedor","",15646704,"2022-11-11T20:56:37",3,"NO ERROR",6.96,100,1019.96,1.31,1.75,1.77],
    [907,363171,"Vazduh","Libelium","0004A30B0021DF70",44.979,16.7091,"","","Prijedor","",15648080,"2022-11-11T21:57:19",3,"NO ERROR",6.18,100,1020.05,1.91,2.46,2.52],
    [908,363171,"Vazduh","Libelium","0004A30B0021DF70",44.979,16.7091,"","","Prijedor","",15649461,"2022-11-11T22:58:01",3,"NO ERROR",5.62,100,1020.03,3.13,4.16,4.49],
    [909,363171,"Vazduh","Libelium","0004A30B0021DF70",44.979,16.7091,"","","Prijedor","",15650925,"2022-11-11T23:58:43",3,"NO ERROR",4.3,100,1019.65,32.75,46.46,115.23],
    [910,363171,"Vazduh","Libelium","0004A30B0021DF70",44.979,16.7091,"","","Prijedor","",15652479,"2022-11-12T00:59:25",3,"NO ERROR",4.46,100,1019.49,73.3,108.88,259.93],
    [911,363171,"Vazduh","Libelium","0004A30B0021DF70",44.979,16.7091,"","","Prijedor","",15653859,"2022-11-12T02:00:07",3,"NO ERROR",4.44,100,1019.07,49.25,79.71,446.18],
    [912,363171,"Vazduh","Libelium","0004A30B0021DF70",44.979,16.7091,"","","Prijedor","",15655283,"2022-11-12T03:00:50",3,"NO ERROR",4.34,100,1018.53,37.34,54.61,270.45],
    [913,363171,"Vazduh","Libelium","0004A30B0021DF70",44.979,16.7091,"","","Prijedor","",15656650,"2022-11-12T04:01:32",3,"NO ERROR",4.77,100,1018.36,22,31.77,138.89],
    [914,363171,"Vazduh","Libelium","0004A30B0021DF70",44.979,16.7091,"","","Prijedor","",15658026,"2022-11-12T05:02:14",3,"NO ERROR",4.66,100,1018.07,42.74,58.54,103.65],
    [915,363171,"Vazduh","Libelium","0004A30B0021DF70",44.979,16.7091,"","","Prijedor","",15659354,"2022-11-12T06:02:56",3,"NO ERROR",4.76,100,1017.8,27.31,38.56,157.54],
    [916,363171,"Vazduh","Libelium","0004A30B0021DF70",44.979,16.7091,"","","Prijedor","",15660268,"2022-11-12T07:03:38",3,"NO ERROR",4.59,100,1017.79,17.06,20.97,23.1],
    [917,363171,"Vazduh","Libelium","0004A30B0021DF70",44.979,16.7091,"","","Prijedor","",15660921,"2022-11-12T08:04:20",3,"NO ERROR",4.89,100,1017.94,29.65,42.85,79.84],
    [918,363171,"Vazduh","Libelium","0004A30B0021DF70",44.979,16.7091,"","","Prijedor","",15661604,"2022-11-12T09:05:02",3,"NO ERROR",6.42,100,1017.89,3.58,4.03,4.03],
    [919,363171,"Vazduh","Libelium","0004A30B0021DF70",44.979,16.7091,"","","Prijedor","",15662260,"2022-11-12T10:05:44",3,"NO ERROR",7.24,100,1017.65,3.71,4.6,4.62],
    [920,363171,"Vazduh","Libelium","0004A30B0021DF70",44.979,16.7091,"","","Prijedor","",15662926,"2022-11-12T11:06:26",3,"NO ERROR",8.16,100,1017.55,2.36,2.69,2.69],
    [921,363171,"Vazduh","Libelium","0004A30B0021DF70",44.979,16.7091,"","","Prijedor","",15663577,"2022-11-12T12:07:09",3,"NO ERROR",8.54,100,1017.59,2.15,2.87,3.03],
    [922,363171,"Vazduh","Libelium","0004A30B0021DF70",44.979,16.7091,"","","Prijedor","",15664252,"2022-11-12T13:07:51",3,"NO ERROR",10.18,100,1017.02,1.2,1.46,1.49],
    [923,363171,"Vazduh","Libelium","0004A30B0021DF70",44.979,16.7091,"","","Prijedor","",15664914,"2022-11-12T14:08:33",3,"NO ERROR",15.32,82.5,1016.47,0.61,0.66,0.66],
    [924,363171,"Vazduh","Libelium","0004A30B0021DF70",44.979,16.7091,"","","Prijedor","",15665593,"2022-11-12T15:09:15",3,"NO ERROR",15.17,82.9,1015.65,1.41,1.68,1.69],
    [925,363171,"Vazduh","Libelium","0004A30B0021DF70",44.979,16.7091,"","","Prijedor","",15666264,"2022-11-12T16:09:57",3,"NO ERROR",10.75,100,1015.63,0.97,1.38,1.88],
    [926,363171,"Vazduh","Libelium","0004A30B0021DF70",44.979,16.7091,"","","Prijedor","",15668519,"2022-11-12T17:10:39",3,"NO ERROR",8.91,100,1016.1,1.69,2.05,2.09],
    [927,363171,"Vazduh","Libelium","0004A30B0021DF70",44.979,16.7091,"","","Prijedor","",15670805,"2022-11-12T18:11:27",3,"NO ERROR",7.76,100,1015.81,4.1,4.96,5.14],
    [928,363171,"Vazduh","Libelium","0004A30B0021DF70",44.979,16.7091,"","","Prijedor","",15672647,"2022-11-12T19:12:09",3,"NO ERROR",7.59,100,1015.97,3.66,4.31,4.32],
    [929,363171,"Vazduh","Libelium","0004A30B0021DF70",44.979,16.7091,"","","Prijedor","",15674185,"2022-11-12T20:12:51",3,"NO ERROR",7.34,100,1016.28,7.92,9.62,9.82],
    [930,363171,"Vazduh","Libelium","0004A30B0021DF70",44.979,16.7091,"","","Prijedor","",15675639,"2022-11-12T21:13:33",3,"NO ERROR",7.11,100,1016.36,8.05,9.65,9.69],
    [931,363171,"Vazduh","Libelium","0004A30B0021DF70",44.979,16.7091,"","","Prijedor","",15677015,"2022-11-12T22:14:15",3,"NO ERROR",7.15,100,1016.31,9.65,11.18,11.25],
    [932,363171,"Vazduh","Libelium","0004A30B0021DF70",44.979,16.7091,"","","Prijedor","",15678414,"2022-11-12T23:14:58",3,"NO ERROR",7.04,100,1016.45,6.66,8.11,8.28],
    [933,363171,"Vazduh","Libelium","0004A30B0021DF70",44.979,16.7091,"","","Prijedor","",15680032,"2022-11-13T00:15:40",3,"NO ERROR",5.46,100,1015.96,26.72,32.63,32.73],
    [934,363171,"Vazduh","Libelium","0004A30B0021DF70",44.979,16.7091,"","","Prijedor","",15681494,"2022-11-13T01:16:22",3,"NO ERROR",5.93,100,1015.64,84.17,126.15,377.41],
    [935,363171,"Vazduh","Libelium","0004A30B0021DF70",44.979,16.7091,"","","Prijedor","",15682899,"2022-11-13T02:17:04",3,"NO ERROR",5.81,100,1015.29,86.27,130.97,330.21],
    [936,363171,"Vazduh","Libelium","0004A30B0021DF70",44.979,16.7091,"","","Prijedor","",15684341,"2022-11-13T03:17:46",3,"NO ERROR",6.63,100,1014.83,24.44,30.94,31.21],
    [937,363171,"Vazduh","Libelium","0004A30B0021DF70",44.979,16.7091,"","","Prijedor","",15685721,"2022-11-13T04:18:28",3,"NO ERROR",5.95,100,1014.82,15.34,18.79,18.86],
    [938,363171,"Vazduh","Libelium","0004A30B0021DF70",44.979,16.7091,"","","Prijedor","",15687117,"2022-11-13T05:19:10",3,"NO ERROR",6.5,100,1014.74,17.27,20.97,21.03],
    [939,363171,"Vazduh","Libelium","0004A30B0021DF70",44.979,16.7091,"","","Prijedor","",15688441,"2022-11-13T06:19:52",3,"NO ERROR",6.92,100,1014.7,10.6,12.57,12.6],
    [940,363171,"Vazduh","Libelium","0004A30B0021DF70",44.979,16.7091,"","","Prijedor","",15689215,"2022-11-13T07:20:34",3,"NO ERROR",7.21,100,1014.86,7.52,8.86,8.9],
    [941,363171,"Vazduh","Libelium","0004A30B0021DF70",44.979,16.7091,"","","Prijedor","",15689941,"2022-11-13T08:21:16",3,"NO ERROR",7.87,100,1014.82,7.29,8.78,8.85],
    [942,363171,"Vazduh","Libelium","0004A30B0021DF70",44.979,16.7091,"","","Prijedor","",15690672,"2022-11-13T09:21:59",3,"NO ERROR",9.08,100,1014.68,2.56,2.86,2.87],
    [943,363171,"Vazduh","Libelium","0004A30B0021DF70",44.979,16.7091,"","","Prijedor","",15691353,"2022-11-13T10:22:41",3,"NO ERROR",9.38,100,1014.42,2.34,3,3.16],
    [944,363171,"Vazduh","Libelium","0004A30B0021DF70",44.979,16.7091,"","","Prijedor","",15692065,"2022-11-13T11:23:23",3,"NO ERROR",9.38,100,1014.08,2.67,3.11,3.11],
    [945,363171,"Vazduh","Libelium","0004A30B0021DF70",44.979,16.7091,"","","Prijedor","",15692704,"2022-11-13T12:24:05",3,"NO ERROR",10.06,100,1013.34,1.94,2.3,2.3],
    [946,363171,"Vazduh","Libelium","0004A30B0021DF70",44.979,16.7091,"","","Prijedor","",15693375,"2022-11-13T13:24:47",3,"NO ERROR",9.72,100,1012.99,2.03,2.51,2.54],
    [947,363171,"Vazduh","Libelium","0004A30B0021DF70",44.979,16.7091,"","","Prijedor","",15694030,"2022-11-13T14:25:29",3,"NO ERROR",9.47,100,1012.76,1.78,2.09,2.1],
    [948,363171,"Vazduh","Libelium","0004A30B0021DF70",44.979,16.7091,"","","Prijedor","",15694705,"2022-11-13T15:26:11",3,"NO ERROR",8.9,100,1013.08,3.17,3.76,4.3],
    [949,363171,"Vazduh","Libelium","0004A30B0021DF70",44.979,16.7091,"","","Prijedor","",15695344,"2022-11-13T16:26:53",3,"NO ERROR",8.5,100,1012.98,3.42,4.02,4.03],
    [950,363171,"Vazduh","Libelium","0004A30B0021DF70",44.979,16.7091,"","","Prijedor","",15697919,"2022-11-13T17:27:35",3,"NO ERROR",8.17,100,1012.88,8.99,10.04,10.05],
    [951,363171,"Vazduh","Libelium","0004A30B0021DF70",44.979,16.7091,"","","Prijedor","",15699197,"2022-11-13T18:28:17",3,"NO ERROR",7.82,100,1012.63,11.11,13.07,13.1],
    [952,363171,"Vazduh","Libelium","0004A30B0021DF70",44.979,16.7091,"","","Prijedor","",15700413,"2022-11-13T19:29:00",3,"NO ERROR",7.87,100,1012.8,5.04,5.9,5.91],
    [953,363171,"Vazduh","Libelium","0004A30B0021DF70",44.979,16.7091,"","","Prijedor","",15701701,"2022-11-13T20:29:42",3,"NO ERROR",7.92,100,1012.32,8.41,9.84,9.86],
    [954,363171,"Vazduh","Libelium","0004A30B0021DF70",44.979,16.7091,"","","Prijedor","",15703064,"2022-11-13T21:30:24",3,"NO ERROR",7.41,100,1012.25,16.08,19.09,19.16],
    [955,363171,"Vazduh","Libelium","0004A30B0021DF70",44.979,16.7091,"","","Prijedor","",15704378,"2022-11-13T22:31:06",3,"NO ERROR",6.79,100,1011.88,34.51,41.29,41.55],
    [956,363171,"Vazduh","Libelium","0004A30B0021DF70",44.979,16.7091,"","","Prijedor","",15705721,"2022-11-13T23:31:48",3,"NO ERROR",5.82,100,1012.34,128.33,200.44,802.16],
    [957,363171,"Vazduh","Libelium","0004A30B0021DF70",44.979,16.7091,"","","Prijedor","",15707322,"2022-11-14T00:32:36",3,"NO ERROR",5.72,100,1012.07,45.22,63.7,122.33],
    [958,363171,"Vazduh","Libelium","0004A30B0021DF70",44.979,16.7091,"","","Prijedor","",15708688,"2022-11-14T01:33:18",3,"NO ERROR",5.81,100,1012.07,67.94,105.17,235.39],
    [959,363171,"Vazduh","Libelium","0004A30B0021DF70",44.979,16.7091,"","","Prijedor","",15709983,"2022-11-14T02:34:00",3,"NO ERROR",5.99,100,1011.74,55.26,79.95,198.28],
    [960,363171,"Vazduh","Libelium","0004A30B0021DF70",44.979,16.7091,"","","Prijedor","",15711313,"2022-11-14T03:34:42",3,"NO ERROR",5.77,100,1011.22,48.74,70.9,254.58],
    [961,363171,"Vazduh","Libelium","0004A30B0021DF70",44.979,16.7091,"","","Prijedor","",15712647,"2022-11-14T04:35:24",3,"NO ERROR",5.79,100,1011.17,19.07,23.05,23.12],
    [962,363171,"Vazduh","Libelium","0004A30B0021DF70",44.979,16.7091,"","","Prijedor","",15714006,"2022-11-14T05:36:07",3,"NO ERROR",6.24,100,1010.82,15.77,19.04,19.13],
    [963,363171,"Vazduh","Libelium","0004A30B0021DF70",44.979,16.7091,"","","Prijedor","",15715167,"2022-11-14T06:36:49",3,"NO ERROR",6.37,100,1011.31,11.42,13.6,13.79],
    [964,363171,"Vazduh","Libelium","0004A30B0021DF70",44.979,16.7091,"","","Prijedor","",15715862,"2022-11-14T07:37:31",3,"NO ERROR",6.51,100,1011.25,11.5,13.92,13.96],
    [965,363171,"Vazduh","Libelium","0004A30B0021DF70",44.979,16.7091,"","","Prijedor","",15716491,"2022-11-14T08:38:13",3,"NO ERROR",6.71,100,1011.19,14.01,16.69,16.73],
    [966,363171,"Vazduh","Libelium","0004A30B0021DF70",44.979,16.7091,"","","Prijedor","",15717112,"2022-11-14T09:38:55",3,"NO ERROR",7,100,1010.85,11.88,13.97,14],
    [967,363171,"Vazduh","Libelium","0004A30B0021DF70",44.979,16.7091,"","","Prijedor","",15717730,"2022-11-14T10:39:37",3,"NO ERROR",7.36,100,1010.46,11.13,13.32,13.35],
    [968,363171,"Vazduh","Libelium","0004A30B0021DF70",44.979,16.7091,"","","Prijedor","",15718408,"2022-11-14T11:40:25",3,"NO ERROR",8.68,100,1009.47,8.16,9.76,9.79],
    [969,363171,"Vazduh","Libelium","0004A30B0021DF70",44.979,16.7091,"","","Prijedor","",15719048,"2022-11-14T12:41:07",3,"NO ERROR",7.95,100,1009.01,11.93,13.96,13.98],
    [970,363171,"Vazduh","Libelium","0004A30B0021DF70",44.979,16.7091,"","","Prijedor","",15719694,"2022-11-14T13:41:49",3,"NO ERROR",8.09,100,1008.71,7.72,8.87,8.89],
    [971,363171,"Vazduh","Libelium","0004A30B0021DF70",44.979,16.7091,"","","Prijedor","",15720323,"2022-11-14T14:42:31",3,"NO ERROR",8.23,100,1008.39,7.08,8.15,8.17],
    [972,363171,"Vazduh","Libelium","0004A30B0021DF70",44.979,16.7091,"","","Prijedor","",15720992,"2022-11-14T15:43:14",3,"NO ERROR",8.29,100,1008.35,9.33,11.26,11.28],
    [973,363171,"Vazduh","Libelium","0004A30B0021DF70",44.979,16.7091,"","","Prijedor","",15722108,"2022-11-14T16:43:56",3,"NO ERROR",8.07,100,1007.77,11.26,14.01,14.06],
    [974,363171,"Vazduh","Libelium","0004A30B0021DF70",44.979,16.7091,"","","Prijedor","",15725237,"2022-11-14T17:44:38",3,"NO ERROR",7.99,100,1007.51,12.62,15.98,16.05],
    [975,363171,"Vazduh","Libelium","0004A30B0021DF70",44.979,16.7091,"","","Prijedor","",15727289,"2022-11-14T18:45:20",3,"NO ERROR",7.95,100,1007.48,13.23,16.28,16.92],
    [976,363171,"Vazduh","Libelium","0004A30B0021DF70",44.979,16.7091,"","","Prijedor","",15728779,"2022-11-14T19:46:02",3,"NO ERROR",7.96,100,1007.33,12.99,16.45,16.53],
    [977,363171,"Vazduh","Libelium","0004A30B0021DF70",44.979,16.7091,"","","Prijedor","",15730187,"2022-11-14T20:46:44",3,"NO ERROR",7.92,100,1007.47,12.62,16.22,16.3],
    [978,363171,"Vazduh","Libelium","0004A30B0021DF70",44.979,16.7091,"","","Prijedor","",15731544,"2022-11-14T21:47:32",3,"NO ERROR",7.64,100,1007.33,14.06,17.47,17.55],
    [979,363171,"Vazduh","Libelium","0004A30B0021DF70",44.979,16.7091,"","","Prijedor","",15732910,"2022-11-14T22:48:14",3,"NO ERROR",7.71,100,1006.77,14.83,18.69,18.79],
    [980,363171,"Vazduh","Libelium","0004A30B0021DF70",44.979,16.7091,"","","Prijedor","",15734307,"2022-11-14T23:48:56",3,"NO ERROR",7.7,100,1006.34,12.06,14.93,14.98],
    [981,363171,"Vazduh","Libelium","0004A30B0021DF70",44.979,16.7091,"","","Prijedor","",15736015,"2022-11-15T00:49:38",3,"NO ERROR",7.6,100,1005.89,16.26,19.99,20.07],
    [982,363171,"Vazduh","Libelium","0004A30B0021DF70",44.979,16.7091,"","","Prijedor","",15737412,"2022-11-15T01:50:21",3,"NO ERROR",7.81,100,1005.69,10.19,12.37,12.43],
    [983,363171,"Vazduh","Libelium","0004A30B0021DF70",44.979,16.7091,"","","Prijedor","",15738793,"2022-11-15T02:51:09",3,"NO ERROR",7.58,100,1005.18,19.37,24.11,24.21],
    [984,363171,"Vazduh","Libelium","0004A30B0021DF70",44.979,16.7091,"","","Prijedor","",15740096,"2022-11-15T03:51:51",3,"NO ERROR",7.53,100,1004.68,10.04,12.27,12.31],
    [985,363171,"Vazduh","Libelium","0004A30B0021DF70",44.979,16.7091,"","","Prijedor","",15741450,"2022-11-15T04:52:33",3,"NO ERROR",7.58,100,1004.49,3.83,4.41,4.41],
    [986,363171,"Vazduh","Libelium","0004A30B0021DF70",44.979,16.7091,"","","Prijedor","",15742737,"2022-11-15T05:53:15",3,"NO ERROR",7.64,100,1004.11,2.87,3.33,3.34],
    [987,363171,"Vazduh","Libelium","0004A30B0021DF70",44.979,16.7091,"","","Prijedor","",15743756,"2022-11-15T06:53:57",3,"NO ERROR",7.58,100,1003.92,2.89,3.33,3.33],
    [988,363171,"Vazduh","Libelium","0004A30B0021DF70",44.979,16.7091,"","","Prijedor","",15744388,"2022-11-15T07:54:39",3,"NO ERROR",7.98,100,1004.16,4.07,4.87,4.88],
    [989,363171,"Vazduh","Libelium","0004A30B0021DF70",44.979,16.7091,"","","Prijedor","",15745054,"2022-11-15T08:55:27",3,"NO ERROR",8.32,100,1004.18,4.97,5.82,5.83],
    [990,363171,"Vazduh","Libelium","0004A30B0021DF70",44.979,16.7091,"","","Prijedor","",15745696,"2022-11-15T09:56:09",3,"NO ERROR",9.05,100,1004.06,2.49,2.96,2.96],
    [991,363171,"Vazduh","Libelium","0004A30B0021DF70",44.979,16.7091,"","","Prijedor","",15746307,"2022-11-15T10:56:51",3,"NO ERROR",10.62,100,1003.73,3.09,3.54,3.54],
    [992,363171,"Vazduh","Libelium","0004A30B0021DF70",44.979,16.7091,"","","Prijedor","",15746891,"2022-11-15T11:57:33",3,"NO ERROR",10.2,100,1003,3.34,3.83,3.83],
    [993,363171,"Vazduh","Libelium","0004A30B0021DF70",44.979,16.7091,"","","Prijedor","",15747509,"2022-11-15T12:58:16",3,"NO ERROR",11.68,100,1001.86,3.85,4.3,4.33],
    [994,363171,"Vazduh","Libelium","0004A30B0021DF70",44.979,16.7091,"","","Prijedor","",15748133,"2022-11-15T13:58:58",3,"NO ERROR",15.42,89.9,1001.04,5.21,6.12,6.15],
    [995,363171,"Vazduh","Libelium","0004A30B0021DF70",44.979,16.7091,"","","Prijedor","",15748765,"2022-11-15T14:59:40",3,"NO ERROR",12.39,100,1000.35,6.39,7.47,7.62],
    [996,363171,"Vazduh","Libelium","0004A30B0021DF70",44.979,16.7091,"","","Prijedor","",15749349,"2022-11-15T16:00:28",3,"NO ERROR",11.26,100,999.95,3.18,3.74,4.27],
    [997,363171,"Vazduh","Libelium","0004A30B0021DF70",44.979,16.7091,"","","Prijedor","",15751009,"2022-11-15T17:01:10",3,"NO ERROR",9.76,100,999.77,6.53,7.96,8.02],
    [998,363171,"Vazduh","Libelium","0004A30B0021DF70",44.979,16.7091,"","","Prijedor","",15752512,"2022-11-15T18:01:52",3,"NO ERROR",8.88,100,999.35,14.25,17.36,18.04],
    [999,363171,"Vazduh","Libelium","0004A30B0021DF70",44.979,16.7091,"","","Prijedor","",15753660,"2022-11-15T19:02:34",3,"NO ERROR",7.84,100,998.77,28.36,34.27,36.09],
    [1000,363171,"Vazduh","Libelium","0004A30B0021DF70",44.979,16.7091,"","","Prijedor","",15754764,"2022-11-15T20:03:16",3,"NO ERROR",7.8,100,998.51,27.16,32.82,33.02],
    [1001,363171,"Vazduh","Libelium","0004A30B0021DF70",44.979,16.7091,"","","Prijedor","",15755927,"2022-11-15T21:03:58",3,"NO ERROR",7.18,100,998.22,11.48,13.57,13.59],
    [1002,363171,"Vazduh","Libelium","0004A30B0021DF70",44.979,16.7091,"","","Prijedor","",15757018,"2022-11-15T22:04:40",3,"NO ERROR",6.49,100,997.84,34.91,44.36,45.15],
    [1003,363171,"Vazduh","Libelium","0004A30B0021DF70",44.979,16.7091,"","","Prijedor","",15758225,"2022-11-15T23:05:22",3,"NO ERROR",6.44,100,997.19,86.12,128.07,396.96],
    [1004,363171,"Vazduh","Libelium","0004A30B0021DF70",44.979,16.7091,"","","Prijedor","",15759762,"2022-11-16T00:06:05",3,"NO ERROR",6.26,100,996.43,128.65,184.49,349.74],
    [1005,363171,"Vazduh","Libelium","0004A30B0021DF70",44.979,16.7091,"","","Prijedor","",15761157,"2022-11-16T01:06:47",3,"NO ERROR",6.22,100,995.45,89.96,139.44,1043.7899],
    [1006,363171,"Vazduh","Libelium","0004A30B0021DF70",44.979,16.7091,"","","Prijedor","",15762506,"2022-11-16T02:07:29",3,"NO ERROR",6.39,100,994.82,69.99,93.91,221.19],
    [1007,363171,"Vazduh","Libelium","0004A30B0021DF70",44.979,16.7091,"","","Prijedor","",15763856,"2022-11-16T03:08:11",3,"NO ERROR",6.53,100,994.09,20.95,24.95,25.01],
    [1008,363171,"Vazduh","Libelium","0004A30B0021DF70",44.979,16.7091,"","","Prijedor","",15765219,"2022-11-16T04:08:53",3,"NO ERROR",6.78,100,993.46,18.2,21.95,22.01],
    [1009,363171,"Vazduh","Libelium","0004A30B0021DF70",44.979,16.7091,"","","Prijedor","",15766522,"2022-11-16T05:09:35",3,"NO ERROR",7.2,100,992.76,18.38,21.68,21.87],
    [1010,363171,"Vazduh","Libelium","0004A30B0021DF70",44.979,16.7091,"","","Prijedor","",15767800,"2022-11-16T06:10:17",3,"NO ERROR",7.57,100,991.95,9.72,11.19,11.21],
    [1011,363171,"Vazduh","Libelium","0004A30B0021DF70",44.979,16.7091,"","","Prijedor","",15768556,"2022-11-16T07:10:59",3,"NO ERROR",7.9,100,991.21,3.97,4.56,4.57],
    [1012,363171,"Vazduh","Libelium","0004A30B0021DF70",44.979,16.7091,"","","Prijedor","",15769161,"2022-11-16T08:11:41",3,"NO ERROR",8.25,100,990.66,5.75,6.72,6.73],
    [1013,363171,"Vazduh","Libelium","0004A30B0021DF70",44.979,16.7091,"","","Prijedor","",15769784,"2022-11-16T09:12:23",3,"NO ERROR",9.68,100,990.2,2.12,2.68,2.72],
    [1014,363171,"Vazduh","Libelium","0004A30B0021DF70",44.979,16.7091,"","","Prijedor","",15770385,"2022-11-16T10:13:05",3,"NO ERROR",10.93,100,989.91,1.86,2.1,2.1],
    [1015,363171,"Vazduh","Libelium","0004A30B0021DF70",44.979,16.7091,"","","Prijedor","",15770991,"2022-11-16T11:13:48",3,"NO ERROR",11.52,100,989.3,1.46,1.78,1.79],
    [1016,363171,"Vazduh","Libelium","0004A30B0021DF70",44.979,16.7091,"","","Prijedor","",15771560,"2022-11-16T12:14:30",3,"NO ERROR",11.96,100,988.72,5.96,7.28,26.58],
    [1017,363171,"Vazduh","Libelium","0004A30B0021DF70",44.979,16.7091,"","","Prijedor","",15772129,"2022-11-16T13:15:12",3,"NO ERROR",12.87,100,987.72,6.5,7.68,7.82],
    [1018,363171,"Vazduh","Libelium","0004A30B0021DF70",44.979,16.7091,"","","Prijedor","",15772708,"2022-11-16T14:15:54",3,"NO ERROR",14.27,100,987.08,1.3,1.55,1.58],
    [1019,363171,"Vazduh","Libelium","0004A30B0021DF70",44.979,16.7091,"","","Prijedor","",15773335,"2022-11-16T15:16:36",3,"NO ERROR",13.68,100,986.79,1.78,2.26,2.38],
    [1020,363171,"Vazduh","Libelium","0004A30B0021DF70",44.979,16.7091,"","","Prijedor","",15773901,"2022-11-16T16:17:24",3,"NO ERROR",13.03,100,986.63,11.29,13.48,13.52],
    [1021,363171,"Vazduh","Libelium","0004A30B0021DF70",44.979,16.7091,"","","Prijedor","",15776608,"2022-11-16T17:18:06",3,"NO ERROR",12.81,100,986.74,57.98,69.2,70.98],
    [1022,363171,"Vazduh","Libelium","0004A30B0021DF70",44.979,16.7091,"","","Prijedor","",15778950,"2022-11-16T18:18:48",3,"NO ERROR",11.81,100,987.16,2.94,3.84,13.81],
    [1023,363171,"Vazduh","Libelium","0004A30B0021DF70",44.979,16.7091,"","","Prijedor","",15780723,"2022-11-16T19:19:30",3,"NO ERROR",11.15,100,985.07,0.45,0.67,0.68],
    [1024,363171,"Vazduh","Libelium","0004A30B0021DF70",44.979,16.7091,"","","Prijedor","",15782084,"2022-11-16T20:20:12",3,"NO ERROR",10.53,100,983.76,0.08,0.09,0.09],
    [1025,363171,"Vazduh","Libelium","0004A30B0021DF70",44.979,16.7091,"","","Prijedor","",15783404,"2022-11-16T21:21:01",3,"NO ERROR",10.06,100,982.53,0.57,0.72,0.72],
    [1026,363171,"Vazduh","Libelium","0004A30B0021DF70",44.979,16.7091,"","","Prijedor","",15784655,"2022-11-16T22:21:49",3,"NO ERROR",9.79,100,982.01,1.6,2.05,2.08],
    [1027,363171,"Vazduh","Libelium","0004A30B0021DF70",44.979,16.7091,"","","Prijedor","",15785855,"2022-11-16T23:22:31",3,"NO ERROR",9.57,100,981.79,1.16,1.29,1.29],
    [1028,363171,"Vazduh","Libelium","0004A30B0021DF70",44.979,16.7091,"","","Prijedor","",15787464,"2022-11-17T00:23:13",3,"NO ERROR",9.48,100,981.75,2.62,3.02,3.03],
    [1029,363171,"Vazduh","Libelium","0004A30B0021DF70",44.979,16.7091,"","","Prijedor","",15788917,"2022-11-17T01:23:55",3,"NO ERROR",9.16,100,980.88,8.54,10.15,10.21],
    [1030,363171,"Vazduh","Libelium","0004A30B0021DF70",44.979,16.7091,"","","Prijedor","",15790254,"2022-11-17T02:24:37",3,"NO ERROR",8.95,100,980.33,6.33,7.61,7.64],
    [1031,363171,"Vazduh","Libelium","0004A30B0021DF70",44.979,16.7091,"","","Prijedor","",15791678,"2022-11-17T03:25:19",3,"NO ERROR",8.43,100,979.06,11.58,14.33,14.42],
    [1032,363171,"Vazduh","Libelium","0004A30B0021DF70",44.979,16.7091,"","","Prijedor","",15793081,"2022-11-17T04:26:01",3,"NO ERROR",7.42,100,976.45,11.97,14.51,14.56],
    [1033,363171,"Vazduh","Libelium","0004A30B0021DF70",44.979,16.7091,"","","Prijedor","",15794464,"2022-11-17T05:26:43",3,"NO ERROR",7.68,100,978.45,15.31,19.13,19.23],
    [1034,363171,"Vazduh","Libelium","0004A30B0021DF70",44.979,16.7091,"","","Prijedor","",15795720,"2022-11-17T06:27:25",3,"NO ERROR",7.6,100,978.26,22.95,28.96,29.08],
    [1035,363171,"Vazduh","Libelium","0004A30B0021DF70",44.979,16.7091,"","","Prijedor","",15796330,"2022-11-17T07:28:07",3,"NO ERROR",8.2,100,980.45,15.89,19.58,19.64],
    [1036,363171,"Vazduh","Libelium","0004A30B0021DF70",44.979,16.7091,"","","Prijedor","",15796886,"2022-11-17T08:28:50",3,"NO ERROR",8.96,100,983.27,5.93,7.19,7.21],
    [1037,363171,"Vazduh","Libelium","0004A30B0021DF70",44.979,16.7091,"","","Prijedor","",15797489,"2022-11-17T09:29:32",3,"NO ERROR",9.36,100,989.46,4.44,5.31,5.33],
    [1038,363171,"Vazduh","Libelium","0004A30B0021DF70",44.979,16.7091,"","","Prijedor","",15798040,"2022-11-17T10:30:14",3,"NO ERROR",10.16,100,989.23,0.93,1,1],
    [1039,363171,"Vazduh","Libelium","0004A30B0021DF70",44.979,16.7091,"","","Prijedor","",15798632,"2022-11-17T11:30:56",3,"NO ERROR",10.29,100,988.6,0.75,0.81,0.81],
    [1040,363171,"Vazduh","Libelium","0004A30B0021DF70",44.979,16.7091,"","","Prijedor","",15799194,"2022-11-17T12:31:38",3,"NO ERROR",11.11,100,988.52,0.37,0.56,0.76],
    [1041,363171,"Vazduh","Libelium","0004A30B0021DF70",44.979,16.7091,"","","Prijedor","",15799788,"2022-11-17T13:32:20",3,"NO ERROR",11.42,100,988.61,0.52,0.58,0.58],
    [1042,363171,"Vazduh","Libelium","0004A30B0021DF70",44.979,16.7091,"","","Prijedor","",15800340,"2022-11-17T14:33:02",3,"NO ERROR",11.78,100,988.62,1.48,1.88,1.92],
    [1043,363171,"Vazduh","Libelium","0004A30B0021DF70",44.979,16.7091,"","","Prijedor","",15800921,"2022-11-17T15:33:44",3,"NO ERROR",11.37,100,988.7,1.02,1.18,1.18],
    [1044,363171,"Vazduh","Libelium","0004A30B0021DF70",44.979,16.7091,"","","Prijedor","",15801562,"2022-11-17T16:34:26",3,"NO ERROR",10.3,100,989.18,3.43,4.12,4.13],
    [1045,363171,"Vazduh","Libelium","0004A30B0021DF70",44.979,16.7091,"","","Prijedor","",15804569,"2022-11-17T17:35:08",3,"NO ERROR",9.6,100,989.25,9.06,11.82,55.33],
    [1046,363171,"Vazduh","Libelium","0004A30B0021DF70",44.979,16.7091,"","","Prijedor","",15806473,"2022-11-17T18:35:51",3,"NO ERROR",9.79,100,989.53,27.38,37.98,172.38],
    [1047,363171,"Vazduh","Libelium","0004A30B0021DF70",44.979,16.7091,"","","Prijedor","",15807974,"2022-11-17T19:36:33",3,"NO ERROR",10.18,100,989.29,20.23,25.83,32.7],
    [1048,363171,"Vazduh","Libelium","0004A30B0021DF70",44.979,16.7091,"","","Prijedor","",15809374,"2022-11-17T20:37:15",3,"NO ERROR",9.54,100,989.26,25.69,37.39,239.7],
    [1049,363171,"Vazduh","Libelium","0004A30B0021DF70",44.979,16.7091,"","","Prijedor","",15810659,"2022-11-17T21:37:57",3,"NO ERROR",9.7,100,989.37,35.05,53.95,142.68],
    [1050,363171,"Vazduh","Libelium","0004A30B0021DF70",44.979,16.7091,"","","Prijedor","",15811934,"2022-11-17T22:38:39",3,"NO ERROR",9.37,100,989.17,27.22,44.81,324.44],
    [1051,363171,"Vazduh","Libelium","0004A30B0021DF70",44.979,16.7091,"","","Prijedor","",15813214,"2022-11-17T23:39:21",3,"NO ERROR",9.51,100,988.84,39.67,55.92,81.11],
    [1052,363171,"Vazduh","Libelium","0004A30B0021DF70",44.979,16.7091,"","","Prijedor","",15814818,"2022-11-18T00:40:03",3,"NO ERROR",9.55,100,988.26,19.35,25,25.14],
    [1053,363171,"Vazduh","Libelium","0004A30B0021DF70",44.979,16.7091,"","","Prijedor","",15816201,"2022-11-18T01:40:45",3,"NO ERROR",9.44,100,987.69,24.11,32.42,32.79],
    [1054,363171,"Vazduh","Libelium","0004A30B0021DF70",44.979,16.7091,"","","Prijedor","",15817524,"2022-11-18T02:41:27",3,"NO ERROR",9.55,100,986.87,62.6,95.54,217.76],
    [1055,363171,"Vazduh","Libelium","0004A30B0021DF70",44.979,16.7091,"","","Prijedor","",15818965,"2022-11-18T03:42:09",3,"NO ERROR",9.63,100,986.26,15.42,19.28,19.35],
    [1056,363171,"Vazduh","Libelium","0004A30B0021DF70",44.979,16.7091,"","","Prijedor","",15820357,"2022-11-18T04:42:51",3,"NO ERROR",9.31,100,985.52,48.02,69.21,106.9],
    [1057,363171,"Vazduh","Libelium","0004A30B0021DF70",44.979,16.7091,"","","Prijedor","",15821747,"2022-11-18T05:43:34",3,"NO ERROR",9.71,100,985.51,11.03,13.39,13.6],
    [1058,363171,"Vazduh","Libelium","0004A30B0021DF70",44.979,16.7091,"","","Prijedor","",15822909,"2022-11-18T06:44:16",3,"NO ERROR",9.88,100,985.45,8.06,9.79,9.82],
    [1059,363171,"Vazduh","Libelium","0004A30B0021DF70",44.979,16.7091,"","","Prijedor","",15823606,"2022-11-18T07:44:58",3,"NO ERROR",10.02,100,984.77,19.48,23.12,23.17],
    [1060,363171,"Vazduh","Libelium","0004A30B0021DF70",44.979,16.7091,"","","Prijedor","",15824267,"2022-11-18T08:45:40",3,"NO ERROR",10.87,100,984.48,1.68,2.24,2.41],
    [1061,363171,"Vazduh","Libelium","0004A30B0021DF70",44.979,16.7091,"","","Prijedor","",15824901,"2022-11-18T09:46:22",3,"NO ERROR",11.06,100,983.6,1.31,1.66,1.67],
    [1062,363171,"Vazduh","Libelium","0004A30B0021DF70",44.979,16.7091,"","","Prijedor","",15825510,"2022-11-18T10:47:04",3,"NO ERROR",11.06,100,984.41,1.38,1.58,1.58],
    [1063,363171,"Vazduh","Libelium","0004A30B0021DF70",44.979,16.7091,"","","Prijedor","",15826109,"2022-11-18T11:47:46",3,"NO ERROR",11.68,100,987.35,0.94,1.04,1.04],
    [1064,363171,"Vazduh","Libelium","0004A30B0021DF70",44.979,16.7091,"","","Prijedor","",15826722,"2022-11-18T12:48:28",3,"NO ERROR",11.55,100,986.66,0.84,1,1.01],
    [1065,363171,"Vazduh","Libelium","0004A30B0021DF70",44.979,16.7091,"","","Prijedor","",15827378,"2022-11-18T13:49:10",3,"NO ERROR",11.87,100,988.03,3.39,4.13,4.15],
    [1066,363171,"Vazduh","Libelium","0004A30B0021DF70",44.979,16.7091,"","","Prijedor","",15828012,"2022-11-18T14:49:53",3,"NO ERROR",12.28,100,989.04,0.54,0.69,0.72],
    [1067,363171,"Vazduh","Libelium","0004A30B0021DF70",44.979,16.7091,"","","Prijedor","",15828652,"2022-11-18T15:50:35",3,"NO ERROR",11.95,100,985.25,0.78,0.83,0.83],
    [1068,363171,"Vazduh","Libelium","0004A30B0021DF70",44.979,16.7091,"","","Prijedor","",15830220,"2022-11-18T16:51:17",3,"NO ERROR",10.57,100,982.5,3.3,3.75,3.75],
    [1069,363171,"Vazduh","Libelium","0004A30B0021DF70",44.979,16.7091,"","","Prijedor","",15832920,"2022-11-18T17:51:59",3,"NO ERROR",9.9,100,980.98,0.38,0.5,0.52],
    [1070,363171,"Vazduh","Libelium","0004A30B0021DF70",44.979,16.7091,"","","Prijedor","",15834778,"2022-11-18T18:52:41",3,"NO ERROR",9.34,100,980,0.53,0.7,0.71],
    [1071,363171,"Vazduh","Libelium","0004A30B0021DF70",44.979,16.7091,"","","Prijedor","",15836291,"2022-11-18T19:53:23",3,"NO ERROR",9.42,100,980.69,2.35,2.92,2.95],
    [1072,363171,"Vazduh","Libelium","0004A30B0021DF70",44.979,16.7091,"","","Prijedor","",15837677,"2022-11-18T20:54:05",3,"NO ERROR",9.31,100,980.87,1.21,1.56,1.69],
    [1073,363171,"Vazduh","Libelium","0004A30B0021DF70",44.979,16.7091,"","","Prijedor","",15839038,"2022-11-18T21:54:47",3,"NO ERROR",8.81,100,978.89,1.87,2.31,2.32],
    [1074,363171,"Vazduh","Libelium","0004A30B0021DF70",44.979,16.7091,"","","Prijedor","",15840376,"2022-11-18T22:55:29",3,"NO ERROR",7.83,100,975.46,2.29,2.72,2.72],
    [1075,363171,"Vazduh","Libelium","0004A30B0021DF70",44.979,16.7091,"","","Prijedor","",15841672,"2022-11-18T23:56:11",3,"NO ERROR",7.46,100,974.31,6.69,7.89,7.93],
    [1076,363171,"Vazduh","Libelium","0004A30B0021DF70",44.979,16.7091,"","","Prijedor","",15843286,"2022-11-19T00:56:54",3,"NO ERROR",6.75,100,972.4,6.84,7.91,7.94],
    [1077,363171,"Vazduh","Libelium","0004A30B0021DF70",44.979,16.7091,"","","Prijedor","",15844746,"2022-11-19T01:57:36",3,"NO ERROR",5.79,100,969.04,27.67,37.6,85.01],
    [1078,363171,"Vazduh","Libelium","0004A30B0021DF70",44.979,16.7091,"","","Prijedor","",15846183,"2022-11-19T02:58:24",3,"NO ERROR",5.93,100,969.51,150.29,243.86,388.37],
    [1079,363171,"Vazduh","Libelium","0004A30B0021DF70",44.979,16.7091,"","","Prijedor","",15847575,"2022-11-19T03:59:06",3,"NO ERROR",5.23,100,967.51,43.01,59.46,132.53],
    [1080,363171,"Vazduh","Libelium","0004A30B0021DF70",44.979,16.7091,"","","Prijedor","",15849048,"2022-11-19T04:59:48",3,"NO ERROR",5.42,100,968.22,37.41,56.16,174.92],
    [1081,363171,"Vazduh","Libelium","0004A30B0021DF70",44.979,16.7091,"","","Prijedor","",15850548,"2022-11-19T06:00:30",3,"NO ERROR",5.21,100,968.56,30.81,48.73,188.31],
    [1082,363171,"Vazduh","Libelium","0004A30B0021DF70",44.979,16.7091,"","","Prijedor","",15851705,"2022-11-19T07:01:12",3,"NO ERROR",4.92,100,968.56,16.58,21.33,26.63],
    [1083,363171,"Vazduh","Libelium","0004A30B0021DF70",44.979,16.7091,"","","Prijedor","",15852448,"2022-11-19T08:01:54",3,"NO ERROR",5.21,100,970.33,9.65,11.87,11.94],
    [1084,363171,"Vazduh","Libelium","0004A30B0021DF70",44.979,16.7091,"","","Prijedor","",15853165,"2022-11-19T09:02:36",3,"NO ERROR",5.86,100,994.98,25.15,37.54,104.09],
    [1085,363171,"Vazduh","Libelium","0004A30B0021DF70",44.979,16.7091,"","","Prijedor","",15853873,"2022-11-19T10:03:19",3,"NO ERROR",6.95,100,995.13,5.81,6.75,6.77],
    [1086,363171,"Vazduh","Libelium","0004A30B0021DF70",44.979,16.7091,"","","Prijedor","",15854647,"2022-11-19T11:04:07",3,"NO ERROR",8.22,100,996.02,1.71,2.11,2.28],
    [1087,363171,"Vazduh","Libelium","0004A30B0021DF70",44.979,16.7091,"","","Prijedor","",15855401,"2022-11-19T12:04:49",3,"NO ERROR",8.67,100,995.14,0.84,0.89,0.89],
    [1088,363171,"Vazduh","Libelium","0004A30B0021DF70",44.979,16.7091,"","","Prijedor","",15856088,"2022-11-19T13:05:31",3,"NO ERROR",8.76,100,994.95,0.57,0.59,0.59],
    [1089,363171,"Vazduh","Libelium","0004A30B0021DF70",44.979,16.7091,"","","Prijedor","",15856733,"2022-11-19T14:06:13",3,"NO ERROR",8.88,100,994.71,0.78,0.95,0.95],
    [1090,363171,"Vazduh","Libelium","0004A30B0021DF70",44.979,16.7091,"","","Prijedor","",15857370,"2022-11-19T15:06:55",3,"NO ERROR",8.6,100,994.72,1.31,1.46,1.47],
    [1091,363171,"Vazduh","Libelium","0004A30B0021DF70",44.979,16.7091,"","","Prijedor","",15858063,"2022-11-19T16:07:37",3,"NO ERROR",8.26,100,994.45,3.16,3.6,3.6],
    [1092,363171,"Vazduh","Libelium","0004A30B0021DF70",44.979,16.7091,"","","Prijedor","",15860147,"2022-11-19T17:08:19",3,"NO ERROR",8.07,100,994.45,15.41,18.42,18.49],
    [1093,363171,"Vazduh","Libelium","0004A30B0021DF70",44.979,16.7091,"","","Prijedor","",15861947,"2022-11-19T18:09:02",3,"NO ERROR",8.03,100,994.44,14.23,16.83,16.87],
    [1094,363171,"Vazduh","Libelium","0004A30B0021DF70",44.979,16.7091,"","","Prijedor","",15863510,"2022-11-19T19:09:44",3,"NO ERROR",8.01,100,994.2,21.63,26.37,26.44],
    [1095,363171,"Vazduh","Libelium","0004A30B0021DF70",44.979,16.7091,"","","Prijedor","",15864871,"2022-11-19T20:10:26",3,"NO ERROR",7.69,100,994.34,0.82,0.95,0.95],
    [1096,363171,"Vazduh","Libelium","0004A30B0021DF70",44.979,16.7091,"","","Prijedor","",15866291,"2022-11-19T21:11:08",3,"NO ERROR",6.45,100,990.95,0.32,0.51,0.54],
    [1097,363171,"Vazduh","Libelium","0004A30B0021DF70",44.979,16.7091,"","","Prijedor","",15867590,"2022-11-19T22:11:50",3,"NO ERROR",6.9,100,993,0.62,0.77,0.77],
    [1098,363171,"Vazduh","Libelium","0004A30B0021DF70",44.979,16.7091,"","","Prijedor","",15868951,"2022-11-19T23:12:32",3,"NO ERROR",7.06,100,993.42,0.19,0.2,0.2],
    [1099,363171,"Vazduh","Libelium","0004A30B0021DF70",44.979,16.7091,"","","Prijedor","",15870549,"2022-11-20T00:13:14",3,"NO ERROR",6.44,100,990.98,0.32,0.39,0.39],
    [1100,363171,"Vazduh","Libelium","0004A30B0021DF70",44.979,16.7091,"","","Prijedor","",15872394,"2022-11-20T01:13:56",3,"NO ERROR",6.49,100,991.28,0.17,0.18,0.18],
    [1101,363171,"Vazduh","Libelium","0004A30B0021DF70",44.979,16.7091,"","","Prijedor","",15874073,"2022-11-20T02:14:38",3,"NO ERROR",6.15,100,990.16,0.08,0.1,0.1],
    [1102,363171,"Vazduh","Libelium","0004A30B0021DF70",44.979,16.7091,"","","Prijedor","",15875742,"2022-11-20T03:15:20",3,"NO ERROR",5.94,100,989.58,0.72,0.82,0.83],
    [1103,363171,"Vazduh","Libelium","0004A30B0021DF70",44.979,16.7091,"","","Prijedor","",15877362,"2022-11-20T04:16:03",3,"NO ERROR",5.76,100,988.95,1.43,1.75,1.75],
    [1104,363171,"Vazduh","Libelium","0004A30B0021DF70",44.979,16.7091,"","","Prijedor","",15879044,"2022-11-20T05:16:45",3,"NO ERROR",5.77,100,989.26,0.42,0.46,0.46],
    [1105,363171,"Vazduh","Libelium","0004A30B0021DF70",44.979,16.7091,"","","Prijedor","",15880652,"2022-11-20T06:17:27",3,"NO ERROR",5.56,100,988.91,0.57,0.65,0.66],
    [1106,363171,"Vazduh","Libelium","0004A30B0021DF70",44.979,16.7091,"","","Prijedor","",15881775,"2022-11-20T07:18:09",3,"NO ERROR",5.56,100,989.17,0.3,0.34,0.34],
    [1107,363171,"Vazduh","Libelium","0004A30B0021DF70",44.979,16.7091,"","","Prijedor","",15882747,"2022-11-20T08:18:51",3,"NO ERROR",5.75,100,989.89,0.1,0.1,0.1],
    [1108,363171,"Vazduh","Libelium","0004A30B0021DF70",44.979,16.7091,"","","Prijedor","",15883716,"2022-11-20T09:19:33",3,"NO ERROR",5.74,100,990.1,0.82,1.04,1.04],
    [1109,363171,"Vazduh","Libelium","0004A30B0021DF70",44.979,16.7091,"","","Prijedor","",15884510,"2022-11-20T10:20:15",3,"NO ERROR",5.73,100,990.22,1.09,1.39,1.39],
    [1110,363171,"Vazduh","Libelium","0004A30B0021DF70",44.979,16.7091,"","","Prijedor","",15885303,"2022-11-20T11:21:04",3,"NO ERROR",5.64,100,990.72,0.07,0.07,0.07],
    [1111,363171,"Vazduh","Libelium","0004A30B0021DF70",44.979,16.7091,"","","Prijedor","",15886048,"2022-11-20T12:21:46",3,"NO ERROR",5.79,100,991.44,0.04,0.07,0.07],
    [1112,363171,"Vazduh","Libelium","0004A30B0021DF70",44.979,16.7091,"","","Prijedor","",15886857,"2022-11-20T13:22:28",3,"NO ERROR",6.11,100,992.7,0.05,0.05,0.05],
    [1113,363171,"Vazduh","Libelium","0004A30B0021DF70",44.979,16.7091,"","","Prijedor","",15887611,"2022-11-20T14:23:10",3,"NO ERROR",5.94,100,991.94,0.15,0.2,0.2],
    [1114,363171,"Vazduh","Libelium","0004A30B0021DF70",44.979,16.7091,"","","Prijedor","",15888390,"2022-11-20T15:23:52",3,"NO ERROR",5.65,100,990.47,0.25,0.26,0.26],
    [1115,363171,"Vazduh","Libelium","0004A30B0021DF70",44.979,16.7091,"","","Prijedor","",15889122,"2022-11-20T16:24:34",3,"NO ERROR",5.49,100,989.99,0.49,0.53,0.53],
    [1116,363171,"Vazduh","Libelium","0004A30B0021DF70",44.979,16.7091,"","","Prijedor","",15891876,"2022-11-20T17:25:16",3,"NO ERROR",5.59,100,990.1,1.44,1.66,1.66],
    [1117,363171,"Vazduh","Libelium","0004A30B0021DF70",44.979,16.7091,"","","Prijedor","",15894104,"2022-11-20T18:25:58",3,"NO ERROR",5.64,100,990.44,3.66,4.16,4.17],
    [1118,363171,"Vazduh","Libelium","0004A30B0021DF70",44.979,16.7091,"","","Prijedor","",15895937,"2022-11-20T19:26:40",3,"NO ERROR",5.58,100,990.28,2.57,3.06,3.07],
    [1119,363171,"Vazduh","Libelium","0004A30B0021DF70",44.979,16.7091,"","","Prijedor","",15897610,"2022-11-20T20:27:22",3,"NO ERROR",5.47,100,989.8,4.72,5.64,5.79],
    [1120,363171,"Vazduh","Libelium","0004A30B0021DF70",44.979,16.7091,"","","Prijedor","",15899142,"2022-11-20T21:28:11",3,"NO ERROR",5.52,100,997.9,5.09,6,6.01],
    [1121,363171,"Vazduh","Libelium","0004A30B0021DF70",44.979,16.7091,"","","Prijedor","",15900569,"2022-11-20T22:28:53",3,"NO ERROR",5.4,100,997.87,7.54,9.07,9.09],
    [1122,363171,"Vazduh","Libelium","0004A30B0021DF70",44.979,16.7091,"","","Prijedor","",15902060,"2022-11-20T23:29:35",3,"NO ERROR",5.36,100,997.13,7.71,9.2,9.23],
    [1123,363171,"Vazduh","Libelium","0004A30B0021DF70",44.979,16.7091,"","","Prijedor","",15903882,"2022-11-21T00:30:17",3,"NO ERROR",5.52,100,996.59,7.43,8.9,8.93],
    [1124,363171,"Vazduh","Libelium","0004A30B0021DF70",44.979,16.7091,"","","Prijedor","",15905565,"2022-11-21T01:30:59",3,"NO ERROR",5.47,100,996.22,3.8,4.45,4.46],
    [1125,363171,"Vazduh","Libelium","0004A30B0021DF70",44.979,16.7091,"","","Prijedor","",15907144,"2022-11-21T02:31:41",3,"NO ERROR",5.18,100,995.78,2.93,3.4,3.41],
    [1126,363171,"Vazduh","Libelium","0004A30B0021DF70",44.979,16.7091,"","","Prijedor","",15908703,"2022-11-21T03:32:23",3,"NO ERROR",5.28,100,995.94,4.17,4.96,4.97],
    [1127,363171,"Vazduh","Libelium","0004A30B0021DF70",44.979,16.7091,"","","Prijedor","",15910205,"2022-11-21T04:33:05",3,"NO ERROR",4.97,100,995.56,4.01,4.78,4.8],
    [1128,363171,"Vazduh","Libelium","0004A30B0021DF70",44.979,16.7091,"","","Prijedor","",15911764,"2022-11-21T05:33:47",3,"NO ERROR",5.04,100,995.88,3.21,3.66,3.66],
    [1129,363171,"Vazduh","Libelium","0004A30B0021DF70",44.979,16.7091,"","","Prijedor","",15913209,"2022-11-21T06:34:30",3,"NO ERROR",4.86,100,996.09,4.36,4.91,4.92],
    [1130,363171,"Vazduh","Libelium","0004A30B0021DF70",44.979,16.7091,"","","Prijedor","",15914027,"2022-11-21T07:35:12",3,"NO ERROR",5.09,100,996.22,2.58,3.06,3.07],
    [1131,363171,"Vazduh","Libelium","0004A30B0021DF70",44.979,16.7091,"","","Prijedor","",15914805,"2022-11-21T08:35:54",3,"NO ERROR",5.91,100,996.24,0.69,0.83,0.83],
    [1132,363171,"Vazduh","Libelium","0004A30B0021DF70",44.979,16.7091,"","","Prijedor","",15915608,"2022-11-21T09:36:36",3,"NO ERROR",5.93,100,996.52,0.26,0.29,0.3],
    [1133,363171,"Vazduh","Libelium","0004A30B0021DF70",44.979,16.7091,"","","Prijedor","",15916335,"2022-11-21T10:37:24",3,"NO ERROR",7.33,100,996.64,0.75,0.84,0.85],
    [1134,363171,"Vazduh","Libelium","0004A30B0021DF70",44.979,16.7091,"","","Prijedor","",15917106,"2022-11-21T11:38:06",3,"NO ERROR",7.61,100,995.69,0.88,1.02,1.03],
    [1135,363171,"Vazduh","Libelium","0004A30B0021DF70",44.979,16.7091,"","","Prijedor","",15917863,"2022-11-21T12:38:48",3,"NO ERROR",8.15,100,995.11,0.24,0.25,0.25],
    [1136,363171,"Vazduh","Libelium","0004A30B0021DF70",44.979,16.7091,"","","Prijedor","",15918619,"2022-11-21T13:39:31",3,"NO ERROR",9.61,100,994.86,0.57,0.6,0.6],
    [1137,363171,"Vazduh","Libelium","0004A30B0021DF70",44.979,16.7091,"","","Prijedor","",15919345,"2022-11-21T14:40:13",3,"NO ERROR",12.69,80.1,994.62,0.39,0.43,0.43],
    [1138,363171,"Vazduh","Libelium","0004A30B0021DF70",44.979,16.7091,"","","Prijedor","",15920117,"2022-11-21T15:40:55",3,"NO ERROR",10.84,89.7,994.57,0.52,0.61,0.62],
    [1139,363171,"Vazduh","Libelium","0004A30B0021DF70",44.979,16.7091,"","","Prijedor","",15921364,"2022-11-21T16:41:37",3,"NO ERROR",6.86,100,994.62,0.46,0.53,0.54],
    [1140,363171,"Vazduh","Libelium","0004A30B0021DF70",44.979,16.7091,"","","Prijedor","",15923996,"2022-11-21T17:42:19",3,"NO ERROR",5.84,100,994.12,0.92,1.02,1.02],
    [1141,363171,"Vazduh","Libelium","0004A30B0021DF70",44.979,16.7091,"","","Prijedor","",15925788,"2022-11-21T18:43:01",3,"NO ERROR",4.68,100,994.36,2.15,2.56,2.56],
    [1142,363171,"Vazduh","Libelium","0004A30B0021DF70",44.979,16.7091,"","","Prijedor","",15927275,"2022-11-21T19:43:43",3,"NO ERROR",4.07,100,993.93,3.11,3.62,3.62],
    [1143,363171,"Vazduh","Libelium","0004A30B0021DF70",44.979,16.7091,"","","Prijedor","",15928689,"2022-11-21T20:44:25",3,"NO ERROR",2.66,100,993.98,15.58,18.53,19.26],
    [1144,363171,"Vazduh","Libelium","0004A30B0021DF70",44.979,16.7091,"","","Prijedor","",15930068,"2022-11-21T21:45:07",3,"NO ERROR",2.62,100,993.93,6.81,7.86,7.88],
    [1145,363171,"Vazduh","Libelium","0004A30B0021DF70",44.979,16.7091,"","","Prijedor","",15931405,"2022-11-21T22:45:49",3,"NO ERROR",1.78,100,993.35,13.02,15.26,15.3],
    [1146,363171,"Vazduh","Libelium","0004A30B0021DF70",44.979,16.7091,"","","Prijedor","",15932714,"2022-11-21T23:46:32",3,"NO ERROR",1.69,100,992.89,61.65,95.01,378.04],
    [1147,363171,"Vazduh","Libelium","0004A30B0021DF70",44.979,16.7091,"","","Prijedor","",15934494,"2022-11-22T00:47:14",3,"NO ERROR",0.94,100,991.9,13.18,16.45,16.54],
    [1148,363171,"Vazduh","Libelium","0004A30B0021DF70",44.979,16.7091,"","","Prijedor","",15935873,"2022-11-22T01:47:56",3,"NO ERROR",0.88,100,991.17,10.43,12.64,12.71],
    [1149,363171,"Vazduh","Libelium","0004A30B0021DF70",44.979,16.7091,"","","Prijedor","",15937196,"2022-11-22T02:48:38",3,"NO ERROR",1.13,100,991.08,4.04,4.86,4.88],
    [1150,363171,"Vazduh","Libelium","0004A30B0021DF70",44.979,16.7091,"","","Prijedor","",15938501,"2022-11-22T03:49:20",3,"NO ERROR",0.64,100,989.71,2.14,2.62,2.63],
    [1151,363171,"Vazduh","Libelium","0004A30B0021DF70",44.979,16.7091,"","","Prijedor","",15939804,"2022-11-22T04:50:02",3,"NO ERROR",1.03,100,988.53,2.93,3.42,3.43],
    [1152,363171,"Vazduh","Libelium","0004A30B0021DF70",44.979,16.7091,"","","Prijedor","",15941069,"2022-11-22T05:50:44",3,"NO ERROR",2.14,100,987.72,1.27,1.54,1.55],
    [1153,363171,"Vazduh","Libelium","0004A30B0021DF70",44.979,16.7091,"","","Prijedor","",15942184,"2022-11-22T06:51:27",3,"NO ERROR",2.29,100,986.45,1.03,1.19,1.19],
    [1154,363171,"Vazduh","Libelium","0004A30B0021DF70",44.979,16.7091,"","","Prijedor","",15942832,"2022-11-22T07:52:09",3,"NO ERROR",3.36,100,986.29,0.62,0.91,1.17],
    [1155,363171,"Vazduh","Libelium","0004A30B0021DF70",44.979,16.7091,"","","Prijedor","",15943501,"2022-11-22T08:52:57",3,"NO ERROR",3.83,100,985.47,1.6,1.95,1.96],
    [1156,363171,"Vazduh","Libelium","0004A30B0021DF70",44.979,16.7091,"","","Prijedor","",15944113,"2022-11-22T09:53:39",3,"NO ERROR",4.56,100,984.62,2.39,2.82,2.83],
    [1157,363171,"Vazduh","Libelium","0004A30B0021DF70",44.979,16.7091,"","","Prijedor","",15944705,"2022-11-22T10:54:21",3,"NO ERROR",5.5,100,983.46,3.5,4.15,4.15],
    [1158,363171,"Vazduh","Libelium","0004A30B0021DF70",44.979,16.7091,"","","Prijedor","",15945325,"2022-11-22T11:55:03",3,"NO ERROR",6.12,100,981.8,1.87,2.3,2.32],
    [1159,363171,"Vazduh","Libelium","0004A30B0021DF70",44.979,16.7091,"","","Prijedor","",15945945,"2022-11-22T12:55:45",3,"NO ERROR",6.87,100,980.47,1.46,1.88,1.89],
    [1160,363171,"Vazduh","Libelium","0004A30B0021DF70",44.979,16.7091,"","","Prijedor","",15946572,"2022-11-22T13:56:34",3,"NO ERROR",7.39,100,979.41,0.12,0.16,0.16],
    [1161,363171,"Vazduh","Libelium","0004A30B0021DF70",44.979,16.7091,"","","Prijedor","",15947231,"2022-11-22T14:57:16",3,"NO ERROR",7.33,100,978.79,0.5,0.6,0.61],
    [1162,363171,"Vazduh","Libelium","0004A30B0021DF70",44.979,16.7091,"","","Prijedor","",15947847,"2022-11-22T15:57:58",3,"NO ERROR",6.9,100,978.66,0.64,0.76,0.76],
    [1163,363171,"Vazduh","Libelium","0004A30B0021DF70",44.979,16.7091,"","","Prijedor","",15950067,"2022-11-22T16:58:40",3,"NO ERROR",6.64,100,979.06,0.81,0.86,0.86],
    [1164,363171,"Vazduh","Libelium","0004A30B0021DF70",44.979,16.7091,"","","Prijedor","",15952588,"2022-11-22T17:59:22",3,"NO ERROR",6.09,100,979.44,3,3.36,3.36],
    [1165,363171,"Vazduh","Libelium","0004A30B0021DF70",44.979,16.7091,"","","Prijedor","",15954282,"2022-11-22T19:00:04",3,"NO ERROR",6.11,100,979.1,3.02,3.62,3.64],
    [1166,363171,"Vazduh","Libelium","0004A30B0021DF70",44.979,16.7091,"","","Prijedor","",15955751,"2022-11-22T20:00:46",3,"NO ERROR",6.21,100,979.42,3.4,4.03,4.05],
    [1167,363171,"Vazduh","Libelium","0004A30B0021DF70",44.979,16.7091,"","","Prijedor","",15957170,"2022-11-22T21:01:28",3,"NO ERROR",6.03,100,980.03,1.04,1.26,1.26],
    [1168,363171,"Vazduh","Libelium","0004A30B0021DF70",44.979,16.7091,"","","Prijedor","",15958501,"2022-11-22T22:02:11",3,"NO ERROR",5.65,100,980.39,0.76,0.94,0.96],
    [1169,363171,"Vazduh","Libelium","0004A30B0021DF70",44.979,16.7091,"","","Prijedor","",15959811,"2022-11-22T23:02:53",3,"NO ERROR",5.54,100,980.94,3.61,3.98,3.98],
    [1170,363171,"Vazduh","Libelium","0004A30B0021DF70",44.979,16.7091,"","","Prijedor","",15961250,"2022-11-23T00:03:35",3,"NO ERROR",5.69,100,981.71,1.77,2.43,3.23],
    [1171,363171,"Vazduh","Libelium","0004A30B0021DF70",44.979,16.7091,"","","Prijedor","",15963088,"2022-11-23T01:04:17",3,"NO ERROR",5.96,100,982.14,1.39,1.67,1.7],
    [1172,363171,"Vazduh","Libelium","0004A30B0021DF70",44.979,16.7091,"","","Prijedor","",15964729,"2022-11-23T02:04:59",3,"NO ERROR",4.83,100,983.19,0.07,0.08,0.08],
    [1173,363171,"Vazduh","Libelium","0004A30B0021DF70",44.979,16.7091,"","","Prijedor","",15966310,"2022-11-23T03:05:41",3,"NO ERROR",2.99,100,984.2,0,0,0],
    [1174,363171,"Vazduh","Libelium","0004A30B0021DF70",44.979,16.7091,"","","Prijedor","",15967854,"2022-11-23T04:06:23",3,"NO ERROR",2.38,100,985.02,0.02,0.02,0.02],
    [1175,363171,"Vazduh","Libelium","0004A30B0021DF70",44.979,16.7091,"","","Prijedor","",15969247,"2022-11-23T05:07:05",3,"NO ERROR",2.62,100,985.98,0.05,0.05,0.05],
    [1176,363171,"Vazduh","Libelium","0004A30B0021DF70",44.979,16.7091,"","","Prijedor","",15970683,"2022-11-23T06:07:48",3,"NO ERROR",2.57,100,986.73,0,0,0],
    [1177,363171,"Vazduh","Libelium","0004A30B0021DF70",44.979,16.7091,"","","Prijedor","",15971772,"2022-11-23T07:08:30",3,"NO ERROR",2.75,100,987.46,0,0,0],
    [1178,363171,"Vazduh","Libelium","0004A30B0021DF70",44.979,16.7091,"","","Prijedor","",15972580,"2022-11-23T08:09:12",3,"NO ERROR",3.04,100,988.2,0.05,0.05,0.05],
    [1179,363171,"Vazduh","Libelium","0004A30B0021DF70",44.979,16.7091,"","","Prijedor","",15973244,"2022-11-23T09:09:54",3,"NO ERROR",4.06,100,988.74,0.06,0.11,0.11],
    [1180,363171,"Vazduh","Libelium","0004A30B0021DF70",44.979,16.7091,"","","Prijedor","",15973886,"2022-11-23T10:10:43",3,"NO ERROR",4.28,100,989.47,0.03,0.03,0.03],
    [1181,363171,"Vazduh","Libelium","0004A30B0021DF70",44.979,16.7091,"","","Prijedor","",15974578,"2022-11-23T11:11:25",3,"NO ERROR",4.68,100,989.44,0.31,0.33,0.33],
    [1182,363171,"Vazduh","Libelium","0004A30B0021DF70",44.979,16.7091,"","","Prijedor","",15975192,"2022-11-23T12:12:07",3,"NO ERROR",4.62,100,989.56,0.07,0.08,0.08],
    [1183,363171,"Vazduh","Libelium","0004A30B0021DF70",44.979,16.7091,"","","Prijedor","",15975894,"2022-11-23T13:12:49",3,"NO ERROR",5.18,100,990.23,0.08,0.11,0.11],
    [1184,363171,"Vazduh","Libelium","0004A30B0021DF70",44.979,16.7091,"","","Prijedor","",15976572,"2022-11-23T14:13:31",3,"NO ERROR",5.8,100,990.49,0.1,0.15,0.15],
    [1185,363171,"Vazduh","Libelium","0004A30B0021DF70",44.979,16.7091,"","","Prijedor","",15977254,"2022-11-23T15:14:13",3,"NO ERROR",5.22,100,990.94,0.3,0.33,0.33],
    [1186,363171,"Vazduh","Libelium","0004A30B0021DF70",44.979,16.7091,"","","Prijedor","",15977921,"2022-11-23T16:14:55",3,"NO ERROR",5.2,100,991.33,0.1,0.14,0.14],
    [1187,363171,"Vazduh","Libelium","0004A30B0021DF70",44.979,16.7091,"","","Prijedor","",15980621,"2022-11-23T17:15:37",3,"NO ERROR",5.13,100,991.77,0.29,0.32,0.32],
    [1188,363171,"Vazduh","Libelium","0004A30B0021DF70",44.979,16.7091,"","","Prijedor","",15982695,"2022-11-23T18:16:20",3,"NO ERROR",4.77,100,992.01,0.33,0.35,0.35],
    [1189,363171,"Vazduh","Libelium","0004A30B0021DF70",44.979,16.7091,"","","Prijedor","",15984443,"2022-11-23T19:17:02",3,"NO ERROR",4.77,100,992.52,0.27,0.32,0.32],
    [1190,363171,"Vazduh","Libelium","0004A30B0021DF70",44.979,16.7091,"","","Prijedor","",15985927,"2022-11-23T20:17:44",3,"NO ERROR",4.3,100,992.93,0.93,1.16,1.16],
    [1191,363171,"Vazduh","Libelium","0004A30B0021DF70",44.979,16.7091,"","","Prijedor","",15987340,"2022-11-23T21:18:26",3,"NO ERROR",3.89,100,993.4,0.99,1.28,1.31],
    [1192,363171,"Vazduh","Libelium","0004A30B0021DF70",44.979,16.7091,"","","Prijedor","",15988678,"2022-11-23T22:19:08",3,"NO ERROR",3.46,100,993.85,3.71,4.3,4.31],
    [1193,363171,"Vazduh","Libelium","0004A30B0021DF70",44.979,16.7091,"","","Prijedor","",15990083,"2022-11-23T23:19:50",3,"NO ERROR",2.99,100,994.07,7.62,9.35,9.38],
    [1194,363171,"Vazduh","Libelium","0004A30B0021DF70",44.979,16.7091,"","","Prijedor","",15991791,"2022-11-24T00:20:38",3,"NO ERROR",3.19,100,994.52,9.77,11.57,11.61],
    [1195,363171,"Vazduh","Libelium","0004A30B0021DF70",44.979,16.7091,"","","Prijedor","",15993456,"2022-11-24T01:21:20",3,"NO ERROR",3.4,100,994.72,3.42,4,4.04],
    [1196,363171,"Vazduh","Libelium","0004A30B0021DF70",44.979,16.7091,"","","Prijedor","",15994953,"2022-11-24T02:22:03",3,"NO ERROR",3.09,100,994.78,1.87,2.08,2.11],
    [1197,363171,"Vazduh","Libelium","0004A30B0021DF70",44.979,16.7091,"","","Prijedor","",15996410,"2022-11-24T03:22:45",3,"NO ERROR",2.77,100,994.96,4.68,5.34,5.35],
    [1198,363171,"Vazduh","Libelium","0004A30B0021DF70",44.979,16.7091,"","","Prijedor","",15997829,"2022-11-24T04:23:27",3,"NO ERROR",2.12,100,995.36,10.34,12.23,12.27],
    [1199,363171,"Vazduh","Libelium","0004A30B0021DF70",44.979,16.7091,"","","Prijedor","",15999213,"2022-11-24T05:24:09",3,"NO ERROR",2.05,100,996.09,39.1,52.16,96.84],
    [1200,363171,"Vazduh","Libelium","0004A30B0021DF70",44.979,16.7091,"","","Prijedor","",16000546,"2022-11-24T06:24:51",3,"NO ERROR",2.26,100,997.03,40.98,61.34,277.85],
    [1201,363171,"Vazduh","Libelium","0004A30B0021DF70",44.979,16.7091,"","","Prijedor","",16001384,"2022-11-24T07:25:34",3,"NO ERROR",1.59,100,997.92,33.14,55.64,347.77],
    [1202,363171,"Vazduh","Libelium","0004A30B0021DF70",44.979,16.7091,"","","Prijedor","",16002069,"2022-11-24T08:26:16",3,"NO ERROR",1.6,100,998.83,42.85,66.31,276.86],
    [1203,363171,"Vazduh","Libelium","0004A30B0021DF70",44.979,16.7091,"","","Prijedor","",16002737,"2022-11-24T09:26:58",3,"NO ERROR",2.48,100,999.54,3.39,4.64,17.29],
    [1204,363171,"Vazduh","Libelium","0004A30B0021DF70",44.979,16.7091,"","","Prijedor","",16003386,"2022-11-24T10:27:40",3,"NO ERROR",4.16,100,999.88,3.58,4.19,4.21],
    [1205,363171,"Vazduh","Libelium","0004A30B0021DF70",44.979,16.7091,"","","Prijedor","",16004070,"2022-11-24T11:28:22",3,"NO ERROR",5.68,100,999.86,0.54,0.73,0.74],
    [1206,363171,"Vazduh","Libelium","0004A30B0021DF70",44.979,16.7091,"","","Prijedor","",16004718,"2022-11-24T12:29:04",3,"NO ERROR",8.53,100,999.46,0.56,0.58,0.58],
    [1207,363171,"Vazduh","Libelium","0004A30B0021DF70",44.979,16.7091,"","","Prijedor","",16005367,"2022-11-24T13:29:46",3,"NO ERROR",9.73,100,999.36,0.31,0.35,0.36],
    [1208,363171,"Vazduh","Libelium","0004A30B0021DF70",44.979,16.7091,"","","Prijedor","",16006025,"2022-11-24T14:30:28",3,"NO ERROR",10.43,97.8,999.41,1.31,1.8,1.98],
    [1209,363171,"Vazduh","Libelium","0004A30B0021DF70",44.979,16.7091,"","","Prijedor","",16006702,"2022-11-24T15:31:11",3,"NO ERROR",12.33,84.1,999.5,0.9,1.07,1.08],
    [1210,363171,"Vazduh","Libelium","0004A30B0021DF70",44.979,16.7091,"","","Prijedor","",16007407,"2022-11-24T16:31:53",3,"NO ERROR",7.53,100,999.89,4.25,5.42,5.61],
    [1211,363171,"Vazduh","Libelium","0004A30B0021DF70",44.979,16.7091,"","","Prijedor","",16010563,"2022-11-24T17:32:35",3,"NO ERROR",5.53,100,1000.44,3.27,4.12,4.25],
    [1212,363171,"Vazduh","Libelium","0004A30B0021DF70",44.979,16.7091,"","","Prijedor","",16012649,"2022-11-24T18:33:17",3,"NO ERROR",4.39,100,1000.91,6.6,7.91,8.07],
    [1213,363171,"Vazduh","Libelium","0004A30B0021DF70",44.979,16.7091,"","","Prijedor","",16014479,"2022-11-24T19:33:59",3,"NO ERROR",3.59,100,1001.56,7.75,9.5,10.18],
    [1214,363171,"Vazduh","Libelium","0004A30B0021DF70",44.979,16.7091,"","","Prijedor","",16015930,"2022-11-24T20:34:41",3,"NO ERROR",2.7,100,1002.2,9.63,10.71,10.72],
    [1215,363171,"Vazduh","Libelium","0004A30B0021DF70",44.979,16.7091,"","","Prijedor","",16017340,"2022-11-24T21:35:23",3,"NO ERROR",1.86,100,1002.98,8.82,10.27,10.31],
    [1216,363171,"Vazduh","Libelium","0004A30B0021DF70",44.979,16.7091,"","","Prijedor","",16018608,"2022-11-24T22:36:05",3,"NO ERROR",1.53,100,1002.86,45.94,58.9,90],
    [1217,363171,"Vazduh","Libelium","0004A30B0021DF70",44.979,16.7091,"","","Prijedor","",16019884,"2022-11-24T23:36:47",3,"NO ERROR",1.13,100,1003.46,19.71,27.52,148.82],
    [1218,363171,"Vazduh","Libelium","0004A30B0021DF70",44.979,16.7091,"","","Prijedor","",16021529,"2022-11-25T00:37:30",3,"NO ERROR",0.56,100,1003.78,86.58,116.9,274.86],
    [1219,363171,"Vazduh","Libelium","0004A30B0021DF70",44.979,16.7091,"","","Prijedor","",16023005,"2022-11-25T01:38:12",3,"NO ERROR",0.47,100,1004.21,72.9,106.78,290.71],
    [1220,363171,"Vazduh","Libelium","0004A30B0021DF70",44.979,16.7091,"","","Prijedor","",16024435,"2022-11-25T02:38:54",3,"NO ERROR",0.36,100,1004.73,76.3,110.45,335.47],
    [1221,363171,"Vazduh","Libelium","0004A30B0021DF70",44.979,16.7091,"","","Prijedor","",16025865,"2022-11-25T03:39:36",3,"NO ERROR",0.51,100,1005.09,84.49,128.02,480.53],
    [1222,363171,"Vazduh","Libelium","0004A30B0021DF70",44.979,16.7091,"","","Prijedor","",16027257,"2022-11-25T04:40:18",3,"NO ERROR",0.17,100,1005.54,51.05,75.87,282.95],
    [1223,363171,"Vazduh","Libelium","0004A30B0021DF70",44.979,16.7091,"","","Prijedor","",16028647,"2022-11-25T05:41:00",3,"NO ERROR",-0.11,100,1006.01,31.84,45.42,133.06],
    [1224,363171,"Vazduh","Libelium","0004A30B0021DF70",44.979,16.7091,"","","Prijedor","",16029992,"2022-11-25T06:41:42",3,"NO ERROR",0.11,100,1006.57,37.26,69.32,514.4],
    [1225,363171,"Vazduh","Libelium","0004A30B0021DF70",44.979,16.7091,"","","Prijedor","",16030731,"2022-11-25T07:42:25",3,"NO ERROR",-0.73,100,1007,15.22,22.8,100.66],
    [1226,363171,"Vazduh","Libelium","0004A30B0021DF70",44.979,16.7091,"","","Prijedor","",16031383,"2022-11-25T08:43:07",3,"NO ERROR",0.22,100,1007.31,2.64,3.29,3.31],
    [1227,363171,"Vazduh","Libelium","0004A30B0021DF70",44.979,16.7091,"","","Prijedor","",16032049,"2022-11-25T09:43:49",3,"NO ERROR",2.15,100,1007.62,3.82,4.55,4.56],
    [1228,363171,"Vazduh","Libelium","0004A30B0021DF70",44.979,16.7091,"","","Prijedor","",16032736,"2022-11-25T10:44:31",3,"NO ERROR",4.77,100,1007.19,2.93,3.57,3.6],
    [1229,363171,"Vazduh","Libelium","0004A30B0021DF70",44.979,16.7091,"","","Prijedor","",16033429,"2022-11-25T11:45:13",3,"NO ERROR",7.51,100,1006.39,0.6,0.74,0.76],
    [1230,363171,"Vazduh","Libelium","0004A30B0021DF70",44.979,16.7091,"","","Prijedor","",16034069,"2022-11-25T12:45:55",3,"NO ERROR",9.91,85.6,1005.78,0.1,0.11,0.11],
    [1231,363171,"Vazduh","Libelium","0004A30B0021DF70",44.979,16.7091,"","","Prijedor","",16034711,"2022-11-25T13:46:37",3,"NO ERROR",12,77.5,1005.18,0.16,0.17,0.17],
    [1232,363171,"Vazduh","Libelium","0004A30B0021DF70",44.979,16.7091,"","","Prijedor","",16035382,"2022-11-25T14:47:20",3,"NO ERROR",14.17,69.5,1004.96,0.92,1.22,1.25],
    [1233,363171,"Vazduh","Libelium","0004A30B0021DF70",44.979,16.7091,"","","Prijedor","",16036061,"2022-11-25T15:48:02",3,"NO ERROR",9.86,90,1004.86,0.8,1.16,1.2],
    [1234,363171,"Vazduh","Libelium","0004A30B0021DF70",44.979,16.7091,"","","Prijedor","",16037722,"2022-11-25T16:48:44",3,"NO ERROR",7.97,100,1005.12,3.22,4.2,4.53],
    [1235,363171,"Vazduh","Libelium","0004A30B0021DF70",44.979,16.7091,"","","Prijedor","",16039368,"2022-11-25T17:49:26",3,"NO ERROR",7.15,100,1005.4,2.34,3.25,3.9],
    [1236,363171,"Vazduh","Libelium","0004A30B0021DF70",44.979,16.7091,"","","Prijedor","",16040774,"2022-11-25T18:50:08",3,"NO ERROR",6.41,100,1005.66,1.35,1.79,1.83],
    [1237,363171,"Vazduh","Libelium","0004A30B0021DF70",44.979,16.7091,"","","Prijedor","",16042043,"2022-11-25T19:50:50",3,"NO ERROR",5.63,100,1006.15,1.16,1.73,1.9],
    [1238,363171,"Vazduh","Libelium","0004A30B0021DF70",44.979,16.7091,"","","Prijedor","",16043369,"2022-11-25T20:51:32",3,"NO ERROR",5.27,100,1006.8,1.21,1.38,1.38],
    [1239,363171,"Vazduh","Libelium","0004A30B0021DF70",44.979,16.7091,"","","Prijedor","",16044672,"2022-11-25T21:52:14",3,"NO ERROR",4.74,100,1007.11,0.91,1.02,1.02],
    [1240,363171,"Vazduh","Libelium","0004A30B0021DF70",44.979,16.7091,"","","Prijedor","",16046060,"2022-11-25T22:52:56",3,"NO ERROR",4.27,100,1007.39,3.41,4.12,4.7],
    [1241,363171,"Vazduh","Libelium","0004A30B0021DF70",44.979,16.7091,"","","Prijedor","",16047378,"2022-11-25T23:53:38",3,"NO ERROR",3.62,100,1007.87,11.82,13.8,13.86],
    [1242,363171,"Vazduh","Libelium","0004A30B0021DF70",44.979,16.7091,"","","Prijedor","",16049279,"2022-11-26T00:54:21",3,"NO ERROR",3.04,100,1008.28,4.4,5.06,5.07],
    [1243,363171,"Vazduh","Libelium","0004A30B0021DF70",44.979,16.7091,"","","Prijedor","",16050775,"2022-11-26T01:55:03",3,"NO ERROR",2.08,100,1008.54,4.68,5.59,5.61],
    [1244,363171,"Vazduh","Libelium","0004A30B0021DF70",44.979,16.7091,"","","Prijedor","",16052245,"2022-11-26T02:55:45",3,"NO ERROR",1.81,100,1009.17,18.63,29.78,181.85],
    [1245,363171,"Vazduh","Libelium","0004A30B0021DF70",44.979,16.7091,"","","Prijedor","",16053588,"2022-11-26T03:56:27",3,"NO ERROR",1.63,100,1009.54,38.11,50.85,136.63],
    [1246,363171,"Vazduh","Libelium","0004A30B0021DF70",44.979,16.7091,"","","Prijedor","",16056435,"2022-11-26T05:58:03",3,"NO ERROR",1.86,100,1010.53,10.84,14.18,17.09],
    [1247,363171,"Vazduh","Libelium","0004A30B0021DF70",44.979,16.7091,"","","Prijedor","",16057621,"2022-11-26T06:58:45",3,"NO ERROR",1.66,100,1011.27,33.55,50.91,269.92],
    [1248,363171,"Vazduh","Libelium","0004A30B0021DF70",44.979,16.7091,"","","Prijedor","",16058370,"2022-11-26T07:59:27",3,"NO ERROR",2.09,100,1012.3,23.28,33.45,171.29],
    [1249,363171,"Vazduh","Libelium","0004A30B0021DF70",44.979,16.7091,"","","Prijedor","",16059102,"2022-11-26T09:00:10",3,"NO ERROR",2.87,100,1013.25,10.92,14.82,32.78],
    [1250,363171,"Vazduh","Libelium","0004A30B0021DF70",44.979,16.7091,"","","Prijedor","",16059865,"2022-11-26T10:00:52",3,"NO ERROR",3.74,100,1013.97,1.78,2.03,2.04],
    [1251,363171,"Vazduh","Libelium","0004A30B0021DF70",44.979,16.7091,"","","Prijedor","",16060657,"2022-11-26T11:01:34",3,"NO ERROR",4.92,100,1014.15,1.11,1.19,1.19],
    [1252,363171,"Vazduh","Libelium","0004A30B0021DF70",44.979,16.7091,"","","Prijedor","",16061335,"2022-11-26T12:02:16",3,"NO ERROR",5.84,100,1014.12,0.53,0.76,1.31],
    [1253,363171,"Vazduh","Libelium","0004A30B0021DF70",44.979,16.7091,"","","Prijedor","",16062017,"2022-11-26T13:02:58",3,"NO ERROR",6.47,100,1013.97,0.69,0.85,0.85],
    [1254,363171,"Vazduh","Libelium","0004A30B0021DF70",44.979,16.7091,"","","Prijedor","",16062711,"2022-11-26T14:03:40",3,"NO ERROR",6.68,100,1013.95,3.73,4.36,4.4],
    [1255,363171,"Vazduh","Libelium","0004A30B0021DF70",44.979,16.7091,"","","Prijedor","",16063468,"2022-11-26T15:04:22",3,"NO ERROR",6.31,100,1013.92,2.71,3.24,3.26],
    [1256,363171,"Vazduh","Libelium","0004A30B0021DF70",44.979,16.7091,"","","Prijedor","",16064177,"2022-11-26T16:05:11",3,"NO ERROR",6.03,100,1014.35,3.41,4.02,4.15],
    [1257,363171,"Vazduh","Libelium","0004A30B0021DF70",44.979,16.7091,"","","Prijedor","",16066299,"2022-11-26T17:05:53",3,"NO ERROR",6.07,100,1014.45,4.15,5.19,5.34],
    [1258,363171,"Vazduh","Libelium","0004A30B0021DF70",44.979,16.7091,"","","Prijedor","",16067999,"2022-11-26T18:06:35",3,"NO ERROR",6.15,100,1014.71,3.86,4.73,4.85],
    [1259,363171,"Vazduh","Libelium","0004A30B0021DF70",44.979,16.7091,"","","Prijedor","",16069329,"2022-11-26T19:07:17",3,"NO ERROR",6.34,100,1014.87,4.05,5.01,5.04],
    [1260,363171,"Vazduh","Libelium","0004A30B0021DF70",44.979,16.7091,"","","Prijedor","",16070588,"2022-11-26T20:07:59",3,"NO ERROR",6.21,100,1014.82,2.57,3.34,3.94],
    [1261,363171,"Vazduh","Libelium","0004A30B0021DF70",44.979,16.7091,"","","Prijedor","",16071937,"2022-11-26T21:08:41",3,"NO ERROR",6.21,100,1015.18,3.21,4.09,4.27],
    [1262,363171,"Vazduh","Libelium","0004A30B0021DF70",44.979,16.7091,"","","Prijedor","",16073234,"2022-11-26T22:09:23",3,"NO ERROR",5.83,100,1015.29,3.64,4.26,4.27],
    [1263,363171,"Vazduh","Libelium","0004A30B0021DF70",44.979,16.7091,"","","Prijedor","",16074550,"2022-11-26T23:10:05",3,"NO ERROR",5.7,100,1015.5,3.24,3.79,3.8],
    [1264,363171,"Vazduh","Libelium","0004A30B0021DF70",44.979,16.7091,"","","Prijedor","",16076126,"2022-11-27T00:10:47",3,"NO ERROR",6.4,100,1015.32,0.99,1.11,1.11],
    [1265,363171,"Vazduh","Libelium","0004A30B0021DF70",44.979,16.7091,"","","Prijedor","",16077699,"2022-11-27T01:11:30",3,"NO ERROR",6.72,100,1015.28,1.62,2.04,2.05],
    [1266,363171,"Vazduh","Libelium","0004A30B0021DF70",44.979,16.7091,"","","Prijedor","",16079127,"2022-11-27T02:12:12",3,"NO ERROR",6.04,100,1015.07,2.44,2.86,2.89],
    [1267,363171,"Vazduh","Libelium","0004A30B0021DF70",44.979,16.7091,"","","Prijedor","",16080537,"2022-11-27T03:12:54",3,"NO ERROR",6.08,100,1015.02,2.41,2.99,3.06],
    [1268,363171,"Vazduh","Libelium","0004A30B0021DF70",44.979,16.7091,"","","Prijedor","",16081829,"2022-11-27T04:13:36",3,"NO ERROR",5.52,100,1014.6,2.93,3.35,3.35],
    [1269,363171,"Vazduh","Libelium","0004A30B0021DF70",44.979,16.7091,"","","Prijedor","",16083184,"2022-11-27T05:14:18",3,"NO ERROR",5.35,100,1014.49,2.85,3.56,3.57],
    [1270,363171,"Vazduh","Libelium","0004A30B0021DF70",44.979,16.7091,"","","Prijedor","",16084475,"2022-11-27T06:15:00",3,"NO ERROR",5.81,100,1014.43,4.25,4.92,4.93],
    [1271,363171,"Vazduh","Libelium","0004A30B0021DF70",44.979,16.7091,"","","Prijedor","",16085380,"2022-11-27T07:15:42",3,"NO ERROR",5.89,100,1014.37,1.78,2.52,2.66],
    [1272,363171,"Vazduh","Libelium","0004A30B0021DF70",44.979,16.7091,"","","Prijedor","",16086027,"2022-11-27T08:16:24",3,"NO ERROR",6.23,100,1014.55,2.99,3.55,3.55],
    [1273,363171,"Vazduh","Libelium","0004A30B0021DF70",44.979,16.7091,"","","Prijedor","",16086670,"2022-11-27T09:17:06",3,"NO ERROR",6.7,100,1014.65,1.85,2.43,2.44],
    [1274,363171,"Vazduh","Libelium","0004A30B0021DF70",44.979,16.7091,"","","Prijedor","",16087298,"2022-11-27T10:17:49",3,"NO ERROR",7.88,100,1014.61,0.78,0.89,0.89],
    [1275,363171,"Vazduh","Libelium","0004A30B0021DF70",44.979,16.7091,"","","Prijedor","",16087955,"2022-11-27T11:18:31",3,"NO ERROR",8.43,100,1014,1.23,1.48,1.48],
    [1276,363171,"Vazduh","Libelium","0004A30B0021DF70",44.979,16.7091,"","","Prijedor","",16088590,"2022-11-27T12:19:13",3,"NO ERROR",9.29,100,1013.27,0.95,1.1,1.11],
    [1277,363171,"Vazduh","Libelium","0004A30B0021DF70",44.979,16.7091,"","","Prijedor","",16089253,"2022-11-27T13:19:55",3,"NO ERROR",9.18,100,1012.53,0.67,0.84,0.84],
    [1278,363171,"Vazduh","Libelium","0004A30B0021DF70",44.979,16.7091,"","","Prijedor","",16089880,"2022-11-27T14:20:43",3,"NO ERROR",9.1,100,1012.28,0.61,0.84,0.86],
    [1279,363171,"Vazduh","Libelium","0004A30B0021DF70",44.979,16.7091,"","","Prijedor","",16090588,"2022-11-27T15:21:31",3,"NO ERROR",8.64,100,1012.04,1.74,2.1,2.11],
    [1280,363171,"Vazduh","Libelium","0004A30B0021DF70",44.979,16.7091,"","","Prijedor","",16091247,"2022-11-27T16:22:13",3,"NO ERROR",7.31,100,1012.16,0.68,0.85,0.87],
    [1281,363171,"Vazduh","Libelium","0004A30B0021DF70",44.979,16.7091,"","","Prijedor","",16093995,"2022-11-27T17:22:55",3,"NO ERROR",6.64,100,1011.83,2.14,2.91,3.52],
    [1282,363171,"Vazduh","Libelium","0004A30B0021DF70",44.979,16.7091,"","","Prijedor","",16095610,"2022-11-27T18:23:37",3,"NO ERROR",6.39,100,1011.53,1.88,2.31,2.32],
    [1283,363171,"Vazduh","Libelium","0004A30B0021DF70",44.979,16.7091,"","","Prijedor","",16096951,"2022-11-27T19:24:20",3,"NO ERROR",5.89,100,1011.07,1.29,1.48,1.5],
    [1284,363171,"Vazduh","Libelium","0004A30B0021DF70",44.979,16.7091,"","","Prijedor","",16098242,"2022-11-27T20:25:02",3,"NO ERROR",4.92,100,1010.8,5.79,6.95,6.97],
    [1285,363171,"Vazduh","Libelium","0004A30B0021DF70",44.979,16.7091,"","","Prijedor","",16099587,"2022-11-27T21:25:44",3,"NO ERROR",4.91,100,1010.93,5.08,5.88,5.89],
    [1286,363171,"Vazduh","Libelium","0004A30B0021DF70",44.979,16.7091,"","","Prijedor","",16100849,"2022-11-27T22:26:26",3,"NO ERROR",4.68,100,1010.55,4.58,5.68,5.94],
    [1287,363171,"Vazduh","Libelium","0004A30B0021DF70",44.979,16.7091,"","","Prijedor","",16102209,"2022-11-27T23:27:08",3,"NO ERROR",3.51,100,1010.18,12.38,15.39,15.8],
    [1288,363171,"Vazduh","Libelium","0004A30B0021DF70",44.979,16.7091,"","","Prijedor","",16103924,"2022-11-28T00:27:50",3,"NO ERROR",2.96,100,1009.95,57.41,78.12,187],
    [1289,363171,"Vazduh","Libelium","0004A30B0021DF70",44.979,16.7091,"","","Prijedor","",16105536,"2022-11-28T01:28:32",3,"NO ERROR",3.41,100,1009.82,14.14,17.12,17.19],
    [1290,363171,"Vazduh","Libelium","0004A30B0021DF70",44.979,16.7091,"","","Prijedor","",16106999,"2022-11-28T02:29:14",3,"NO ERROR",4.24,100,1009.61,88.05,120.67,142.59],
    [1291,363171,"Vazduh","Libelium","0004A30B0021DF70",44.979,16.7091,"","","Prijedor","",16108485,"2022-11-28T03:29:57",3,"NO ERROR",4.07,100,1008.73,32.46,40.99,41.35],
    [1292,363171,"Vazduh","Libelium","0004A30B0021DF70",44.979,16.7091,"","","Prijedor","",16109898,"2022-11-28T04:30:39",3,"NO ERROR",3.82,100,1008.51,31.89,42.64,49.91],
    [1293,363171,"Vazduh","Libelium","0004A30B0021DF70",44.979,16.7091,"","","Prijedor","",16111351,"2022-11-28T05:31:21",3,"NO ERROR",3.84,100,1008.01,12.04,14.62,14.67],
    [1294,363171,"Vazduh","Libelium","0004A30B0021DF70",44.979,16.7091,"","","Prijedor","",16112776,"2022-11-28T06:32:03",3,"NO ERROR",4.08,100,1008.08,6.33,7.69,7.74],
    [1295,363171,"Vazduh","Libelium","0004A30B0021DF70",44.979,16.7091,"","","Prijedor","",16113641,"2022-11-28T07:32:45",3,"NO ERROR",4.34,100,1007.97,8.82,10.58,10.75],
    [1296,363171,"Vazduh","Libelium","0004A30B0021DF70",44.979,16.7091,"","","Prijedor","",16114356,"2022-11-28T08:33:27",3,"NO ERROR",4.28,100,1007.73,7.16,8.47,8.5],
    [1297,363171,"Vazduh","Libelium","0004A30B0021DF70",44.979,16.7091,"","","Prijedor","",16115047,"2022-11-28T09:34:09",3,"NO ERROR",5.71,100,1007.58,2.55,2.86,2.86],
    [1298,363171,"Vazduh","Libelium","0004A30B0021DF70",44.979,16.7091,"","","Prijedor","",16115743,"2022-11-28T10:34:51",3,"NO ERROR",5.95,100,1007.08,2.18,2.56,2.56],
    [1299,363171,"Vazduh","Libelium","0004A30B0021DF70",44.979,16.7091,"","","Prijedor","",16116467,"2022-11-28T11:35:34",3,"NO ERROR",6.33,100,1006.27,1.85,2.26,2.45],
    [1300,363171,"Vazduh","Libelium","0004A30B0021DF70",44.979,16.7091,"","","Prijedor","",16117130,"2022-11-28T12:36:16",3,"NO ERROR",6.08,100,1005.94,2.43,2.84,2.86],
    [1301,363171,"Vazduh","Libelium","0004A30B0021DF70",44.979,16.7091,"","","Prijedor","",16117789,"2022-11-28T13:36:58",3,"NO ERROR",6.15,96.9,1005.19,2.23,2.61,2.64],
    [1302,363171,"Vazduh","Libelium","0004A30B0021DF70",44.979,16.7091,"","","Prijedor","",16118429,"2022-11-28T14:37:40",3,"NO ERROR",5.91,96.5,1005.15,1.37,1.6,1.6],
    [1303,363171,"Vazduh","Libelium","0004A30B0021DF70",44.979,16.7091,"","","Prijedor","",16119071,"2022-11-28T15:38:28",3,"NO ERROR",5.03,100,1005.08,1.58,1.87,1.88],
    [1304,363171,"Vazduh","Libelium","0004A30B0021DF70",44.979,16.7091,"","","Prijedor","",16120248,"2022-11-28T16:39:10",3,"NO ERROR",4.46,100,1004.94,2.35,2.65,2.66],
    [1305,363171,"Vazduh","Libelium","0004A30B0021DF70",44.979,16.7091,"","","Prijedor","",16122020,"2022-11-28T17:39:58",3,"NO ERROR",4.5,100,1004.82,1.47,1.65,1.65],
    [1306,363171,"Vazduh","Libelium","0004A30B0021DF70",44.979,16.7091,"","","Prijedor","",16123223,"2022-11-28T18:40:40",3,"NO ERROR",4.39,100,1005.06,3.58,4.12,4.13],
    [1307,363171,"Vazduh","Libelium","0004A30B0021DF70",44.979,16.7091,"","","Prijedor","",16124395,"2022-11-28T19:41:23",3,"NO ERROR",4.55,100,1004.79,3.5,3.91,3.92],
    [1308,363171,"Vazduh","Libelium","0004A30B0021DF70",44.979,16.7091,"","","Prijedor","",16125539,"2022-11-28T20:42:05",3,"NO ERROR",4.36,100,1004.71,2.66,3.03,3.04],
    [1309,363171,"Vazduh","Libelium","0004A30B0021DF70",44.979,16.7091,"","","Prijedor","",16126683,"2022-11-28T21:42:47",3,"NO ERROR",4.4,100,1004.82,2.78,3.16,3.16],
    [1310,363171,"Vazduh","Libelium","0004A30B0021DF70",44.979,16.7091,"","","Prijedor","",16127996,"2022-11-28T22:43:29",3,"NO ERROR",4.24,100,1004.67,4.89,5.76,5.78],
    [1311,363171,"Vazduh","Libelium","0004A30B0021DF70",44.979,16.7091,"","","Prijedor","",16129248,"2022-11-28T23:44:11",3,"NO ERROR",4.31,100,1004.36,9.67,10.85,10.86],
    [1312,363171,"Vazduh","Libelium","0004A30B0021DF70",44.979,16.7091,"","","Prijedor","",16130912,"2022-11-29T00:44:53",3,"NO ERROR",4.29,100,1004.03,7.63,9.09,9.11],
    [1313,363171,"Vazduh","Libelium","0004A30B0021DF70",44.979,16.7091,"","","Prijedor","",16133610,"2022-11-29T01:45:35",3,"NO ERROR",4.09,100,1003.78,7.28,8.62,8.64],
    [1314,363171,"Vazduh","Libelium","0004A30B0021DF70",44.979,16.7091,"","","Prijedor","",16135056,"2022-11-29T02:46:17",3,"NO ERROR",4.02,100,1003.92,5.44,6.33,6.46],
    [1315,363171,"Vazduh","Libelium","0004A30B0021DF70",44.979,16.7091,"","","Prijedor","",16136482,"2022-11-29T03:47:00",3,"NO ERROR",3.71,100,1003.8,7.38,8.77,8.81],
    [1316,363171,"Vazduh","Libelium","0004A30B0021DF70",44.979,16.7091,"","","Prijedor","",16137868,"2022-11-29T04:47:48",3,"NO ERROR",3.83,100,1004.01,6.56,7.46,7.47],
    [1317,363171,"Vazduh","Libelium","0004A30B0021DF70",44.979,16.7091,"","","Prijedor","",16139195,"2022-11-29T05:48:30",3,"NO ERROR",3.88,100,1004.08,6.66,7.55,7.56],
    [1318,363171,"Vazduh","Libelium","0004A30B0021DF70",44.979,16.7091,"","","Prijedor","",16140398,"2022-11-29T06:49:12",3,"NO ERROR",4.15,100,1004.14,5.67,6.37,6.4],
    [1319,363171,"Vazduh","Libelium","0004A30B0021DF70",44.979,16.7091,"","","Prijedor","",16141098,"2022-11-29T07:49:54",3,"NO ERROR",4.18,100,1004.49,5.14,6.06,6.08],
    [1320,363171,"Vazduh","Libelium","0004A30B0021DF70",44.979,16.7091,"","","Prijedor","",16141783,"2022-11-29T08:50:36",3,"NO ERROR",4.55,100,1004.5,3.58,4.27,4.29],
    [1321,363171,"Vazduh","Libelium","0004A30B0021DF70",44.979,16.7091,"","","Prijedor","",16142436,"2022-11-29T09:51:18",3,"NO ERROR",5.19,100,1004.49,2.51,2.86,2.87],
    [1322,363171,"Vazduh","Libelium","0004A30B0021DF70",44.979,16.7091,"","","Prijedor","",16143084,"2022-11-29T10:52:06",3,"NO ERROR",5.59,100,1004.65,1.86,2.26,2.75],
    [1323,363171,"Vazduh","Libelium","0004A30B0021DF70",44.979,16.7091,"","","Prijedor","",16143728,"2022-11-29T11:52:54",3,"NO ERROR",5.31,100,1004.39,1.56,1.7,1.7],
    [1324,363171,"Vazduh","Libelium","0004A30B0021DF70",44.979,16.7091,"","","Prijedor","",16144344,"2022-11-29T12:53:36",3,"NO ERROR",4.96,100,1004.33,1.69,1.84,1.84],
    [1325,363171,"Vazduh","Libelium","0004A30B0021DF70",44.979,16.7091,"","","Prijedor","",16144951,"2022-11-29T13:54:19",3,"NO ERROR",4.52,100,1004.21,2.2,2.67,2.68],
    [1326,363171,"Vazduh","Libelium","0004A30B0021DF70",44.979,16.7091,"","","Prijedor","",16145588,"2022-11-29T14:55:01",3,"NO ERROR",4.29,100,1004.58,1.98,2.32,2.35],
    [1327,363171,"Vazduh","Libelium","0004A30B0021DF70",44.979,16.7091,"","","Prijedor","",16146188,"2022-11-29T15:55:43",3,"NO ERROR",4.07,100,1004.93,2.8,3.32,3.33],
    [1328,363171,"Vazduh","Libelium","0004A30B0021DF70",44.979,16.7091,"","","Prijedor","",16148103,"2022-11-29T16:56:25",3,"NO ERROR",4.02,100,1005.05,3.26,3.54,3.55],
    [1329,363171,"Vazduh","Libelium","0004A30B0021DF70",44.979,16.7091,"","","Prijedor","",16150214,"2022-11-29T17:57:07",3,"NO ERROR",4.11,100,1005.24,1.94,2.26,2.28],
    [1330,363171,"Vazduh","Libelium","0004A30B0021DF70",44.979,16.7091,"","","Prijedor","",16151916,"2022-11-29T18:57:49",3,"NO ERROR",4.03,100,1005.36,2.72,3.21,3.22],
    [1331,363171,"Vazduh","Libelium","0004A30B0021DF70",44.979,16.7091,"","","Prijedor","",16153398,"2022-11-29T19:58:31",3,"NO ERROR",3.81,100,1005.6,2.47,2.85,2.86],
    [1332,363171,"Vazduh","Libelium","0004A30B0021DF70",44.979,16.7091,"","","Prijedor","",16154711,"2022-11-29T20:59:13",3,"NO ERROR",3.78,100,1005.57,3.55,4.05,4.05],
    [1333,363171,"Vazduh","Libelium","0004A30B0021DF70",44.979,16.7091,"","","Prijedor","",16156007,"2022-11-29T21:59:55",3,"NO ERROR",3.68,100,1005.54,3.01,3.45,3.45],
    [1334,363171,"Vazduh","Libelium","0004A30B0021DF70",44.979,16.7091,"","","Prijedor","",16157337,"2022-11-29T23:00:38",3,"NO ERROR",3.54,100,1005.31,1.84,2.06,2.07],
    [1335,363171,"Vazduh","Libelium","0004A30B0021DF70",44.979,16.7091,"","","Prijedor","",16158774,"2022-11-30T00:01:20",3,"NO ERROR",3.68,100,1005.27,1.59,1.71,1.71],
    [1336,363171,"Vazduh","Libelium","0004A30B0021DF70",44.979,16.7091,"","","Prijedor","",16160562,"2022-11-30T01:02:02",3,"NO ERROR",3.77,100,1004.97,1.66,1.91,1.92],
    [1337,363171,"Vazduh","Libelium","0004A30B0021DF70",44.979,16.7091,"","","Prijedor","",16162043,"2022-11-30T02:02:44",3,"NO ERROR",4.01,100,1004.86,1.62,1.88,1.89],
    [1338,363171,"Vazduh","Libelium","0004A30B0021DF70",44.979,16.7091,"","","Prijedor","",16163530,"2022-11-30T03:03:26",3,"NO ERROR",4.02,100,1004.84,2.91,3.36,3.36],
    [1339,363171,"Vazduh","Libelium","0004A30B0021DF70",44.979,16.7091,"","","Prijedor","",16164990,"2022-11-30T04:04:08",3,"NO ERROR",4.25,100,1004.83,2.07,2.32,2.32],
    [1340,363171,"Vazduh","Libelium","0004A30B0021DF70",44.979,16.7091,"","","Prijedor","",16166425,"2022-11-30T05:04:50",3,"NO ERROR",4.13,100,1004.83,2.99,3.35,3.35],
    [1341,363171,"Vazduh","Libelium","0004A30B0021DF70",44.979,16.7091,"","","Prijedor","",16167869,"2022-11-30T06:05:32",3,"NO ERROR",4.08,100,1004.8,2.83,3.22,3.22],
    [1342,363171,"Vazduh","Libelium","0004A30B0021DF70",44.979,16.7091,"","","Prijedor","",16169122,"2022-11-30T07:06:14",3,"NO ERROR",3.87,100,1005,3.43,3.83,3.83],
    [1343,363171,"Vazduh","Libelium","0004A30B0021DF70",44.979,16.7091,"","","Prijedor","",16169893,"2022-11-30T08:06:57",3,"NO ERROR",3.85,100,1005.36,2.54,2.95,2.96],
    [1344,363171,"Vazduh","Libelium","0004A30B0021DF70",44.979,16.7091,"","","Prijedor","",16170609,"2022-11-30T09:07:39",3,"NO ERROR",3.64,100,1005.48,6.36,7.5,7.51],
    [1345,363171,"Vazduh","Libelium","0004A30B0021DF70",44.979,16.7091,"","","Prijedor","",16171280,"2022-11-30T10:08:21",3,"NO ERROR",4.15,100,1005.56,1.8,2.35,2.36],
    [1346,363171,"Vazduh","Libelium","0004A30B0021DF70",44.979,16.7091,"","","Prijedor","",16171729,"2022-11-30T11:09:03",3,"NO ERROR",4.33,100,1005.17,0.6,0.66,0.66],
    [1347,363171,"Vazduh","Libelium","0004A30B0021DF70",44.979,16.7091,"","","Prijedor","",16172146,"2022-11-30T12:09:45",3,"NO ERROR",4.35,100,1004.86,0.93,0.99,0.99],
    [1348,363171,"Vazduh","Libelium","0004A30B0021DF70",44.979,16.7091,"","","Prijedor","",16172589,"2022-11-30T13:10:27",3,"NO ERROR",4.4,100,1004.71,0.6,0.68,0.68],
    [1349,363171,"Vazduh","Libelium","0004A30B0021DF70",44.979,16.7091,"","","Prijedor","",16173059,"2022-11-30T14:11:09",3,"NO ERROR",4.64,100,1004.48,1.09,1.53,1.73],
    [1350,363171,"Vazduh","Libelium","0004A30B0021DF70",44.979,16.7091,"","","Prijedor","",16173971,"2022-11-30T15:11:51",3,"NO ERROR",4.53,100,1004.44,0.72,0.86,0.86],
    [1351,363171,"Vazduh","Libelium","0004A30B0021DF70",44.979,16.7091,"","","Prijedor","",16174778,"2022-11-30T16:12:33",3,"NO ERROR",4.53,100,1004.44,2.64,3.09,3.26],
    [1352,363171,"Vazduh","Libelium","0004A30B0021DF70",44.979,16.7091,"","","Prijedor","",16177420,"2022-11-30T17:13:15",3,"NO ERROR",4.76,100,1004.55,2.06,2.44,2.58],
    [1353,363171,"Vazduh","Libelium","0004A30B0021DF70",44.979,16.7091,"","","Prijedor","",16179398,"2022-11-30T18:13:58",3,"NO ERROR",4.57,100,1004.67,6.24,7.13,7.15],
    [1354,363171,"Vazduh","Libelium","0004A30B0021DF70",44.979,16.7091,"","","Prijedor","",16180929,"2022-11-30T19:14:40",3,"NO ERROR",4.48,100,1005.01,3.95,4.77,4.78],
    [1355,363171,"Vazduh","Libelium","0004A30B0021DF70",44.979,16.7091,"","","Prijedor","",16182359,"2022-11-30T20:15:22",3,"NO ERROR",4.59,100,1005.05,3.66,4.49,4.5],
    [1356,363171,"Vazduh","Libelium","0004A30B0021DF70",44.979,16.7091,"","","Prijedor","",16183700,"2022-11-30T21:16:04",3,"NO ERROR",4.65,100,1005.01,3.87,4.81,4.83],
    [1357,363171,"Vazduh","Libelium","0004A30B0021DF70",44.979,16.7091,"","","Prijedor","",16184977,"2022-11-30T22:16:46",3,"NO ERROR",4.89,100,1005.4,0.73,0.88,0.88],
    [1358,363171,"Vazduh","Libelium","0004A30B0021DF70",44.979,16.7091,"","","Prijedor","",16186337,"2022-11-30T23:17:28",3,"NO ERROR",5,100,1005.37,2.27,2.47,2.47],
    [1359,363171,"Vazduh","Libelium","0004A30B0021DF70",44.979,16.7091,"","","Prijedor","",16187927,"2022-12-01T00:18:10",3,"NO ERROR",5.04,100,1005.42,0.21,0.28,0.28],
    [1360,363171,"Vazduh","Libelium","0004A30B0021DF70",44.979,16.7091,"","","Prijedor","",16189576,"2022-12-01T01:18:53",3,"NO ERROR",4.96,100,1005.14,0.9,1.24,1.28],
    [1361,363171,"Vazduh","Libelium","0004A30B0021DF70",44.979,16.7091,"","","Prijedor","",16191128,"2022-12-01T02:19:35",3,"NO ERROR",4.88,100,1005.27,0.3,0.31,0.31],
    [1362,363171,"Vazduh","Libelium","0004A30B0021DF70",44.979,16.7091,"","","Prijedor","",16192648,"2022-12-01T03:20:17",3,"NO ERROR",4.82,100,1005.08,0.6,0.68,0.68],
    [1363,363171,"Vazduh","Libelium","0004A30B0021DF70",44.979,16.7091,"","","Prijedor","",16194048,"2022-12-01T04:20:59",3,"NO ERROR",4.75,100,1004.98,0.11,0.12,0.12],
    [1364,363171,"Vazduh","Libelium","0004A30B0021DF70",44.979,16.7091,"","","Prijedor","",16195419,"2022-12-01T05:21:41",3,"NO ERROR",4.56,100,1005.14,0.15,0.15,0.15],
    [1365,363171,"Vazduh","Libelium","0004A30B0021DF70",44.979,16.7091,"","","Prijedor","",16196705,"2022-12-01T06:22:23",3,"NO ERROR",4.53,100,1005.24,1.01,1.12,1.13],
    [1366,363171,"Vazduh","Libelium","0004A30B0021DF70",44.979,16.7091,"","","Prijedor","",16197626,"2022-12-01T07:23:05",3,"NO ERROR",4.55,100,1005.49,0.91,1,1.01],
    [1367,363171,"Vazduh","Libelium","0004A30B0021DF70",44.979,16.7091,"","","Prijedor","",16198214,"2022-12-01T08:23:47",3,"NO ERROR",4.55,100,1005.9,0.98,1.11,1.11],
    [1368,363171,"Vazduh","Libelium","0004A30B0021DF70",44.979,16.7091,"","","Prijedor","",16198862,"2022-12-01T09:24:29",3,"NO ERROR",4.81,100,1006.06,1.35,1.57,1.57],
    [1369,363171,"Vazduh","Libelium","0004A30B0021DF70",44.979,16.7091,"","","Prijedor","",16199484,"2022-12-01T10:25:18",3,"NO ERROR",5.26,100,1006.05,0.63,0.82,0.82],
    [1370,363171,"Vazduh","Libelium","0004A30B0021DF70",44.979,16.7091,"","","Prijedor","",16200146,"2022-12-01T11:26:00",3,"NO ERROR",5.28,100,1005.73,0.26,0.35,0.35],
    [1371,363171,"Vazduh","Libelium","0004A30B0021DF70",44.979,16.7091,"","","Prijedor","",16200739,"2022-12-01T12:26:42",3,"NO ERROR",5.29,100,1005.46,0.82,1.02,1.02],
    [1372,363171,"Vazduh","Libelium","0004A30B0021DF70",44.979,16.7091,"","","Prijedor","",16201377,"2022-12-01T13:27:24",3,"NO ERROR",5.05,100,1005.58,1.34,1.7,1.72],
    [1373,363171,"Vazduh","Libelium","0004A30B0021DF70",44.979,16.7091,"","","Prijedor","",16201968,"2022-12-01T14:28:06",3,"NO ERROR",5.29,100,1005.72,0.38,0.44,0.45],
    [1374,363171,"Vazduh","Libelium","0004A30B0021DF70",44.979,16.7091,"","","Prijedor","",16202585,"2022-12-01T15:28:48",3,"NO ERROR",4.68,100,1005.7,2.1,2.44,2.46],
    [1375,363171,"Vazduh","Libelium","0004A30B0021DF70",44.979,16.7091,"","","Prijedor","",16203423,"2022-12-01T16:29:30",3,"NO ERROR",4.66,100,1005.71,2.79,3.45,3.59],
    [1376,363171,"Vazduh","Libelium","0004A30B0021DF70",44.979,16.7091,"","","Prijedor","",16206529,"2022-12-01T17:30:13",3,"NO ERROR",4.78,100,1005.84,1.75,2.24,2.27],
    [1377,363171,"Vazduh","Libelium","0004A30B0021DF70",44.979,16.7091,"","","Prijedor","",16208564,"2022-12-01T18:31:01",3,"NO ERROR",4.89,100,1006.02,0.72,0.76,0.76],
    [1378,363171,"Vazduh","Libelium","0004A30B0021DF70",44.979,16.7091,"","","Prijedor","",16210188,"2022-12-01T19:31:43",3,"NO ERROR",4.71,100,1006.12,0.93,1.09,1.12],
    [1379,363171,"Vazduh","Libelium","0004A30B0021DF70",44.979,16.7091,"","","Prijedor","",16211609,"2022-12-01T20:32:25",3,"NO ERROR",4.76,100,1006.11,1.52,1.83,1.83],
    [1380,363171,"Vazduh","Libelium","0004A30B0021DF70",44.979,16.7091,"","","Prijedor","",16212983,"2022-12-01T21:33:07",3,"NO ERROR",4.7,100,1006.07,2.24,2.69,2.7],
    [1381,363171,"Vazduh","Libelium","0004A30B0021DF70",44.979,16.7091,"","","Prijedor","",16214296,"2022-12-01T22:33:55",3,"NO ERROR",4.85,100,1006.06,4.11,4.92,5.08],
    [1382,363171,"Vazduh","Libelium","0004A30B0021DF70",44.979,16.7091,"","","Prijedor","",16215612,"2022-12-01T23:34:37",3,"NO ERROR",4.55,100,1006.17,0.53,0.74,0.85],
    [1383,363171,"Vazduh","Libelium","0004A30B0021DF70",44.979,16.7091,"","","Prijedor","",16217247,"2022-12-02T00:35:19",3,"NO ERROR",4.23,100,1005.96,1.33,1.5,1.5],
    [1384,363171,"Vazduh","Libelium","0004A30B0021DF70",44.979,16.7091,"","","Prijedor","",16218641,"2022-12-02T01:36:02",3,"NO ERROR",3.65,100,1005.97,1.32,1.49,1.49],
    [1385,363171,"Vazduh","Libelium","0004A30B0021DF70",44.979,16.7091,"","","Prijedor","",16219999,"2022-12-02T02:36:44",3,"NO ERROR",3.67,100,1005.99,2.63,3.26,3.27],
    [1386,363171,"Vazduh","Libelium","0004A30B0021DF70",44.979,16.7091,"","","Prijedor","",16221322,"2022-12-02T03:37:26",3,"NO ERROR",3.51,100,1006,1.65,1.96,1.97],
    [1387,363171,"Vazduh","Libelium","0004A30B0021DF70",44.979,16.7091,"","","Prijedor","",16222657,"2022-12-02T04:38:08",3,"NO ERROR",3.29,100,1005.88,0.73,0.87,0.87],
    [1388,363171,"Vazduh","Libelium","0004A30B0021DF70",44.979,16.7091,"","","Prijedor","",16224015,"2022-12-02T05:38:50",3,"NO ERROR",3.25,100,1005.94,0.75,0.81,0.81],
    [1389,363171,"Vazduh","Libelium","0004A30B0021DF70",44.979,16.7091,"","","Prijedor","",16225379,"2022-12-02T06:39:32",3,"NO ERROR",3.26,100,1006.06,0.83,1,1.01],
    [1390,363171,"Vazduh","Libelium","0004A30B0021DF70",44.979,16.7091,"","","Prijedor","",16226190,"2022-12-02T07:40:21",3,"NO ERROR",3.39,100,1006.33,1.29,1.45,1.46],
    [1391,363171,"Vazduh","Libelium","0004A30B0021DF70",44.979,16.7091,"","","Prijedor","",16226882,"2022-12-02T08:41:03",3,"NO ERROR",3.72,100,1006.63,0.24,0.31,0.31],
    [1392,363171,"Vazduh","Libelium","0004A30B0021DF70",44.979,16.7091,"","","Prijedor","",16227605,"2022-12-02T09:41:45",3,"NO ERROR",4.35,100,1006.94,0.62,0.84,0.85],
    [1393,363171,"Vazduh","Libelium","0004A30B0021DF70",44.979,16.7091,"","","Prijedor","",16228286,"2022-12-02T10:42:27",3,"NO ERROR",4.48,100,1006.73,1.07,1.22,1.22],
    [1394,363171,"Vazduh","Libelium","0004A30B0021DF70",44.979,16.7091,"","","Prijedor","",16228992,"2022-12-02T11:43:09",3,"NO ERROR",5.67,100,1006.64,0.16,0.17,0.17],
    [1395,363171,"Vazduh","Libelium","0004A30B0021DF70",44.979,16.7091,"","","Prijedor","",16229682,"2022-12-02T12:43:51",3,"NO ERROR",5.8,100,1006.51,0.32,0.53,0.63],
    [1396,363171,"Vazduh","Libelium","0004A30B0021DF70",44.979,16.7091,"","","Prijedor","",16230383,"2022-12-02T13:44:33",3,"NO ERROR",5.33,100,1006.4,1.79,2.13,2.14],
    [1397,363171,"Vazduh","Libelium","0004A30B0021DF70",44.979,16.7091,"","","Prijedor","",16231044,"2022-12-02T14:45:16",3,"NO ERROR",5.34,100,1006.71,0.89,0.96,0.96],
    [1398,363171,"Vazduh","Libelium","0004A30B0021DF70",44.979,16.7091,"","","Prijedor","",16231713,"2022-12-02T15:45:58",3,"NO ERROR",5.3,100,1006.83,0.42,0.44,0.44],
    [1399,363171,"Vazduh","Libelium","0004A30B0021DF70",44.979,16.7091,"","","Prijedor","",16233468,"2022-12-02T16:46:40",3,"NO ERROR",5.09,100,1007.11,0.86,0.98,0.98],
    [1400,363171,"Vazduh","Libelium","0004A30B0021DF70",44.979,16.7091,"","","Prijedor","",16235717,"2022-12-02T17:47:22",3,"NO ERROR",5.07,100,1007.43,1.06,1.23,1.26],
    [1401,363171,"Vazduh","Libelium","0004A30B0021DF70",44.979,16.7091,"","","Prijedor","",16237389,"2022-12-02T18:48:04",3,"NO ERROR",4.98,100,1007.83,1.93,2.33,2.33],
    [1402,363171,"Vazduh","Libelium","0004A30B0021DF70",44.979,16.7091,"","","Prijedor","",16238826,"2022-12-02T19:48:46",3,"NO ERROR",4.93,100,1007.59,2.24,2.74,3.26],
    [1403,363171,"Vazduh","Libelium","0004A30B0021DF70",44.979,16.7091,"","","Prijedor","",16240309,"2022-12-02T20:49:28",3,"NO ERROR",4.86,100,1007.74,1.38,1.6,1.61],
    [1404,363171,"Vazduh","Libelium","0004A30B0021DF70",44.979,16.7091,"","","Prijedor","",16241703,"2022-12-02T21:50:10",3,"NO ERROR",4.69,100,1007.55,2.94,3.36,3.37],
    [1405,363171,"Vazduh","Libelium","0004A30B0021DF70",44.979,16.7091,"","","Prijedor","",16243009,"2022-12-02T22:50:52",3,"NO ERROR",4.62,100,1007.81,2.48,2.84,2.84],
    [1406,363171,"Vazduh","Libelium","0004A30B0021DF70",44.979,16.7091,"","","Prijedor","",16244329,"2022-12-02T23:51:35",3,"NO ERROR",4.49,100,1007.9,1.66,1.95,1.97],
    [1407,363171,"Vazduh","Libelium","0004A30B0021DF70",44.979,16.7091,"","","Prijedor","",16246202,"2022-12-03T00:52:17",3,"NO ERROR",4.4,100,1007.86,3.26,3.8,3.8],
    [1408,363171,"Vazduh","Libelium","0004A30B0021DF70",44.979,16.7091,"","","Prijedor","",16247786,"2022-12-03T01:52:59",3,"NO ERROR",4.44,100,1007.94,4.44,5.31,5.47],
    [1409,363171,"Vazduh","Libelium","0004A30B0021DF70",44.979,16.7091,"","","Prijedor","",16249250,"2022-12-03T02:53:41",3,"NO ERROR",4.25,100,1007.8,8.21,9.92,9.95],
    [1410,363171,"Vazduh","Libelium","0004A30B0021DF70",44.979,16.7091,"","","Prijedor","",16250632,"2022-12-03T03:54:23",3,"NO ERROR",4.19,100,1007.47,5.69,6.99,7.02],
    [1411,363171,"Vazduh","Libelium","0004A30B0021DF70",44.979,16.7091,"","","Prijedor","",16252069,"2022-12-03T04:55:05",3,"NO ERROR",4.21,100,1007.57,8.3,9.93,9.96],
    [1412,363171,"Vazduh","Libelium","0004A30B0021DF70",44.979,16.7091,"","","Prijedor","",16253430,"2022-12-03T05:55:47",3,"NO ERROR",4.3,100,1007.75,4.38,5.5,5.52],
    [1413,363171,"Vazduh","Libelium","0004A30B0021DF70",44.979,16.7091,"","","Prijedor","",16254711,"2022-12-03T06:56:30",3,"NO ERROR",4.32,100,1007.83,7.75,9.44,9.46],
    [1414,363171,"Vazduh","Libelium","0004A30B0021DF70",44.979,16.7091,"","","Prijedor","",16255411,"2022-12-03T07:57:12",3,"NO ERROR",4.42,100,1008.03,6.26,7.4,7.42],
    [1415,363171,"Vazduh","Libelium","0004A30B0021DF70",44.979,16.7091,"","","Prijedor","",16256154,"2022-12-03T08:57:54",3,"NO ERROR",4.73,100,1008.1,3.12,3.76,3.8],
    [1416,363171,"Vazduh","Libelium","0004A30B0021DF70",44.979,16.7091,"","","Prijedor","",16256893,"2022-12-03T09:58:36",3,"NO ERROR",5.18,100,1007.99,4.85,5.89,5.91],
    [1417,363171,"Vazduh","Libelium","0004A30B0021DF70",44.979,16.7091,"","","Prijedor","",16257594,"2022-12-03T10:59:18",3,"NO ERROR",5.41,100,1007.79,2.74,3.21,3.22],
    [1418,363171,"Vazduh","Libelium","0004A30B0021DF70",44.979,16.7091,"","","Prijedor","",16258220,"2022-12-03T12:00:00",3,"NO ERROR",5.5,100,1007.46,2.95,3.36,3.37],
    [1419,363171,"Vazduh","Libelium","0004A30B0021DF70",44.979,16.7091,"","","Prijedor","",16258912,"2022-12-03T13:00:42",3,"NO ERROR",5.89,100,1006.88,2.1,2.33,2.34],
    [1420,363171,"Vazduh","Libelium","0004A30B0021DF70",44.979,16.7091,"","","Prijedor","",16259628,"2022-12-03T14:01:31",3,"NO ERROR",6.02,100,1006.88,2.17,2.56,2.57],
    [1421,363171,"Vazduh","Libelium","0004A30B0021DF70",44.979,16.7091,"","","Prijedor","",16260256,"2022-12-03T15:02:13",3,"NO ERROR",5.78,100,1006.64,2.86,3.35,3.36],
    [1422,363171,"Vazduh","Libelium","0004A30B0021DF70",44.979,16.7091,"","","Prijedor","",16260858,"2022-12-03T16:02:55",3,"NO ERROR",5.57,100,1006.88,7.09,8.17,8.19],
    [1423,363171,"Vazduh","Libelium","0004A30B0021DF70",44.979,16.7091,"","","Prijedor","",16263285,"2022-12-03T17:03:37",3,"NO ERROR",5.42,100,1007.04,5.5,6.37,6.38],
    [1424,363171,"Vazduh","Libelium","0004A30B0021DF70",44.979,16.7091,"","","Prijedor","",16265509,"2022-12-03T18:04:19",3,"NO ERROR",5.46,100,1006.98,8.53,10.13,10.15],
    [1425,363171,"Vazduh","Libelium","0004A30B0021DF70",44.979,16.7091,"","","Prijedor","",16267157,"2022-12-03T19:05:01",3,"NO ERROR",5.22,100,1007.02,12.4,14.54,14.58],
    [1426,363171,"Vazduh","Libelium","0004A30B0021DF70",44.979,16.7091,"","","Prijedor","",16268564,"2022-12-03T20:05:43",3,"NO ERROR",5.27,100,1006.91,11.44,13.29,13.34],
    [1427,363171,"Vazduh","Libelium","0004A30B0021DF70",44.979,16.7091,"","","Prijedor","",16269873,"2022-12-03T21:06:26",3,"NO ERROR",5.35,100,1006.79,19.56,23.83,24.52],
    [1428,363171,"Vazduh","Libelium","0004A30B0021DF70",44.979,16.7091,"","","Prijedor","",16271194,"2022-12-03T22:07:08",3,"NO ERROR",5.39,100,1006.91,10.84,12.83,12.86],
    [1429,363171,"Vazduh","Libelium","0004A30B0021DF70",44.979,16.7091,"","","Prijedor","",16272439,"2022-12-03T23:07:50",3,"NO ERROR",5.25,100,1006.47,13.13,15.96,16.15],
    [1430,363171,"Vazduh","Libelium","0004A30B0021DF70",44.979,16.7091,"","","Prijedor","",16273903,"2022-12-04T00:08:32",3,"NO ERROR",5.22,100,1006.46,8.31,9.65,9.67],
    [1431,363171,"Vazduh","Libelium","0004A30B0021DF70",44.979,16.7091,"","","Prijedor","",16275448,"2022-12-04T01:09:14",3,"NO ERROR",5.13,100,1005.66,15.83,19.74,19.97],
    [1432,363171,"Vazduh","Libelium","0004A30B0021DF70",44.979,16.7091,"","","Prijedor","",16276803,"2022-12-04T02:10:02",3,"NO ERROR",5.01,100,1005.65,12.1,14.3,14.38],
    [1433,363171,"Vazduh","Libelium","0004A30B0021DF70",44.979,16.7091,"","","Prijedor","",16278125,"2022-12-04T03:10:50",3,"NO ERROR",4.71,100,1005.28,18.39,23.6,24.55],
    [1434,363171,"Vazduh","Libelium","0004A30B0021DF70",44.979,16.7091,"","","Prijedor","",16279427,"2022-12-04T04:11:32",3,"NO ERROR",4.37,100,1004.95,12.84,15.77,15.83],
    [1435,363171,"Vazduh","Libelium","0004A30B0021DF70",44.979,16.7091,"","","Prijedor","",16280794,"2022-12-04T05:12:15",3,"NO ERROR",4.1,100,1004.48,17.31,22.08,22.52]
]}
